     2.11           OBSERVATION DATA    G (GPS)             RINEX VERSION / TYPE
teqc 2010Oct21 OPUS Account 20111026 17:10:14UTC            PGM / RUN BY / DATE
N 1523                                                      MARKER NAME
1193                                                        MARKER NUMBER
CSMIDDLETON NGS                                             OBSERVER / AGENCY
4820152812 TRIMBLE R7 2.32                                  REC # / TYPE / VERS
60244996 TRM41249.00 NONE                                   ANT # / TYPE
  -751089.9130 -5514582.8726  3105142.2630                  APPROX POSITION XYZ
        2.0030        0.0000        0.0000                  ANTENNA: DELTA H/E/N
     1     1                                                WAVELENGTH FACT L1/2
     5    L1    L2    C1    P1    P2                        # / TYPES OF OBSERV
    15                                                      LEAP SECONDS
  2011     8     3     0     0   30.0000000     GPS         TIME OF FIRST OBS
                                                            END OF HEADER
 11  8  3  0  0 30.0000000  0  8G09G17G12G27G10G02G04G28
  -7963119.02357  -6110102.32455  22089378.1094                   22089376.3094
  -9293763.19457  -6973373.39156  21732953.4224                   21732949.9804
  -4196331.07056  -2886300.68053  24278564.7424                   24278563.3634
 -11117994.26257  -7463510.40255  22434876.8204                   22434874.5984
  -9955913.55557  -7724388.92054  22654455.5944                   22654454.3164
 -12840938.50158  -9865432.55856  21657034.5704                   21657030.2154
 -22154307.77858 -16288520.28756  19926756.8914                   19926754.0314
   -595895.32457   -450031.21155  22344542.3914                   22344538.6724
 11  8  3  0  1  0.0000000  0  8G09G17G12G27G10G02G04G28
  -7929925.98847  -6084237.62145  22095694.9454                   22095693.0004
  -9227876.72748  -6922033.28946  21745491.1414                   21745487.6994
  -4261906.64546  -2937398.43743  24266086.2814                   24266085.1914
 -11075038.45347  -7430038.36745  22443051.0164                   22443049.2504
 -10011044.02047  -7767347.61344  22643964.3054                   22643963.3484
 -12872625.38748  -9890123.58246  21651004.4384                   21651000.3794
 -22108457.39548 -16252792.70746  19935481.8914                   19935479.2384
   -497507.33247   -373365.32445  22363264.7734                   22363262.2424
 11  8  3  0  1 30.0000000  0  8G09G17G12G27G10G02G04G28
  -7895979.03547  -6057785.46545  22102154.6334                   22102152.6214
  -9161786.29748  -6870534.23846  21758067.4064                   21758064.1644
  -4327344.73846  -2988389.05943  24253634.1954                   24253632.1954
 -11031492.16448  -7396106.21945  22451337.5164                   22451335.4264
 -10065837.34447  -7810043.59844  22633537.8284                   22633536.5594
 -12903839.85548  -9914446.48846  21645064.6094                   21645060.4614
 -22061953.93048 -16216556.22746  19944331.2114                   19944327.9924
   -398632.68447   -296320.18745  22382080.0474                   22382076.7424
 11  8  3  0  2  0.0000000  0  8G09G17G12G27G10G02G04G28
  -7861280.46747  -6030747.61945  22108757.6484                   22108755.8524
  -9095493.69247  -6818877.68146  21770682.4774                   21770679.5474
  -4392644.98946  -3039272.33243  24241207.6174                   24241204.9304
 -10987358.01947  -7361715.99545  22459735.9384                   22459733.8954
 -10120291.66147  -7852475.43344  22623174.7504                   22623173.8404
 -12934583.22848  -9938402.31246  21639214.0394                   21639209.7664
 -22014800.34148 -16179813.16746  19953304.1414                   19953301.4064
   -299273.51647   -218897.49545  22400987.0394                   22400984.1484
 11  8  3  0  2 30.0000000  0  8G09G17G12G27G10G02G04G28
  -7825822.04747  -6003117.68745  22115505.4064                   22115503.4024
  -9028989.37148  -6767056.14846  21783338.1094                   21783334.9454
  -4457796.12547  -3090039.42243  24228810.3524                   24228806.5634
 -10942627.78947  -7326861.28145  22468247.8364                   22468246.0474
 -10174394.17247  -7894633.12944  22612879.6884                   22612878.3054
 -12964845.00448  -9961982.86746  21633456.0554                   21633451.0664
 -21966988.87948 -16142557.47346  19962402.5784                   19962399.8954
   -199421.68447   -141090.93045  22419988.0554                   22419985.9104
 11  8  3  0  3  0.0000000  0  8G09G17G12G27G10G02G04G28
  -7789605.58647  -5974897.08645  22122397.0084                   22122395.0864
  -8962274.19948  -6715070.31246  21796033.4454                   21796030.4614
  -4522797.48447  -3140689.80143  24216441.0234                   24216437.6844
 -10897303.59248  -7291543.74845  22476873.2194                   22476871.0554
 -10228142.63747  -7936514.96144  22602651.8054                   22602651.0004
 -12994625.70548  -9985188.57346  21627789.0004                   21627784.2274
 -21918521.80948 -16104790.92246  19971625.7424                   19971622.7544
    -99078.46147    -62901.45745  22439082.7814                   22439080.7974
 11  8  3  0  3 30.0000000  0  8G09G17G12G27G10G02G04G28
  -7752634.85747  -5946088.73345  22129432.6024                   22129430.1914
  -8895350.62548  -6662922.06646  21808768.5394                   21808765.7894
  -4587649.39147  -3191223.67643  24204099.6644                   24204097.4344
 -10851388.96548  -7255766.13345  22485609.8444                   22485608.0704
 -10281536.60547  -7978120.55645  22592491.0084                   22592489.7734
 -13023927.23548 -10008020.87646  21622212.6414                   21622208.4884
 -21869403.50048 -16066516.90646  19980972.0784                   19980969.5904
      1752.87847     15668.37045  22458270.7664                   22458268.4184
 11  8  3  0  4  0.0000000  0  8G09G17G12G27G10G02G04G28
  -7714902.59047  -5916686.98045  22136612.0554                   22136610.3014
  -8828210.85548  -6610605.37146  21821544.8674                   21821541.5824
  -4652342.37147  -3241633.71144  24191788.6484                   24191787.3594
 -10804877.23848  -7219523.25445  22494460.7974                   22494458.3404
 -10334564.55047  -8019440.92845  22582399.9224                   22582398.8524
 -13052740.98448 -10030473.10946  21616729.7664                   21616725.5704
 -21819627.44948 -16027730.36346  19990444.3054                   19990440.9414
    103079.33247     94624.00844  22477552.4844                   22477550.0234
 11  8  3  0  4 30.0000000  0  8G09G17G12G27G10G02G04G28
  -7676416.85247  -5886698.09045  22143936.4614                   22143934.2034
  -8760861.91448  -6558125.68046  21834360.8834                   21834357.7114
  -4716881.48447  -3291923.85244  24179507.7504                   24179505.8984
 -10757776.81248  -7182821.65645  22503424.0394                   22503422.4104
 -10387230.29747  -8060479.09045  22572378.0784                   22572376.4884
 -13081073.02348 -10052549.97346  21611338.0474                   21611333.7974
 -21769202.03548 -15988437.82846  20000040.0474                   20000037.1374
    204893.35247    173959.55544  22496926.5784                   22496924.6524
 11  8  3  0  5  0.0000000  0  8G09G17G12G27G10G02G04G28
  -7637169.16847  -5856115.48045  22151404.8054                   22151402.6684
  -8693294.00848  -6505475.37146  21847218.7114                   21847215.6724
  -4781255.07047  -3342085.00444  24167257.7424                   24167255.7664
 -10710079.22747  -7145654.71145  22512500.7504                   22512498.6844
 -10439521.02347  -8101225.03945  22562427.9144                   22562426.0274
 -13108913.13748 -10074243.52746  21606040.2734                   21606035.9184
 -21718119.53148 -15948633.26246  20009760.6954                   20009757.8634
    307203.76647    253681.91044  22516395.9844                   22516393.6334
 11  8  3  0  5 30.0000000  0  8G09G17G12G27G10G02G04G28
  -7597162.55947  -5824941.52045  22159017.7194                   22159015.7814
  -8625509.29448  -6452656.12546  21860117.5164                   21860114.5234
  -4845463.65247  -3392117.59444  24155038.7974                   24155037.0004
 -10661787.52247  -7108024.83145  22521690.2424                   22521688.0274
 -10491435.46747  -8141677.75945  22552548.5474                   22552547.0044
 -13136262.93648 -10095555.01846  21600835.9614                   21600831.5354
 -21666383.30548 -15908319.31846  20019605.8524                   20019602.9384
    410007.49447    333788.65545  22535958.9384                   22535956.7114
 11  8  3  0  6  0.0000000  0  8G09G17G12G27G10G02G04G28
  -7556393.45647  -5793173.39245  22166776.2274                   22166773.8164
  -8557503.17748  -6399664.35446  21873058.8914                   21873055.9454
  -4909500.39947  -3442016.30544  24142853.3834                   24142850.9884
 -10612898.36047  -7069929.41945  22530993.6334                   22530991.8404
 -10542965.71647  -8181831.11645  22542742.9774                   22542741.4774
 -13163117.17048 -10116480.34646  21595725.4144                   21595721.6564
 -21613990.53948 -15867493.78546  20029575.9924                   20029573.5164
    513308.32747    414282.76445  22555616.7664                   22555614.5274
 11  8  3  0  6 30.0000000  0  8G09G17G12G27G10G02G04G28
  -7514867.71147  -5760815.68445  22174678.0474                   22174675.7624
  -8489280.11348  -6346503.53946  21886041.4694                   21886038.0704
  -4973368.41747  -3491783.48944  24130698.7664                   24130697.5904
 -10563418.00447  -7031373.31245  22540409.1884                   22540407.1954
 -10594113.27047  -8221686.25845  22533009.5864                   22533008.3164
 -13189480.03948 -10137022.79746  21590708.8524                   21590704.1334
 -21560947.68048 -15826161.68446  20039670.0394                   20039666.8714
    617100.63747    495159.82444  22575367.2344                   22575365.0274
 11  8  3  0  7  0.0000000  0  8G09G17G12G27G10G02G04G28
  -7472585.56747  -5727868.56845  22182724.2194                   22182722.1764
  -8420839.29848  -6293173.04746  21899065.3364                   21899062.3594
  -5037064.78247  -3541416.93644  24118578.6954                   24118576.5314
 -10513346.48847  -6992356.59345  22549937.2894                   22549935.5904
 -10644873.72947  -8261239.76845  22523350.0314                   22523348.9534
 -13215349.70848 -10157180.93846  21585785.7274                   21585781.8404
 -21507255.23348 -15784323.40446  20049887.0234                   20049884.2624
    721384.90647    576420.24244  22595212.2894                   22595209.6214
 11  8  3  0  7 30.0000000  0  8G09G17G12G27G10G02G04G28
  -7429550.73047  -5694334.94945  22190913.6254                   22190911.7934
  -8352183.10248  -6239674.71946  21912129.9454                   21912126.9534
  -5100590.16046  -3590917.14544  24106489.5554                   24106487.6414
 -10462687.87147  -6952882.37545  22559577.3834                   22559576.0474
 -10695246.80947  -8300491.42645  22513764.4844                   22513762.9884
 -13240728.37148 -10176956.47346  21580956.4924                   21580952.0664
 -21452917.66048 -15741982.42646  20060226.9454                   20060224.1524
    826157.26647    658060.98845  22615150.0474                   22615147.7704
 11  8  3  0  8  0.0000000  0  8G09G17G12G27G10G02G04G28
  -7385759.26248  -5660211.72745  22199247.2114                   22199244.4384
  -8283306.40647  -6186004.57846  21925236.5394                   21925233.6174
  -5163937.57346  -3640278.60744  24094434.2894                   24094433.6174
 -10411438.36747  -6912947.71545  22569330.6484                   22569328.4064
 -10745224.15247  -8339434.71145  22504253.4844                   22504252.0824
 -13265610.49648 -10196345.09446  21576221.5394                   21576216.8054
 -21397931.49948 -15699136.05846  20070690.5864                   20070687.6644
    931422.01647    740085.41444  22635181.4924                   22635179.6564
 11  8  3  0  8 30.0000000  0  8G09G17G12G27G10G02G04G28
  -7341214.67347  -5625501.68845  22207723.5944                   22207721.2344
  -8214211.58647  -6132164.47646  21938385.7344                   21938382.6954
  -5227107.42246  -3689501.77244  24082414.3594                   24082412.3714
 -10359601.66547  -6872555.51445  22579194.3444                   22579192.1254
 -10794804.50947  -8378068.66845  22494818.5474                   22494817.3324
 -13289997.86548 -10215348.19046  21571580.7034                   21571576.4024
 -21342300.78548 -15655787.44246  20081276.5164                   20081273.6564
   1037175.97347    822491.01845  22655305.5704                   22655303.8554
 11  8  3  0  9  0.0000000  0  8G09G17G12G27G10G02G04G28
  -7295919.57048  -5590206.81645  22216342.6484                   22216340.8324
  -8144899.79348  -6078155.30546  21951575.0634                   21951572.1764
  -5290098.77046  -3738585.84444  24070427.4614                   24070425.5044
 -10307180.09848  -6831707.56645  22589169.9454                   22589167.5704
 -10843985.79847  -8416391.66345  22485459.5084                   22485458.5664
 -13313891.13748 -10233966.28546  21567033.8594                   21567029.6644
 -21286028.54748 -15611938.93046  20091984.8524                   20091982.0004
   1143417.12947    905276.28944  22675522.6094                   22675520.3874
 11  8  3  0  9 30.0000000  0  8G09G17G12G27G10G02G04G28
  -7249877.49648  -5554329.88345  22225104.0554                   22225102.1994
  -8075373.13747  -6023978.70346  21964805.6174                   21964802.3794
  -5352912.20347  -3787531.28943  24058473.6954                   24058472.0824
 -10254177.38347  -6790406.76645  22599255.8754                   22599253.9494
 -10892766.97347  -8454402.88345  22476176.9694                   22476175.6024
 -13337291.77348 -10252200.50446  21562580.8984                   21562576.0474
 -21229118.71148 -15567593.59846  20102814.4454                   20102811.8674
   1250142.17647    988438.59844  22695831.8444                   22695829.8364
 11  8  3  0 10  0.0000000  0  8G09G17G12G27G10G02G04G28
  -7203091.23447  -5517873.05145  22234007.2194                   22234005.3634
  -8005633.20748  -5969635.91446  21978076.2894                   21978073.1254
  -5415547.25447  -3836337.73844  24046555.2424                   24046552.3754
 -10200596.70347  -6748655.63345  22609451.9064                   22609449.9104
 -10941146.63347  -8492101.22745  22466970.4224                   22466969.6994
 -13360201.20348 -10270051.96146  21558221.3754                   21558217.2934
 -21171574.50048 -15522753.94946  20113764.8444                   20113761.9774
   1357348.51647   1071975.95745  22716232.6564                   22716230.3524
 11  8  3  0 10 30.0000000  0  8G09G17G12G27G10G02G04G28
  -7155560.84447  -5480836.39545  22243051.7974                   22243050.1094
  -7935678.25447  -5915125.56646  21991388.3444                   21991385.5824
  -5478000.78147  -3885002.76644  24034670.4144                   24034667.3834
 -10146437.98047  -6706454.05945  22619757.9534                   22619755.6054
 -10989119.68447  -8529482.72745  22457841.4694                   22457840.0824
 -13382617.19948 -10287518.93746  21553955.9224                   21553951.2464
 -21113396.50048 -15477420.43046  20124835.4694                   20124833.0084
   1465036.74647   1155888.79345  22736725.0704                   22736722.7234
 11  8  3  0 11  0.0000000  0  8G09G17G12G27G10G02G04G28
  -7107296.41847  -5443227.76645  22252236.5314                   22252234.5274
  -7865516.96948  -5860454.44146  22004739.9064                   22004736.5984
  -5540279.48847  -3933531.62144  24022819.5944                   24022815.8674
 -10091711.48447  -6663810.07445  22630172.4534                   22630170.2544
 -11036692.10947  -8566552.08245  22448788.6724                   22448787.2344
 -13404548.31648 -10304608.07046  21549782.5474                   21549778.0824
 -21054595.19148 -15431601.21946  20136025.2504                   20136022.5084
   1573197.18447   1240169.60944  22757307.8674                   22757305.1954
 11  8  3  0 11 30.0000000  0  8G09G17G12G27G10G02G04G28
  -8633708.66448  -6632639.89545  21961769.9384                   21961768.0784
  -9370558.17647  -7033213.83646  21718339.8674                   21718336.7544
  -7177794.23047  -5209517.08644  23711210.4694                   23711207.5664
 -11611827.85947  -7848316.37145  22340903.9614                   22340902.1724
 -12659272.80147  -9830900.59445  22140021.4304                   22140019.6914
 -15001405.73048 -11548912.50046  21245910.5474                   21245905.7384
 -22570581.25448 -16612889.05146  19847542.3984                   19847539.8634
    106421.59047     97227.50844  22478189.2344                   22478186.4024
 11  8  3  0 12  0.0000000  0  8G09G17G12G27G10G02G04G28
  -8583965.34447  -6593878.89145  21971235.5704                   21971233.7774
  -9299969.06248  -6978209.33646  21731772.5394                   21731769.4494
  -7239701.97747  -5257756.83244  23699429.6334                   23699427.3554
 -11555955.17247  -7804779.24245  22351536.0554                   22351534.1804
 -12706018.58647  -9867325.81245  22131126.6804                   22131124.4064
 -15022350.43448 -11565233.00846  21241924.7974                   21241920.6214
 -22510523.57048 -16566090.84846  19858971.1484                   19858968.3094
    215538.20347    182253.37944  22498953.7584                   22498951.0474
 11  8  3  0 12 30.0000000  0  8G09G17G12G27G10G02G04G28
  -8533485.86347  -6554544.23845  21980841.3674                   21980839.7584
  -9229167.16448  -6923039.03146  21745245.7504                   21745242.6214
  -7301422.43447  -5305850.63744  23687684.9454                   23687681.9184
 -11499512.64547  -7760798.06645  22362276.8284                   22362275.1454
 -12752347.62947  -9903426.27345  22122310.1804                   22122308.5314
 -15042802.41048 -11581169.55546  21238032.8054                   21238028.0394
 -22449841.62548 -16518806.19946  19870518.5314                   19870515.8284
    325130.35247    267649.79344  22519808.2504                   22519806.2194
 11  8  3  0 13  0.0000000  0  8G09G17G12G27G10G02G04G28
  -8482272.42648  -6514637.68045  21990587.2974                   21990585.3554
  -9158152.71147  -6867703.10246  21758759.7504                   21758756.5314
  -7362954.04347  -5353797.28544  23675975.5704                   23675972.6054
 -11442502.36747  -7716374.50845  22373125.4614                   22373124.0554
 -12798257.16047  -9939199.84445  22113573.7114                   22113572.5124
 -15062761.83648 -11596722.31646  21234235.0164                   21234229.8874
 -22388538.01248 -16471037.13346  19882184.0634                   19882181.4614
    435196.30947    353415.41444  22540753.0084                   22540750.5944
 11  8  3  0 13 30.0000000  0  8G09G17G12G27G10G02G04G28
  -8430320.21547  -6474155.45745  22000473.1804                   22000471.3404
  -9086919.01648  -6812196.34846  21772314.6254                   21772311.4264
  -7424288.53946  -5401590.33244  23664303.8444                   23664301.6024
 -11384919.42247  -7671504.71145  22384083.3054                   22384081.4614
 -12843737.36747  -9974638.88745  22104918.7974                   22104917.5824
 -15082221.85948 -11611885.91846  21230531.5784                   21230527.2234
 -22326607.76248 -16422779.79346  19893969.2664                   19893966.3164
    545741.74647    439554.62544  22561789.3984                   22561787.5664
 11  8  3  0 14  0.0000000  0  8G09G17G12G27G10G02G04G28
  -8377639.45948  -6433105.54045  22010498.6484                   22010496.2304
  -9015475.05148  -6756525.73546  21785910.1174                   21785907.0514
  -7485432.66146  -5449235.00644  23652668.8674                   23652666.5274
 -11326774.43847  -7626196.95745  22395147.5944                   22395146.0314
 -12888794.01447 -10009747.87045  22096345.3134                   22096343.4384
 -15101190.87148 -11626666.92346  21226922.0004                   21226917.0354
 -22264061.95148 -16374042.77546  19905871.3364                   19905868.8284
    656756.32447    526059.42744  22582914.5164                   22582912.3594
 11  8  3  0 14 30.0000000  0  8G09G17G12G27G10G02G04G28
  -8324221.27347  -6391480.97745  22020663.3364                   22020661.1884
  -8943810.02048  -6700682.86345  21799547.6334                   21799544.1994
  -7546374.20047  -5496721.87444  23641071.6564                   23641069.3954
 -11268058.63747  -7580444.41045  22406320.8914                   22406319.1174
 -12933413.23047 -10044516.00045  22087854.2034                   22087852.3364
 -15119658.18748 -11641057.00446  21223407.2664                   21223402.7464
 -22200892.16648 -16324819.55946  19917891.9614                   19917888.6804
    768249.44547    612937.10544  22604130.6254                   22604128.7624
 11  8  3  0 15  0.0000000  0  8G09G17G12G27G10G02G04G28
  -8270078.78547  -6349292.06245  22030966.6094                   22030964.5084
  -8871935.45748  -6644676.72746  21813225.1094                   21813221.9734
  -7607122.19547  -5544057.91044  23629511.3754                   23629509.3634
 -11208784.92647  -7534257.13345  22417600.6174                   22417598.8984
 -12977603.62547 -10078950.00045  22079445.2894                   22079443.3054
 -15137634.93048 -11655064.81246  21219986.6724                   21219982.1884
 -22137111.48048 -16275120.30946  19930029.3134                   19930026.4924
    880208.81647    700178.09844  22625436.1414                   22625434.7854
 11  8  3  0 15 30.0000000  0  8G09G17G12G27G10G02G04G28
  -8215211.73047  -6306538.52745  22041407.3594                   22041405.2154
  -8799849.36748  -6588505.75846  21826942.3444                   21826939.0044
  -7667673.00447  -5591240.30544  23617989.3984                   23617987.3554
 -11148952.89147  -7487634.79745  22428986.0634                   22428984.4884
 -13021359.78947 -10113045.61745  22071118.4924                   22071116.8444
 -15155118.69948 -11668688.49246  21216659.5784                   21216654.8674
 -22072720.18048 -16224945.25446  19942282.1334                   19942279.4694
    992635.10947    787782.92244  22646830.1884                   22646828.5864
 11  8  3  0 16  0.0000000  0  8G09G17G12G27G10G02G04G28
  -8159621.41047  -6263221.41845  22051985.7274                   22051983.7974
  -8727550.93448  -6532169.33245  21840700.4384                   21840697.3094
  -7728023.96947  -5638266.95744  23606504.5234                   23606503.2424
 -11088563.80147  -7440578.37545  22440477.7034                   22440476.2464
 -13064678.53947 -10146800.41445  22062875.2894                   22062873.6764
 -15172108.88748 -11681927.56246  21213426.5474                   21213422.0824
 -22007719.49648 -16174295.35946  19954651.2504                   19954648.8204
   1105527.52747    875750.97344  22668312.5474                   22668311.5984
 11  8  3  0 16 30.0000000  0  8G09G17G12G27G10G02G04G28
  -8103310.69947  -6219342.95745  22062701.2424                   22062699.5474
  -8655041.50448  -6475668.49645  21854497.8524                   21854495.4694
  -7788174.37547  -5685137.36345  23595058.8834                   23595056.9534
 -11027620.64547  -7393090.24245  22452074.9844                   22452073.3594
 -13107557.48447 -10180212.49245  22054715.3594                   22054713.7894
 -15188606.42648 -11694782.73446  21210287.0634                   21210281.9734
 -21942112.97348 -16123173.38746  19967135.7504                   19967132.9534
   1218883.60947    964080.30944  22689883.7424                   22689882.3914
 11  8  3  0 17  0.0000000  0  8G09G17G12G27G10G02G04G28
  -8046281.71947  -6174904.82445  22073553.2504                   22073551.5314
  -8582320.96148  -6419003.17245  21868336.5084                   21868333.5394
  -7848122.64147  -5731850.25044  23583650.9774                   23583648.4184
 -10966125.41047  -7345171.91445  22463777.0164                   22463775.2194
 -13149993.81647 -10213279.68445  22046639.9384                   22046638.5474
 -15204611.20748 -11707253.95746  21207241.2114                   21207236.6024
 -21875902.70348 -16071580.96146  19979735.1954                   19979732.4884
   1332702.06647   1052769.97344  22711542.8834                   22711541.3404
 11  8  3  0 17 30.0000000  0  8G09G17G12G27G10G02G04G28
  -7988538.67647  -6129910.27345  22084541.9064                   22084539.4384
  -8509392.04047  -6362175.45046  21882214.2034                   21882211.5554
  -7907869.28947  -5778406.07444  23572281.7114                   23572278.9694
 -10904082.42947  -7296826.76845  22475583.7734                   22475581.9144
 -13191987.04147 -10246001.58645  22038649.2734                   22038647.4804
 -15220125.54748 -11719343.01846  21204289.2194                   21204284.8714
 -21809093.58448 -16019521.89846  19992448.6024                   19992446.0044
   1446979.02947   1141816.86044  22733289.6254                   22733287.4064
 11  8  3  0 18  0.0000000  0  8G09G17G12G27G10G02G04G28
  -7930080.34047  -6084358.34045  22095666.2584                   22095664.5044
  -8436251.23147  -6305182.62845  21896132.3914                   21896129.5904
  -7967408.75747  -5824800.41544  23560951.0944                   23560949.5514
 -10841489.88747  -7248053.38045  22487494.9774                   22487492.8244
 -13233530.73547 -10278373.22945  22030743.2424                   22030741.5274
 -15235145.99648 -11731047.21946  21201430.3524                   21201426.0904
 -21741684.05948 -15966994.98846  20005276.3524                   20005273.6994
   1561716.52047   1231222.61344  22755123.2344                   22755121.3594
 11  8  3  0 18 30.0000000  0  8G09G17G12G27G10G02G04G28
  -7870916.07447  -6038256.34045  22106924.3444                   22106922.6054
  -8362905.90647  -6248030.44545  21910089.6484                   21910086.7234
  -8026746.68747  -5871037.73444  23549660.4224                   23549657.0514
 -10778357.40247  -7198859.28145  22499507.8284                   22499506.5984
 -13274629.51247 -10310398.16845  22022922.2814                   22022920.7774
 -15249679.75448 -11742372.19146  21198665.2034                   21198660.2234
 -21673683.87548 -15914007.81646  20018216.1804                   20018213.4264
   1676905.65247   1320980.32444  22777043.3524                   22777041.2774
 11  8  3  0 19  0.0000000  0  8G09G17G12G27G10G02G04G28
  -7811041.53547  -5991600.89845  22118318.2814                   22118316.2234
  -8289349.62947  -6190713.87545  21924087.0234                   21924084.1214
  -8085874.87147  -5917111.61344  23538408.0234                   23538404.9844
 -10714680.49647  -7149240.94945  22511625.3524                   22511623.8794
 -13315273.70747 -10342068.89545  22015188.0704                   22015186.5824
 -15263720.57448 -11753313.05546  21195993.0004                   21195988.4304
 -21605088.88348 -15860557.17646  20031269.4384                   20031266.2934
   1792551.55147   1411093.93844  22799049.1724                   22799048.1914
 11  8  3  0 19 30.0000000  0  8G09G17G12G27G10G02G04G28
  -7750464.75447  -5944398.25045  22129845.9304                   22129843.9264
  -8215588.51247  -6133237.70645  21938123.4304                   21938120.2774
  -8144797.33747  -5963025.17344  23527195.3134                   23527192.4574
 -10650467.29347  -7099204.72745  22523844.9694                   22523843.8714
 -13355466.39647 -10373387.80445  22007539.4844                   22007538.2154
 -15277274.50248 -11763874.51346  21193413.4384                   21193409.2774
 -21535907.35648 -15806649.49346  20044433.9304                   20044431.4774
   1908646.76647   1501557.66844  22821141.3674                   22821140.2344
 11  8  3  0 20  0.0000000  0  8G09G17G12G27G10G02G04G28
  -7689191.83647  -5896653.14545  22141505.3834                   22141503.8014
  -8141626.28947  -6075604.81645  21952197.7974                   21952195.2074
  -8203515.92647  -6008779.87144  23516020.4694                   23516018.2894
 -10585723.50047  -7048755.05145  22536165.4064                   22536163.5394
 -13395208.30947 -10404355.46145  21999976.4534                   21999974.9104
 -15290345.14148 -11774059.39846  21190926.5634                   21190921.8204
 -21466145.38348 -15752289.51246  20057709.4384                   20057706.9224
   2025185.95347   1592367.35944  22843318.3674                   22843317.1454
 11  8  3  0 20 30.0000000  0  8G09G17G12G27G10G02G04G28
  -7627224.27047  -5848366.77045  22153297.9774                   22153296.0234
  -8067462.65647  -6017814.98445  21966310.9224                   21966307.7504
  -8262028.56247  -6054374.07444  23504887.0704                   23504884.5004
 -10520450.71547  -6997893.17645  22548586.6024                   22548585.4534
 -13434496.50847 -10434969.57045  21992500.2194                   21992499.0434
 -15302932.46948 -11783867.67646  21188530.8914                   21188526.7584
 -21395804.86348 -15697478.70746  20071094.7734                   20071092.0514
   2142167.92647   1683522.07044  22865579.3054                   22865578.2034
 11  8  3  0 21  0.0000000  0  8G09G17G12G27G10G02G04G28
  -7564568.31247  -5799543.98445  22165220.5704                   22165219.1054
  -7993101.66848  -5959871.36745  21980461.1724                   21980458.5434
  -8320337.18047  -6099809.27044  23493790.5474                   23493788.4844
 -10454655.20747  -6946623.98445  22561106.8674                   22561105.3754
 -13473332.11347 -10465231.01645  21985110.6174                   21985108.4924
 -15315040.24648 -11793302.26646  21186226.9924                   21186222.9064
 -21324892.21948 -15642222.10946  20084589.1254                   20084586.3404
   2259587.09847   1775017.45744  22887923.6094                   22887921.8594
 11  8  3  0 21 30.0000000  0  8G09G17G12G27G10G02G04G28
  -7501220.52047  -5750182.11345  22177275.4924                   22177274.0164
  -7918537.59848  -5901769.49645  21994649.9774                   21994647.2274
  -8378434.28747  -6145079.69944  23482735.3204                   23482733.7894
 -10388333.12947  -6894944.47745  22573727.8524                   22573726.2344
 -13511706.46148 -10495133.03545  21977808.1094                   21977806.1604
 -15326662.85548 -11802358.81246  21184016.0164                   21184010.9964
 -21253403.94948 -15586516.95746  20098192.7974                   20098190.0164
   2377447.89547   1866856.98444  22910352.3204                   22910350.0984
 11  8  3  0 22  0.0000000  0  9G09G17G05G12G27G10G02G04G28
  -7437179.85247  -5700280.31245  22189461.7894                   22189459.7974
  -7843767.39148  -5843507.00045  22008878.6334                   22008875.5864
  -1673174.56255  -1282909.85953  24666770.5004                   24666773.8094
  -8436314.70347  -6190181.24244  23471720.9534                   23471718.4614
 -10321483.32447  -6842853.77045  22586448.9224                   22586447.3754
 -13549613.58248 -10524670.99245  21970594.5944                   21970592.9224
 -15337797.11348 -11811034.82046  21181897.1564                   21181892.2624
 -21181339.26248 -15530362.64546  20111906.7504                   20111903.9104
   2495751.91847   1959041.87144  22932864.6804                   22932862.8714
 11  8  3  0 22 30.0000000  0  9G09G17G05G12G27G10G02G04G28
  -7372458.37947  -5649848.03545  22201778.5704                   22201776.6094
  -7768800.72348  -5785091.43445  22023144.7344                   22023141.5164
  -1740543.44146  -1335404.80943  24653949.6094                   24653954.0634
  -8493986.43447  -6235120.17244  23460746.4614                   23460743.7814
 -10254117.82847  -6790361.22745  22599268.1564                   22599266.3284
 -13587059.99647 -10553849.94945  21963468.7584                   21963466.7194
 -15348452.88348 -11819337.98446  21179869.0394                   21179864.4924
 -21108710.17648 -15473768.55146  20125727.2664                   20125724.6914
   2614487.82047   2051563.27044  22955459.8364                   22955457.6844
 11  8  3  0 23  0.0000000  0  9G09G17G05G12G27G10G02G04G28
  -7307069.24647  -5598895.49245  22214221.3524                   22214219.1724
  -7693648.64848  -5726531.38745  22037445.3754                   22037442.3484
  -1807903.24246  -1387892.67243  24641131.7814                   24641136.4804
  -8551458.59047  -6279903.59444  23449809.8914                   23449807.5594
 -10186249.76647  -6737477.07045  22612182.8914                   22612181.2384
 -13624053.97747 -10582676.35245  21956428.8674                   21956426.9144
 -15358641.35948 -11827277.03546  21177929.7974                   21177925.5784
 -21035530.12548 -15416745.12546  20139652.7344                   20139650.0904
   2733643.03947   2144411.42644  22978134.5164                   22978132.2974
 11  8  3  0 23 30.0000000  0  9G09G17G05G12G27G10G02G04G28
  -7241023.19947  -5547431.09045  22226789.6414                   22226787.9144
  -7618319.51348  -5667833.35146  22051780.4144                   22051777.1374
  -1875259.90246  -1440378.09843  24628313.5164                   24628317.6684
  -8608737.37947  -6324536.35244  23438909.6724                   23438907.2544
 -10117889.24647  -6684209.17645  22625191.3674                   22625190.2854
 -13660600.94947 -10611154.44145  21949474.0634                   21949472.3054
 -15368370.85248 -11834858.43046  21176078.7814                   21176074.2114
 -20961809.76248 -15359300.68746  20153681.4614                   20153678.6644
   2853207.62947   2237578.55544  23000887.0084                   23000884.9574
 11  8  3  0 24  0.0000000  0  9G09G17G05G12G27G10G02G04G28
  -7174311.52747  -5495448.00445  22239484.5164                   22239482.3404
  -7542802.34048  -5608988.82845  22066150.2584                   22066147.3484
  -1942600.06246  -1492850.67643  24615499.7274                   24615503.0594
  -8665810.00047  -6369008.46544  23428049.4144                   23428046.2704
 -10049027.39147  -6630550.64145  22638295.1884                   22638294.2814
 -13696687.14547 -10639273.49245  21942606.9614                   21942605.6134
 -15377630.72748 -11842073.88346  21174316.2974                   21174311.5984
 -20887540.72748 -15301428.71146  20167814.5944                   20167811.2734
   2973190.84447   2331071.89144  23023718.2974                   23023716.8324
 11  8  3  0 24 30.0000000  0  9G09G17G05G12G27G10G02G04G28
  -7106936.15247  -5442947.74645  22252305.8054                   22252303.9184
  -7467096.64848  -5549997.39545  22080556.7194                   22080553.9264
  -2009921.10947  -1545308.32443  24602688.7894                   24602691.3444
  -8722673.82847  -6413317.87945  23417228.7114                   23417226.1254
  -9979666.09847  -6576502.93045  22651494.5944                   22651492.7344
 -13732309.49647 -10667031.10545  21935828.3834                   21935826.3954
 -15386420.24648 -11848922.82846  21172643.9614                   21172639.6414
 -20812724.73048 -15243130.52746  20182051.1954                   20182049.0004
   3093591.82847   2424890.74644  23046630.2274                   23046628.3914
 11  8  3  0 25  0.0000000  0  9G09G17G05G12G27G10G02G04G28
  -7038900.71147  -5389933.14845  22265252.0944                   22265250.5554
  -7391203.59848  -5490859.97745  22094998.7034                   22094996.0164
  -2077222.24247  -1597750.47744  24589881.7344                   24589884.2344
  -8779328.32847  -6457464.16045  23406447.5164                   23406445.6804
  -9909809.02747  -6522068.89845  22664787.8914                   22664786.7584
 -13767466.07847 -10694425.78545  21929138.4304                   21929136.0634
 -15394741.06648 -11855406.55146  21171060.8914                   21171055.9614
 -20737365.69148 -15184409.20746  20196391.8674                   20196389.1684
   3214407.50447   2519032.74644  23069620.5704                   23069619.1764
 11  8  3  0 25 30.0000000  0  9G09G17G05G12G27G10G02G04G28
  -6970205.75547  -5336404.64245  22278324.5314                   22278322.3634
  -7315121.40648  -5431575.18046  22109476.9614                   22109473.6994
  -2144499.30147  -1650173.89144  24577078.6024                   24577081.0784
  -8835769.87247  -6501444.52944  23395706.8834                   23395704.5474
  -9839456.58747  -6467248.86545  22678175.6644                   22678174.6764
 -13802152.14847 -10721453.82345  21922537.2974                   21922535.4184
 -15402591.60248 -11861523.82546  21169566.4614                   21169562.1334
 -20661463.90348 -15125264.95446  20210835.2504                   20210832.4734
   3335638.09747   2613498.06544  23092689.5784                   23092688.5394
 11  8  3  0 26  0.0000000  0  9G09G17G05G12G27G10G02G04G28
  -6900848.79747  -5282360.29745  22291522.7034                   22291520.8134
  -7238845.18948  -5372139.17946  22123991.8204                   22123988.3594
  -2211745.22347  -1702572.99644  24564282.3594                   24564285.0084
  -8891991.49647  -6545253.55345  23385008.4774                   23385005.2504
  -9768605.79347  -6412040.49645  22691657.6414                   22691656.6884
 -13836360.40247 -10748109.55545  21916027.9774                   21916025.6994
 -15409967.08648 -11867270.93446  21168163.4694                   21168158.2464
 -20585017.09048 -15065696.00846  20225382.5474                   20225380.0864
   3457286.82047   2708289.18444  23115839.5004                   23115838.0634
 11  8  3  0 26 30.0000000  0  9G09G17G05G12G27G10G02G04G28
  -6830842.03147  -5227809.60245  22304844.4454                   22304842.6024
  -7162384.38348  -5312559.35545  22138541.9924                   22138538.9494
  -2278966.92947  -1754953.26344  24551490.0704                   24551492.8094
  -8948000.76647  -6588897.09045  23374350.2274                   23374347.2424
  -9697268.64147  -6356453.16045  22705232.7664                   22705231.3554
 -13870097.37147 -10774398.03545  21909607.7974                   21909605.7664
 -15416877.47348 -11872655.62546  21166847.9454                   21166843.1134
 -20508037.27048 -15005711.74646  20240031.6334                   20240028.7584
   3579342.52047   2803397.44144  23139065.8204                   23139064.3554
 11  8  3  0 27  0.0000000  0  9G09G17G05G12G27G10G02G04G28
  -6760185.63747  -5172752.70345  22318290.4384                   22318288.0594
  -7085736.97748  -5252834.12145  22153127.3834                   22153124.4304
  -2346160.27746  -1807311.37143  24538703.7114                   24538706.1414
  -9003793.61747  -6632371.97744  23363732.7894                   23363730.6604
  -9625445.14147  -6300486.86745  22718900.3984                   22718899.7034
 -13903357.98447 -10800315.34445  21903278.7584                   21903276.6484
 -15423320.29748 -11877675.97746  21165622.0554                   21165617.5204
 -20430524.57048 -14945312.25046  20254781.6884                   20254778.9734
   3701805.77047   2898823.25044  23162370.1484                   23162368.5904
 11  8  3  0 27 30.0000000  0  9G09G17G05G12G27G10G02G04G28
  -6688882.71147  -5117192.02345  22331858.7974                   22331857.2464
  -7008903.29348  -5192963.74245  22167748.6564                   22167745.6994
  -2413323.50046  -1859646.00443  24525922.1174                   24525925.5784
  -9059368.38747  -6675676.96944  23353157.1724                   23353154.0664
  -9553138.06647  -6244143.74245  22732660.2734                   22732659.1414
 -13936140.20747 -10825859.88745  21897040.8674                   21897038.3324
 -15429296.40248 -11882332.65646  21164484.9304                   21164479.9224
 -20352481.99648 -14884499.86346  20269632.5164                   20269630.2114
   3824674.35547   2994564.92244  23185750.9774                   23185749.8714
 11  8  3  0 28  0.0000000  0  9G09G17G05G12G27G10G02G04G28
  -6616938.45447  -5061131.59745  22345549.0164                   22345547.7384
  -6931886.09848  -5132950.36746  22182404.3674                   22182400.9844
  -2480457.34446  -1911957.76243  24513146.3204                   24513149.0394
  -9114725.82447  -6718812.58244  23342622.8594                   23342620.2584
  -9480352.62647  -6187427.88245  22746510.6174                   22746509.4884
 -13968444.12647 -10851031.71045  21890893.0554                   21890891.1484
 -15434809.09048 -11886628.23046  21163436.0234                   21163431.1024
 -20273914.98848 -14823278.83246  20284583.4534                   20284580.9344
   3947943.55947   3090618.74244  23209208.5704                   23209206.5514
 11  8  3  0 28 30.0000000  0  9G09G17G05G12G27G10G02G04G28
  -6544355.17647  -5004573.22345  22359361.3364                   22359359.8134
  -6854685.01248  -5072793.70746  22197095.5864                   22197092.3834
  -2547558.93046  -1964244.35543  24500377.5554                   24500379.3164
  -9169864.04747  -6761777.37944  23332130.0864                   23332128.1454
  -9407090.82047  -6130340.82044  22760451.9224                   22760451.0554
 -14000266.48847 -10875828.27745  21884837.3364                   21884835.2734
 -15439858.21148 -11890562.57846  21162474.9614                   21162469.8364
 -20194825.61748 -14761650.76246  20299633.6254                   20299630.8134
   4071612.17647   3186983.80344  23232741.5704                   23232740.3714
 11  8  3  0 29  0.0000000  0  9G09G17G05G12G27G10G02G04G28
  -6471140.69147  -4947523.00845  22373293.6644                   22373291.8984
  -6777305.66448  -5012498.13346  22211819.8674                   22211817.2424
  -2614631.33646  -2016508.21943  24487613.5084                   24487615.4774
  -9224786.30147  -6804573.89544  23321678.6804                   23321676.7234
  -9333360.30947  -6072888.52744  22774482.5944                   22774481.5704
 -14031609.89847 -10900251.66045  21878872.2424                   21878870.6764
 -15444449.34448 -11894140.06246  21161601.2034                   21161596.4654
 -20115221.72348 -14699621.77046  20314781.9304                   20314779.2934
   4195672.83647   3283654.33644  23256349.5234                   23256348.2774
 11  8  3  0 29 30.0000000  0  9G09G17G05G12G27G10G02G04G28
  -6397298.87747  -4889983.96445  22387345.0944                   22387343.7114
  -6699748.79348  -4952064.24445  22226578.7424                   22226575.7704
  -2681673.19446  -2068748.27843  24474855.3754                   24474857.7504
  -9279491.32547  -6847201.13344  23311269.1174                   23311266.1094
  -9259164.56447  -6015073.73445  22788601.3674                   22788600.7194
 -14062472.51247 -10924300.39945  21872999.1564                   21872998.3204
 -15448583.96348 -11897361.81446  21160814.3134                   21160809.5004
 -20035107.04848 -14637194.76646  20330027.0944                   20330024.0944
   4320123.01047   3380628.37844  23280032.1094                   23280030.5944
 11  8  3  0 30  0.0000000  0  9G09G17G05G12G27G10G02G04G28
  -6322829.03147  -4831955.54745  22401516.2734                   22401514.4774
  -6622010.83248  -4891489.22345  22241371.5234                   22241368.4804
  -2748679.42246  -2120960.63343  24462105.5944                   24462106.5314
  -9333974.64147  -6889655.61344  23300901.9144                   23300898.5164
  -9184502.96147  -5956895.93044  22802809.5784                   22802808.5124
 -14092848.84047 -10947970.20345  21867218.9614                   21867217.5704
 -15452259.35948 -11900225.73046  21160114.8674                   21160110.4774
 -19954480.95748 -14574369.25846  20345370.0784                   20345367.1644
   4444963.53147   3477906.63744  23303788.2274                   23303787.0084
 11  8  3  0 30 30.0000000  0  9G09G17G05G12G27G10G02G04G28
  -6247734.37147  -4773440.27345  22415806.6724                   22415804.7464
  -6544093.07447  -4830774.10945  22256199.3444                   22256196.6174
  -2815648.30146  -2173143.83643  24449361.1804                   24449362.1604
  -9388234.34047  -6931935.85545  23290576.0394                   23290572.9844
  -9109378.18447  -5898357.18045  22817105.2034                   22817103.4844
 -14122736.61347 -10971259.31645  21861531.8204                   21861529.8594
 -15455476.42248 -11902732.50046  21159502.6954                   21159497.7734
 -19873346.35248 -14511147.50446  20360809.2584                   20360806.0864
   4570192.71547   3575487.71143  23327619.1174                   23327617.2304
 11  8  3  0 31  0.0000000  0  9G09G17G05G12G27G10G02G04G28
  -6172021.02747  -4714442.88745  22430214.4774                   22430212.0554
  -6465998.64547  -4769921.32445  22271059.8134                   22271056.6094
  -2882580.25046  -2225298.31643  24436624.7344                   24436624.8754
  -9442271.44147  -6974042.62145  23280293.7344                   23280290.2664
  -9033795.60947  -5839461.73444  22831488.0704                   22831486.9774
 -14152136.05548 -10994167.90645  21855937.1334                   21855934.9384
 -15458238.19948 -11904884.51646  21158976.9774                   21158972.5744
 -19791709.12148 -14447534.08246  20376344.6094                   20376341.6294
   4695805.23847   3673367.50044  23351522.1254                   23351521.2424
 11  8  3  0 31 30.0000000  0  9G09G17G05G12G27G10G02G04G28
  -6095697.14548  -4654969.78145  22444738.9534                   22444736.3754
  -6387732.80548  -4708934.97745  22285953.2114                   22285950.4964
  -2949479.02047  -2277426.92244  24423893.6884                   24423894.6724
  -9496089.77747  -7015978.92245  23270052.1414                   23270049.5314
  -8957763.50847  -5780216.00845  22845957.1174                   22845955.7734
 -14181050.32047 -11016698.43745  21850435.4384                   21850433.2274
 -15460551.08648 -11906686.73046  21158536.9844                   21158532.1414
 -19709577.67648 -14383535.56646  20391973.4384                   20391970.6054
   4821793.84047   3771540.34844  23375498.2344                   23375495.4384
 11  8  3  0 32  0.0000000  0  9G09G17G05G12G27G10G02G04G28
  -6018765.77747  -4595023.28545  22459377.8754                   22459375.7154
  -6309295.77748  -4647815.24645  22300879.7424                   22300876.6884
  -3016342.48047  -2329527.99644  24411169.3914                   24411171.3164
  -9549687.64847  -7057743.43445  23259852.3364                   23259850.3444
  -8881284.43747  -5720621.96544  22860510.2114                   22860508.7854
 -14209477.11347 -11038849.12545  21845025.5554                   21845022.9264
 -15462415.52748 -11908139.52346  21158182.1094                   21158177.4734
 -19626954.44548 -14319153.84446  20407696.2894                   20407693.4884
   4948156.35947   3870004.57444  23399542.9064                   23399541.7384
 11  8  3  0 32 30.0000000  0  9G09G17G05G12G27G10G02G04G28
  -5941227.31647  -4534603.76645  22474133.0004                   22474131.2814
  -6230685.38348  -4586560.40245  22315838.4384                   22315835.6374
  -3083166.02347  -2381597.97344  24398453.2504                   24398455.1954
  -9603060.90647  -7099332.91445  23249695.9064                   23249692.6294
  -8804358.74247  -5660679.92644  22875148.6724                   22875147.2544
 -14237411.47748 -11060616.10245  21839709.5704                   21839707.5514
 -15463829.82848 -11909241.55146  21157912.8834                   21157908.1254
 -19543840.06648 -14254389.40646  20423512.2114                   20423509.6094
   5074892.87147   3968760.20344  23423660.7894                   23423658.9694
 11  8  3  0 33  0.0000000  0  9G09G17G05G12G27G10G02G04G28
  -7438507.43447  -5701315.57345  22189209.8524                   22189208.6254
  -7727324.23047  -5752772.51345  22031037.3834                   22031034.5234
  -4725374.78547  -3661240.88744  24085950.4774                   24085953.0274
 -11231634.58647  -8368351.30545  22939788.2974                   22939785.9654
 -10302411.53947  -6827993.83645  22590078.6484                   22590078.3134
 -15840276.92747 -12309602.11245  21534694.2974                   21534692.3364
 -17040219.59448 -13137597.18746  20857935.8054                   20857931.3484
 -21035659.50448 -15416846.13346  20139628.2894                   20139625.6564
   3626580.77047   2840205.22344  23148055.8834                   23148053.5434
 11  8  3  0 33 30.0000000  0  9G09G17G05G12G27G10G02G04G28
  -7359773.96148  -5639964.85945  22204192.8834                   22204190.7704
  -7648377.19148  -5691255.35945  22046060.6564                   22046057.5434
  -4792122.28946  -3713251.60944  24073248.8444                   24073251.2464
 -11284562.91847  -8409594.09845  22929716.7034                   22929714.0434
 -10224610.50447  -6767369.71144  22604884.0784                   22604882.6414
 -15867229.05147 -12330603.69945  21529565.5784                   21529563.8834
 -17040745.19948 -13138006.72346  20857836.3054                   20857831.0634
 -20951581.05148 -15351330.46146  20155628.0234                   20155625.5664
   3754049.64147   2939531.53944  23172312.4064                   23172311.2154
 11  8  3  0 34  0.0000000  0  9G09G17G05G12G27G10G02G04G28
  -7280453.73847  -5578156.93745  22219286.2974                   22219285.1374
  -7569268.31248  -5629612.08645  22061114.8524                   22061111.8794
  -4858834.35546  -3765234.71944  24060553.6884                   24060555.4964
 -11337272.05147  -8450666.09845  22919686.5944                   22919683.7734
 -10146382.02347  -6706412.51244  22619771.0084                   22619768.4304
 -15893692.39547 -12351224.43045  21524529.9304                   21524528.1804
 -17040833.45348 -13138075.45346  20857819.1484                   20857814.7814
 -20867030.61748 -15285447.02046  20171717.5084                   20171715.1134
   3881875.63347   3039136.09444  23196636.5084                   23196635.6334
 11  8  3  0 34 30.0000000  0  9G09G17G05G12G27G10G02G04G28
  -7200545.07447  -5515890.50845  22234492.9224                   22234491.4964
  -7489992.89547  -5567839.05145  22076200.2114                   22076197.2814
  -4925504.21546  -3817184.97344  24047867.6954                   24047867.6484
 -11389755.69547  -8491562.39145  22909698.6024                   22909696.3874
 -10067724.17247  -6645120.71545  22634738.8284                   22634736.6724
 -15919660.19947 -12371459.02745  21519588.3594                   21519586.4574
 -17040480.26648 -13137800.21146  20857886.2584                   20857881.7814
 -20782006.57848 -15219194.52746  20187897.4694                   20187894.3674
   4010061.07447   3139020.75044  23221029.4774                   23221029.1134
 11  8  3  0 35  0.0000000  0  9G09G17G05G12G27G10G02G04G28
  -7120054.12547  -5453170.33245  22249810.0314                   22249808.8634
  -7410554.30148  -5505938.87545  22091316.9694                   22091314.1524
  -4992133.38346  -3869103.49643  24035187.0164                   24035188.4104
 -11442014.98847  -8532283.84445  22899754.7894                   22899751.9804
  -9988642.85547  -6583498.96145  22649787.0704                   22649786.3164
 -15945133.19547 -12391308.06245  21514740.8204                   21514738.9454
 -17039689.75348 -13137184.19346  20858036.8134                   20858032.2034
 -20696515.04748 -15152577.75846  20204165.5004                   20204162.7114
   4138600.57046   3239181.25844  23245490.4064                   23245489.9264
 11  8  3  0 35 30.0000000  0  9G09G17G05G12G27G10G02G04G28
  -7038985.83247  -5390000.28545  22265236.7584                   22265235.0084
  -7330954.93048  -5443913.41845  22106464.1954                   22106461.4144
  -5058721.25846  -3920989.88744  24022516.0784                   24022517.1214
 -11494050.02047  -8572830.56645  22889852.1414                   22889849.1564
  -9909142.56647  -6521550.72345  22664915.9844                   22664914.3164
 -15970110.80547 -12410771.09845  21509988.0864                   21509985.7274
 -17038464.13748 -13136229.13746  20858270.1174                   20858265.3014
 -20610560.56648 -15085600.25446  20220522.0164                   20220519.5234
   4267490.30946   3339614.72744  23270017.1564                   23270016.6374
 11  8  3  0 36  0.0000000  0  9G09G17G05G12G27G10G02G04G28
  -6957345.75448  -5326384.68445  22280772.4534                   22280770.6254
  -7251196.77748  -5381764.22345  22121641.5944                   22121639.0664
  -5125267.98846  -3972844.19944  24009852.6644                   24009853.9024
 -11545861.03547  -8613202.75845  22879992.9844                   22879989.5164
  -9829228.19947  -6459279.83644  22680122.9144                   22680121.9924
 -15994592.89548 -12429848.01245  21505329.5704                   21505326.7934
 -17036806.50048 -13134937.43746  20858585.1564                   20858580.7624
 -20524148.10548 -15018265.87146  20236965.7664                   20236963.2384
   4396726.05146   3440317.76243  23294610.1804                   23294609.3324
 11  8  3  0 36 30.0000000  0  9G09G17G05G12G27G10G02G04G28
  -6875147.64147  -5262334.27045  22296414.1564                   22296412.5944
  -7171290.92247  -5319499.93645  22136847.1414                   22136844.1914
  -5191782.26646  -4024673.23843  23997195.1254                   23997196.0274
 -11597457.19847  -8653407.53745  22870174.4614                   22870171.6524
  -9748913.40247  -6396696.91445  22695406.3204                   22695405.5984
 -16018587.85248 -12448545.33245  21500763.3444                   21500761.2154
 -17034728.41448 -13133318.12546  20858980.8284                   20858976.0354
 -20437291.53948 -14950585.43746  20253494.1564                   20253491.8364
   4526294.69146   3541280.23443  23319266.2504                   23319265.3634
 11  8  3  0 37  0.0000000  0  9G09G17G05G12G27G10G02G04G28
  -6792387.87547  -5197846.19145  22312162.7894                   22312161.2814
  -7091230.26248  -5257115.02745  22152082.5234                   22152079.5704
  -5258255.11346  -4076469.96943  23984545.0704                   23984546.7074
 -11648829.80547  -8693438.09045  22860398.3134                   22860395.7194
  -9668194.16447  -6333798.85244  22710766.6174                   22710765.5824
 -16042086.53947 -12466855.97345  21496291.0634                   21496289.0554
 -17032223.73448 -13131366.39546  20859457.3524                   20859452.7274
 -20349986.77048 -14882555.74646  20270107.5554                   20270104.9654
   4656200.82847   3642505.67244  23343987.2664                   23343985.9144
 11  8  3  0 37 30.0000000  0  9G09G17G05G12G27G10G02G04G28
  -6709070.85947  -5132923.89545  22328017.5004                   22328016.3714
  -7011016.52747  -5194610.84045  22167346.1954                   22167343.3914
  -5324685.57447  -4128233.74244  23971903.8594                   23971905.0124
 -11699978.26647  -8733294.02045  22850665.0164                   22850661.9574
  -9587074.53947  -6270588.80145  22726203.2274                   22726202.0044
 -16065088.06247 -12484779.18745  21491914.0474                   21491911.8754
 -17029294.16448 -13129083.58146  20860014.6644                   20860009.8594
 -20262238.12148 -14814180.17746  20286805.7664                   20286803.0594
   4786440.99746   3743991.39644  23368770.4844                   23368769.7234
 11  8  3  0 38  0.0000000  0  9G09G17G05G12G27G10G02G04G28
  -6625183.31547  -5067557.02245  22343980.6724                   22343979.9454
  -6930633.56647  -5131974.79845  22182642.7664                   22182640.0124
  -5391054.91147  -4179949.87544  23959274.2974                   23959274.5594
 -11750884.34547  -8772961.05545  22840977.9774                   22840975.7464
  -9505540.86547  -6207056.09744  22741719.0234                   22741717.4654
 -16087573.64047 -12502300.38945  21487635.6094                   21487633.3714
 -17025924.43548 -13126457.79446  20860656.0474                   20860651.4344
 -20174031.87848 -14745448.04446  20303590.8674                   20303588.5124
   4917029.09446   3845748.26243  23393621.1334                   23393619.8404
 11  8  3  0 38 30.0000000  0  9G09G17G05G12G27G10G02G04G28
  -6540744.63747  -5001760.70345  22360049.0314                   22360047.4614
  -6850097.43048  -5069219.39145  22197968.7424                   22197965.3204
  -5457377.40647  -4231629.50444  23946653.4614                   23946653.8794
 -11801562.02747  -8812450.14545  22831334.5234                   22831331.6174
  -9423612.19547  -6143215.64544  22757309.3754                   22757308.0274
 -16109557.33647 -12519430.49645  21483451.8524                   21483449.8134
 -17022131.19148 -13123501.98846  20861377.9534                   20861373.3444
 -20085386.98848 -14676374.09846  20320459.3364                   20320456.8094
   5047947.54747   3947762.53543  23418534.0314                   23418532.5784
 11  8  3  0 39  0.0000000  0  9G09G17G05G12G27G10G02G04G28
  -6455755.10847  -4935535.16045  22376221.8204                   22376220.6764
  -6769405.18047  -5006342.34245  22213324.1564                   22213320.8754
  -5523647.38447  -4283268.21044  23934042.3594                   23934043.1684
 -11852007.12847  -8851757.99245  22821735.6334                   22821732.0474
  -9341288.29347  -6079067.20144  22772974.9064                   22772973.7584
 -16131033.62748 -12536165.24445  21479365.0394                   21479362.7114
 -17017912.48448 -13120214.66846  20862180.4454                   20862176.0784
 -19996303.60848 -14606958.47946  20337411.4064                   20337408.6524
   5179196.65447   4050034.47843  23443509.8914                   23443508.6414
 11  8  3  0 39 30.0000000  0  9G09G17G05G12G27G10G02G04G28
  -6370216.37647  -4868881.66445  22392499.5474                   22392498.2504
  -6688555.37648  -4943342.52645  22228708.7504                   22228705.9884
  -5589861.44147  -4334863.33644  23921442.2194                   23921442.0124
 -11902214.80147  -8890880.84845  22812180.8364                   22812178.3794
  -9258570.43047  -6014611.74844  22788715.0864                   22788714.3554
 -16151998.53647 -12552501.49045  21475375.4614                   21475373.5474
 -17013267.17648 -13116594.92046  20863064.6174                   20863059.6094
 -19906782.67448 -14537201.91046  20354446.4924                   20354443.9574
   5310776.11947   4152563.82343  23468548.5554                   23468547.5594
 11  8  3  0 40  0.0000000  0  9G09G17G05G12G27G10G02G04G28
  -6284141.59847  -4801810.44945  22408879.0314                   22408877.6174
  -6607558.21548  -4880227.87545  22244122.4924                   22244119.3014
  -5656027.30947  -4386420.92644  23908850.7504                   23908850.9654
 -11952194.21147  -8929825.83245  22802670.4304                   22802667.0514
  -9175471.39147  -5949859.31644  22804529.5084                   22804527.6174
 -16172460.00048 -12568445.46145  21471482.1334                   21471479.3134
 -17008206.12948 -13112651.20746  20864027.8204                   20864022.7974
 -19816837.11348 -14467114.45746  20371562.6564                   20371560.1994
   5442673.51646   4255340.94943  23493648.2584                   23493647.0234
 11  8  3  0 40 30.0000000  0  9G09G17G05G12G27G10G02G04G28
  -6197526.77047  -4734318.43745  22425361.2504                   22425360.1804
  -6526406.46947  -4816992.77345  22259564.7894                   22259562.0984
  -5722135.08647  -4437933.25844  23896270.9454                   23896271.5004
 -12001936.12547  -8968585.72345  22793204.5704                   22793202.0474
  -9091986.87147  -5884806.51244  22820415.2734                   22820414.2464
 -16192408.27347 -12583989.52345  21467685.8674                   21467683.5594
 -17002722.78148 -13108378.44946  20865071.1644                   20865066.5164
 -19726462.67248 -14396692.82446  20388760.4614                   20388757.8014
   5574893.73446   4358369.57043  23518808.4924                   23518807.9734
 11  8  3  0 41  0.0000000  0  9G09G17G05G12G27G10G02G04G28
  -6110381.16847  -4666412.83645  22441944.7424                   22441943.3834
  -6445106.08247  -4753641.84445  22275035.4224                   22275032.8484
  -5788188.99247  -4489403.60544  23883700.8364                   23883702.0164
 -12051444.32847  -9007163.53945  22783783.7504                   22783780.4414
  -9008125.49647  -5819460.03544  22836373.8054                   22836372.6564
 -16211847.36348 -12599136.83645  21463987.0234                   21463984.5044
 -16996823.85248 -13103781.86346  20866193.4384                   20866188.5704
 -19635668.04748 -14325943.77046  20406038.1414                   20406035.7734
   5707429.00846   4461643.70343  23544030.2344                   23544028.2544
 11  8  3  0 41 30.0000000  0  9G09G17G05G12G27G10G02G04G28
  -6022711.67647  -4598098.99244  22458627.8204                   22458626.0514
  -6363660.52747  -4690177.78945  22290534.1174                   22290531.9844
  -5854190.48847  -4540833.10244  23871140.8914                   23871142.2274
 -12100720.40647  -9045560.44545  22774406.5784                   22774404.0474
  -8923893.90647  -5753825.08644  22852402.7424                   22852401.3714
 -16230778.52348 -12613888.34845  21460383.9534                   21460381.8954
 -16990513.81648 -13098864.92646  20867394.0704                   20867389.3094
 -19544459.74248 -14254872.35946  20423394.3984                   20423391.6994
   5840273.13746   4565158.51643  23569309.3594                   23569308.1334
 11  8  3  0 42  0.0000000  0  9G09G17G05G12G27G10G02G04G28
  -5934511.49647  -4529371.63345  22475411.9304                   22475410.5474
  -6282060.35247  -4626593.27045  22306061.8054                   22306060.0634
  -5920127.11347  -4592212.04344  23858593.7424                   23858595.0514
 -12149752.67647  -9083767.36345  22765076.0164                   22765073.3954
  -8839284.81647  -5687895.99644  22868503.0234                   22868502.1484
 -16249189.70747 -12628234.68445  21456880.8524                   21456878.0594
 -16983783.62948 -13093620.60246  20868674.8984                   20868670.3054
 -19452830.83648 -14183473.21946  20440830.7424                   20440828.0634
   5973434.02046   4668920.16043  23594647.8444                   23594646.9494
 11  8  3  0 42 30.0000000  0  9G09G17G05G12G27G10G02G04G28
  -5845782.28947  -4460232.03545  22492296.1484                   22492295.0554
  -6200303.66047  -4562886.78145  22321620.2664                   22321617.9844
  -5985994.79747  -4643537.27744  23846059.6174                   23846060.0434
 -12198537.44947  -9121781.45345  22755792.3444                   22755789.2034
  -8754299.57447  -5621673.78944  22884675.9304                   22884674.7074
 -16267076.96547 -12642172.76245  21453476.6484                   21453474.0004
 -16976632.34048 -13088048.14846  20870036.0784                   20870031.2424
 -19360782.29348 -14111747.09846  20458347.3754                   20458344.7934
   6106910.96946   4772928.05543  23620048.1804                   23620047.6954
 11  8  3  0 43  0.0000000  0  9G09G17G05G12G27G10G02G04G28
  -5756534.58647  -4390688.42645  22509279.4614                   22509278.5004
  -6118397.79347  -4499064.05945  22337206.2194                   22337203.9454
  -6051798.46147  -4694812.64544  23833537.4144                   23833538.1454
 -12247079.93747  -9159606.69945  22746555.4774                   22746552.6844
  -8668948.02047  -5555166.14544  22900917.3594                   22900916.3834
 -16284445.21547 -12655706.42246  21450171.6334                   21450169.4844
 -16969067.78948 -13082153.67246  20871474.8364                   20871470.4414
 -19268324.16448 -14039701.80146  20475941.2664                   20475938.5634
   6240694.87146   4877175.16043  23645506.4384                   23645505.4384
 11  8  3  0 43 30.0000000  0  9G09G17G05G12G27G10G02G04G28
  -5666769.35947  -4320741.53945  22526361.5474                   22526360.2584
  -6036340.00447  -4435122.94145  22352821.3754                   22352818.8444
  -6117533.51246  -4746034.51244  23821028.1024                   23821028.5904
 -12295375.61347  -9197239.66445  22737364.9614                   22737362.2464
  -8583230.64847  -5488373.45744  22917229.1174                   22917227.9964
 -16301289.72748 -12668831.98445  21446965.9534                   21446964.2194
 -16961088.38348 -13075935.92646  20872994.0314                   20872988.9144
 -19175456.87948 -13967337.69546  20493613.4384                   20493610.4064
   6374785.64846   4981661.33243  23671022.9614                   23671022.6724
 11  8  3  0 44  0.0000000  0  9G09G17G05G12G27G10G02G04G28
  -5576491.90247  -4250395.53545  22543540.3914                   22543539.0744
  -5954132.50448  -4371065.18745  22368465.3204                   22368462.8404
  -6183199.64547  -4797202.69544  23808531.4614                   23808531.9104
 -12343424.24247  -9234680.11745  22728221.1024                   22728218.0784
  -8497152.35947  -5421299.54744  22933609.6254                   22933608.0984
 -16317610.37948 -12681549.35546  21443860.5554                   21443858.4344
 -16952697.02748 -13069397.18446  20874590.8134                   20874585.5944
 -19082185.37148 -13894658.60246  20511362.4534                   20511359.4064
   6509178.89846   5086383.21143  23696597.3054                   23696597.3244
 11  8  3  0 44 30.0000000  0  9G09G17G05G12G27G10G02G04G28
  -5485699.65647  -4179648.37145  22560817.9844                   22560816.7194
  -5871769.44948  -4306886.19945  22384138.2344                   22384135.8324
  -6248788.31647  -4848310.53144  23796050.3364                   23796050.8954
 -12391218.22747  -9271922.13345  22719126.3524                   22719123.2384
  -8410710.29747  -5353942.15244  22950058.7734                   22950058.0234
 -16333399.21548 -12693852.29746  21440855.8914                   21440853.5824
 -16943888.53948 -13062533.41046  20876266.8834                   20876262.0274
 -18988506.52748 -13821662.10546  20529188.6094                   20529185.8594
   6643878.75447   5191344.01643  23722230.2974                   23722230.2384
 11  8  3  0 45  0.0000000  0  9G09G17G05G12G27G10G02G04G28
  -5394402.36347  -4108507.69145  22578191.3594                   22578189.9574
  -5789257.60247  -4242591.28145  22399839.8674                   22399837.0004
  -6314303.83247  -4899361.38744  23783583.5864                   23783583.4534
 -12438762.56247  -9308969.63745  22710079.0394                   22710076.0394
  -8323913.97347  -5286308.73044  22966575.8054                   22966574.1644
 -16348660.53948 -12705744.20345  21437951.7894                   21437949.3244
 -16934670.49648 -13055350.50446  20878020.8444                   20878015.8364
 -18894429.85548 -13748355.62146  20547091.1564                   20547088.3984
   6778875.81347   5296536.42243  23747920.1414                   23747919.3914
 11  8  3  0 45 30.0000000  0  9G09G17G05G12G27G10G02G04G28
  -5302597.59047  -4036971.55545  22595661.1254                   22595659.8674
  -5706590.47347  -4178175.37145  22415571.0234                   22415567.9024
  -6379738.23447  -4950349.00444  23771131.2424                   23771131.6484
 -12486048.59547  -9345815.85445  22701080.7664                   22701077.6604
  -8236760.26947  -5218396.80344  22983160.3834                   22983159.6484
 -16363386.33248 -12717218.80846  21435149.1804                   21435147.5664
 -16925037.70248 -13047844.41246  20879854.0084                   20879849.2034
 -18799952.15148 -13674736.63346  20565069.5084                   20565066.7704
   6914174.10146   5401963.56743  23773666.0554                   23773666.0394
 11  8  3  0 46  0.0000000  0  9G09G17G05G12G27G10G02G04G28
  -5210290.70747  -3965044.16845  22613226.9614                   22613225.6334
  -5623770.47348  -4113640.33645  22431331.1484                   22431327.9884
  -6445090.84447  -5001272.90244  23758694.9064                   23758695.2344
 -12533076.39547  -9382460.85245  22692131.7034                   22692129.1884
  -8149253.86747  -5150210.07844  22999812.5944                   22999811.7194
 -16377576.38748 -12728275.95746  21432449.1804                   21432447.2304
 -16914992.98848 -13040017.35246  20881765.3364                   20881760.3444
 -18705078.20748 -13600808.89846  20583123.6884                   20583120.8554
   7049769.37146   5507622.07843  23799469.0164                   23799469.3874
 11  8  3  0 46 30.0000000  0  9G09G17G05G12G27G10G02G04G28
  -5117476.74247  -3892721.65645  22630888.5474                   22630887.7464
  -5540788.96947  -4048979.45345  22447121.8834                   22447119.0664
  -6510350.85547  -5052124.67244  23746276.4694                   23746276.4144
 -12579835.60947  -9418896.56245  22683233.7734                   22683230.3404
  -8061389.34047  -5081744.28144  23016532.3914                   23016531.9494
 -16391220.05548 -12738907.34846  21429853.0944                   21429850.3674
 -16904528.75048 -13031863.37546  20883756.7664                   20883751.6844
 -18609802.43448 -13526568.03946  20601254.1954                   20601251.1414
   7185667.87946   5613516.90643  23825329.3444                   23825329.1564
 11  8  3  0 47  0.0000000  0  9G09G17G05G12G27G10G02G04G28
  -5024173.45347  -3820017.85545  22648643.4224                   22648642.7664
  -5457660.32047  -3984203.93745  22462940.8674                   22462937.5944
  -6575530.71147  -5102913.98444  23733873.1724                   23733872.8984
 -12626338.71547  -9455132.72745  22674384.5784                   22674380.8284
  -7973183.91847  -5013012.84044  23033317.6094                   23033316.6294
 -16404329.86748 -12749122.74246  21427357.6174                   21427355.7194
 -16893660.02348 -13023394.23446  20885825.0234                   20885820.0824
 -18514142.04348 -13452027.48846  20619457.4534                   20619454.6524
   7321852.81647   5719634.93843  23851245.3054                   23851244.7974
 11  8  3  0 47 30.0000000  0  9G09G17G05G12G27G10G02G04G28
  -4930377.32047  -3746930.00844  22666492.2814                   22666491.4384
  -5374377.60547  -3919308.34845  22478788.7734                   22478786.1334
  -6640620.70347  -5153633.25444  23721486.8444                   23721486.9694
 -12672576.44547  -9491162.10545  22665586.0474                   22665582.4924
  -7884633.51647  -4944012.59444  23050168.3364                   23050167.2774
 -16416896.80548 -12758915.11746  21424966.8674                   21424964.4304
 -16882381.01248 -13014605.36346  20887971.3524                   20887965.7274
 -18418093.13348 -13377184.18446  20637735.0004                   20637731.7934
   7458328.96146   5825979.85943  23877215.8444                   23877215.8714
 11  8  3  0 48  0.0000000  0  9G09G17G05G12G27G10G02G04G28
  -4836088.36747  -3673458.15645  22684435.1024                   22684434.2854
  -5290937.18748  -3854289.85245  22494667.0234                   22494664.2274
  -6705615.25047  -5204278.15244  23709118.5164                   23709118.8244
 -12718543.60547  -9526980.62945  22656838.5634                   22656835.4774
  -7795737.80547  -4874743.30944  23067084.2894                   23067084.0514
 -16428914.97348 -12768279.88745  21422679.5864                   21422677.2814
 -16870689.05948 -13005494.74246  20890196.2424                   20890191.1524
 -18321654.85948 -13302037.48446  20656086.5944                   20656084.3754
   7595097.62946   5932552.73843  23903241.9924                   23903241.5784
 11  8  3  0 48 30.0000000  0  9G09G17G05G12G27G10G02G04G28
  -4741312.15647  -3599606.63345  22702470.3284                   22702469.0354
  -5207341.15247  -3789150.09045  22510575.2974                   22510572.3164
  -6770513.98447  -5254848.39544  23696768.6414                   23696767.8444
 -12764240.02747  -9562588.19145  22648142.9144                   22648139.8244
  -7706501.70747  -4805208.74644  23084065.6024                   23084065.0554
 -16440384.75448 -12777217.34046  21420496.9614                   21420494.6564
 -16858587.28948 -12996064.78146  20892499.2274                   20892494.2424
 -18224832.34448 -13226591.37146  20674511.4534                   20674508.9654
   7732153.93046   6039349.73443  23929322.6884                   23929322.2544
 11  8  3  0 49  0.0000000  0  9G09G17G05G12G27G10G02G04G28
  -4646055.93747  -3525381.07445  22720597.6024                   22720596.2344
  -5123593.44548  -3723892.16845  22526511.7814                   22526508.9694
  -6835318.27047  -5305345.05944  23684436.5554                   23684436.6994
 -12809667.46947  -9597986.16845  22639497.8754                   22639494.9494
  -7616932.10947  -4735414.31644  23101109.6804                   23101109.4494
 -16451307.92248 -12785728.86346  21418418.3524                   21418416.1644
 -16846080.48048 -12986319.20346  20894878.6174                   20894873.7704
 -18127632.24248 -13150851.03946  20693007.8754                   20693005.1214
   7869491.53546   6146365.94443  23955457.5084                   23955457.4344
 11  8  3  0 49 30.0000000  0  9G09G17G05G12G27G10G02G04G28
  -4550313.87047  -3450776.92645  22738816.1644                   22738815.1604
  -5039684.68747  -3658508.73045  22542478.5864                   22542476.4614
  -6900016.53947  -5355759.08844  23672124.3284                   23672124.4454
 -12854814.64147  -9633165.76645  22630906.4064                   22630903.9964
  -7527022.71447  -4665355.13344  23118218.7894                   23118218.6174
 -16461673.29348 -12793805.73446  21416445.6024                   21416443.7504
 -16833160.09848 -12976251.35546  20897337.2974                   20897332.7114
 -18030048.08648 -13074811.44146  20711577.5164                   20711574.9264
   8007117.98046   6253607.20743  23981647.0554                   23981646.7154
 11  8  3  0 50  0.0000000  0  9G09G17G05G12G27G10G02G04G28
  -4454098.81647  -3375804.22345  22757125.1804                   22757124.7154
  -4955624.35247  -3593007.19545  22558475.1414                   22558472.8324
  -6964615.75447  -5406095.93744  23659831.4144                   23659830.9494
 -12899689.09847  -9668132.83245  22622366.8204                   22622364.7384
  -7436785.85947  -4595040.78944  23135390.7194                   23135389.8404
 -16471488.30148 -12801453.75845  21414578.0704                   21414575.7974
 -16819836.75048 -12965869.51646  20899873.0084                   20899868.1884
 -17932092.16448 -12998482.16846  20730217.9844                   20730215.0704
   8145021.00846   6361063.96943  24007889.0944                   24007888.3554
 11  8  3  0 50 30.0000000  0  9G09G17G05G12G27G10G02G04G28
  -4357406.28947  -3300459.45345  22775525.6804                   22775524.5634
  -4871404.41447  -3527381.30145  22574501.4694                   22574499.4064
  -7029105.41847  -5456347.43744  23647559.1724                   23647558.8834
 -12944280.65647  -9702879.47345  22613882.1804                   22613879.1724
  -7346216.55147  -4524467.36744  23152625.8284                   23152624.8834
 -16480742.52748 -12808664.80946  21412817.2814                   21412814.9184
 -16806103.14548 -12955167.98446  20902486.3834                   20902481.4494
 -17833759.28548 -12921859.15646  20748930.2504                   20748927.5084
   8283206.82046   6468741.10943  24034185.3914                   24034184.3404
 11  8  3  0 51  0.0000000  0  9G09G17G05G12G27G10G02G04G28
  -4260240.48447  -3224745.90244  22794015.4774                   22794014.2074
  -4787025.16847  -3461631.27045  22590558.4694                   22590556.4384
  -7093484.19947  -5506512.51644  23635308.5314                   23635308.0704
 -12988587.98847  -9737404.65245  22605450.3444                   22605447.3244
  -7255318.49647  -4453637.79344  23169923.1334                   23169922.0394
 -16489434.94148 -12815438.09046  21411163.0554                   21411160.3674
 -16791960.93048 -12944148.05546  20905177.3674                   20905172.6644
 -17735053.16448 -12844945.30946  20767713.4454                   20767710.7704
   8421671.80446   6576635.84043  24060534.1724                   24060533.2774
 11  8  3  0 51 30.0000000  0  9G09G17G05G12G27G10G02G04G28
  -4162608.68447  -3148669.23845  22812594.6024                   22812593.6214
  -4702490.62947  -3395760.21545  22606645.0394                   22606642.0664
  -7157753.17247  -5556592.03544  23623078.3594                   23623077.6294
 -13032612.36347  -9771709.32445  22597072.7344                   22597070.2974
  -7164098.48847  -4382557.34044  23187281.9534                   23187280.4414
 -16497567.34448 -12821774.99646  21409614.9384                   21409612.8014
 -16777414.90648 -12932813.48046  20907945.7034                   20907940.1684
 -17635980.21548 -12767745.62946  20786566.3984                   20786563.4304
   8560410.31346   6684743.62943  24086935.2734                   24086935.4414
 11  8  3  0 52  0.0000000  0  9G09G17G05G12G27G10G02G04G28
  -4064507.57847  -3072226.88344  22831262.5004                   22831261.3134
  -4617793.77347  -3329762.68445  22622762.1644                   22622759.5944
  -7221903.08247  -5606578.81645  23610871.3444                   23610870.2624
 -13076345.38747  -9805786.98045  22588750.7894                   22588747.8594
  -7072552.59847  -4311222.96944  23204702.3984                   23204701.0314
 -16505131.17648 -12827668.85946  21408175.6954                   21408173.2854
 -16762459.07848 -12921159.56646  20910791.3284                   20910786.6214
 -17536536.55948 -12690257.08246  20805489.5234                   20805486.8014
   8699426.77746   6793068.02743  24113389.7974                   24113389.0044
 11  8  3  0 52 30.0000000  0  9G09G17G05G12G27G10G02G04G28
  -3965946.78947  -2995426.33244  22850018.5474                   22850016.6374
  -4532940.52047  -3263643.30145  22638909.4064                   22638906.5314
  -7285937.42647  -5656475.53944  23598685.3134                   23598684.9964
 -13119790.55547  -9839640.34045  22580483.4224                   22580480.5594
  -6980689.72347  -4239641.56644  23222183.7194                   23222182.3754
 -16512130.31648 -12833122.70746  21406843.5784                   21406841.7034
 -16747100.64148 -12909191.93746  20913714.3054                   20913709.1214
 -17436730.98848 -12612486.54346  20824482.2974                   20824479.5664
   8838712.69546   6901602.39143  24139894.9144                   24139894.4384
 11  8  3  0 53  0.0000000  0  9G09G17G05G12G27G10G02G04G28
  -5442350.17647  -4145870.57844  22569067.8204                   22569066.1334
  -6023351.75847  -4425002.71945  22355293.9454                   22355290.2704
  -8925279.79347  -6933885.02044  23286728.9694                   23286728.2704
 -14738371.26247 -11100872.02745  22272477.7664                   22272475.5744
  -8463933.69547  -5395416.17644  22939931.5394                   22939930.5864
 -18093986.87148 -14065738.17645  21105826.3984                   21105824.2814
 -18306763.66848 -14124513.75446  20616919.9064                   20616915.2114
 -18911986.62948 -13762036.41046  20543750.2814                   20543747.6214
   7402846.50446   5782745.50843  23866659.5944                   23866658.3284
 11  8  3  0 53 30.0000000  0  9G09G17G05G12G27G10G02G04G28
  -5342883.22747  -4068363.90244  22587996.1484                   22587994.6564
  -5938188.37147  -4358641.65645  22371499.3444                   22371496.7734
  -8989078.80547  -6983598.35544  23274587.9454                   23274587.6604
 -14781237.81647 -11134274.49645  22264320.3444                   22264317.8524
  -8371448.93847  -5323350.20344  22957530.5864                   22957530.1954
 -18099854.12548 -14070310.02745  21104710.1724                   21104707.5474
 -18290605.37148 -14111922.85246  20619994.9774                   20619990.0944
 -18811468.57048 -13683710.68046  20562878.5234                   20562875.6954
   7542661.16446   5891691.89543  23893263.9924                   23893263.8674
 11  8  3  0 54  0.0000000  0  9G09G17G05G12G27G10G02G04G28
  -5242960.25447  -3990501.91044  22607010.5084                   22607008.3954
  -5852861.21147  -4292153.00045  22387736.6334                   22387734.3554
  -9052747.96147  -7033210.53544  23262471.9844                   23262471.4264
 -14823803.50847 -11167442.55945  22256220.4454                   22256217.9574
  -8278649.35547  -5251038.91844  22975190.3134                   22975189.0124
 -18105144.18448 -14074432.12945  21103703.3674                   21103701.1254
 -18274040.22748 -14099014.92646  20623147.3754                   20623142.3134
 -18710589.96148 -13605103.99646  20582074.7734                   20582072.4184
   7682745.36346   6000848.25043  23919921.6094                   23919921.4144
 11  8  3  0 54 30.0000000  0  9G09G17G05G12G27G10G02G04G28
  -5142589.45347  -3912290.94944  22626110.3524                   22626109.3404
  -5767375.20747  -4225540.56245  22404005.1024                   22404002.2274
  -9116289.43047  -7082723.24244  23250380.3054                   23250379.8554
 -14866070.74247 -11200378.03945  22248177.1804                   22248173.6724
  -8185542.61747  -5178488.27344  22992908.0084                   22992907.1024
 -18109859.74648 -14078106.55946  21102805.9534                   21102803.3714
 -18257074.09048 -14085794.53546  20626375.9304                   20626370.9104
 -18609358.50448 -13526222.35946  20601338.6484                   20601336.0904
   7823091.73446   6110208.96943  23946628.6804                   23946628.3794
 11  8  3  0 55  0.0000000  0  9G09G17G05G12G27G10G02G04G28
  -5041779.33247  -3833737.67044  22645293.7664                   22645293.0824
  -5681735.11048  -4158808.03045  22420301.0704                   22420298.5044
  -9179705.92247  -7132138.56644  23238313.1334                   23238311.1994
 -14908042.39747 -11233083.20745  22240190.2974                   22240186.4654
  -8092136.54347  -5105704.41044  23010682.8204                   23010682.1024
 -18114003.92148 -14081335.75346  21102017.3524                   21102015.2074
 -18239712.98748 -14072266.36846  20629679.4614                   20629674.2274
 -18507781.94148 -13447071.81646  20620668.4454                   20620665.4534
   7963693.16446   6219768.38343  23973384.9774                   23973383.6604
 11  8  3  0 55 30.0000000  0  9G09G17G05G12G27G10G02G04G28
  -4940524.60947  -3754837.94144  22664562.5084                   22664560.3634
  -5595931.74647  -4091948.30945  22436628.7424                   22436626.5124
  -9242985.75047  -7181447.40244  23226270.2344                   23226269.8914
 -14949707.52348 -11265549.51245  22232261.6804                   22232258.9304
  -7998425.25847  -5032682.71544  23028514.9144                   23028514.1884
 -18117566.05548 -14084111.41846  21101339.6094                   21101336.9454
 -18221948.53548 -14058423.91446  20633059.7734                   20633054.7344
 -18405854.05948 -13367647.51246  20640064.2504                   20640061.7664
   8104556.17646   6329531.63343  24000190.3594                   24000189.3134
 11  8  3  0 56  0.0000000  0  9G09G17G05G12G27G10G02G04G28
  -4838830.80647  -3675596.07444  22683913.8594                   22683912.5904
  -5509966.72747  -4024962.60445  22452987.7894                   22452984.7704
  -9306128.34047  -7230649.29644  23214255.2424                   23214254.5664
 -14991065.79547 -11297776.69245  22224391.0704                   22224388.0434
  -7904413.86147  -4959427.15644  23046405.0704                   23046404.6214
 -18120546.18648 -14086433.57146  21100772.6724                   21100769.8984
 -18203783.94148 -14044269.65846  20636516.5704                   20636511.1884
 -18303579.50948 -13287953.06946  20659526.5234                   20659523.9304
   8245676.32046   6439495.24643  24027044.4694                   24027043.8404
 11  8  3  0 56 30.0000000  0  9G09G17G05G12G27G10G02G04G28
  -4736703.98847  -3596016.76244  22703348.0784                   22703347.7154
  -5423843.14547  -3957853.35245  22469376.4304                   22469373.3874
  -9369134.32847  -7279744.74244  23202265.2894                   23202264.4804
 -15032117.75047 -11329765.21545  22216579.6174                   22216576.5354
  -7810108.31347  -4885942.38744  23064350.9454                   23064350.0514
 -18122945.60548 -14088303.21146  21100315.8594                   21100313.4694
 -18185223.30148 -14029806.80546  20640048.2504                   20640043.7664
 -18200964.12148 -13207993.04346  20679053.4144                   20679051.0434
   8387048.35246   6549655.12943  24053946.3754                   24053946.3444
 11  8  3  0 57  0.0000000  0  9G09G17G05G12G27G10G02G04G28
  -4634146.87147  -3516102.19144  22722863.7504                   22722862.7774
  -5337559.55547  -3890619.43445  22485795.6024                   22485792.8244
  -9432000.00047  -7328730.85544  23190302.5084                   23190301.7504
 -15072860.40647 -11361512.69545  22208826.3054                   22208823.5354
  -7715510.36747  -4812229.79744  23082352.2584                   23082351.3554
 -18124761.38748 -14089718.07046  21099970.6174                   21099967.7814
 -18166266.18748 -14015034.99646  20643655.8754                   20643651.2114
 -18098009.58648 -13127768.74646  20698645.1094                   20698642.2074
   8528671.10946   6660010.37543  24080897.3914                   24080896.6804
 11  8  3  0 57 30.0000000  0  9G09G17G05G12G27G10G02G04G28
  -4531158.45747  -3435851.51444  22742461.8524                   22742460.8524
  -5251110.61747  -3823256.66045  22502246.2344                   22502243.4534
  -9494717.62947  -7377601.60244  23178367.4144                   23178366.3014
 -15113286.24247 -11393013.31245  22201133.5314                   22201130.2274
  -7620617.77747  -4738287.61344  23100409.5084                   23100409.4454
 -18125986.66848 -14090672.81046  21099737.2194                   21099734.9924
 -18146908.66448 -13999951.18746  20647339.3204                   20647334.1914
 -17994713.41048 -13047278.23546  20718301.6954                   20718298.9224
   8670547.02146   6770562.89543  24107894.4384                   24107894.9774
 11  8  3  0 58  0.0000000  0  9G09G17G05G12G27G10G02G04G28
  -4427743.11747  -3355268.19144  22762141.5634                   22762141.1914
  -5164497.72347  -3755766.10245  22518728.4694                   22518725.7504
  -9557285.91047  -7426355.96545  23166461.1884                   23166460.3554
 -15153394.60248 -11424266.55545  22193500.9694                   22193498.0634
  -7525435.02047  -4664119.28944  23118522.3914                   23118522.0474
 -18126620.71548 -14091166.82846  21099616.7504                   21099614.2504
 -18127152.80548 -13984556.98846  20651098.5784                   20651093.9414
 -17891079.68448 -12966524.68746  20738022.3674                   20738019.6254
   8812672.89546   6881310.22742  24134940.2664                   24134940.5274
 11  8  3  0 58 30.0000000  0  9G09G17G05G12G27G10G02G04G28
  -4323906.09847  -3274356.28544  22781900.7274                   22781900.0984
  -5077722.15647  -3688148.81345  22535240.9304                   22535238.4964
  -9619703.91447  -7474993.23445  23154582.9694                   23154582.5274
 -15193184.74247 -11455271.83245  22185929.3754                   22185926.0004
  -7429966.46547  -4589728.28144  23136690.0004                   23136689.4804
 -18126663.34848 -14091200.02046  21099608.2114                   21099605.9964
 -18107001.57848 -13968854.69946  20654933.1804                   20654928.7774
 -17787112.60948 -12885511.39146  20757806.9064                   20757804.3794
   8955044.84046   6992249.32842  24162033.5474                   24162033.4184
 11  8  3  0 59  0.0000000  0  9G09G17G05G12G27G10G02G04G28
  -4219653.06147  -3193120.18544  22801740.4224                   22801739.0124
  -4990785.80147  -3620406.19945  22551784.8054                   22551782.2934
  -9681971.50047  -7523513.30145  23142733.5314                   23142733.1524
 -15232656.83647 -11486029.28945  22178418.3594                   22178414.2734
  -7334217.41847  -4515118.72744  23154910.0314                   23154909.7584
 -18126115.52748 -14090773.10546  21099712.6094                   21099710.0434
 -18086458.25048 -13952846.89546  20658842.7664                   20658837.6054
 -17682817.53948 -12804242.50846  20777653.5634                   20777650.6914
   9097657.97746   7103376.31643  24189171.9224                   24189171.7234
 11  8  3  0 59 30.0000000  0  9G09G17G05G12G27G10G02G04G28
  -4114988.62947  -3111563.54744  22821657.3054                   22821656.6254
  -4903689.57047  -3552539.02745  22568358.6414                   22568355.6844
  -9744086.78547  -7571914.67645  23130913.6024                   23130913.2114
 -15271809.41048 -11516537.74645  22170967.1484                   22170964.0744
  -7238191.90647  -4440293.75044  23173183.6024                   23173183.2934
 -18124976.51248 -14089885.53546  21099929.1174                   21099926.6644
 -18065524.47348 -13936534.84846  20662826.5004                   20662821.4454
 -17578198.00448 -12722720.80146  20797562.1644                   20797559.4774
   9240508.55546   7214688.39842  24216355.6484                   24216355.6564
 11  8  3  1  0  0.0000000  0  9G09G17G05G12G27G10G02G04G28
  -4009914.25847  -3029687.45344  22841651.9384                   22841651.1564
  -4816431.27747  -3484545.56645  22584963.0554                   22584960.2814
  -9806045.22347  -7620193.86345  23119123.5004                   23119122.8594
 -15310638.48848 -11546794.14845  22163578.6564                   22163575.3554
  -7141891.00847  -4365254.17644  23191508.6884                   23191508.4494
 -18123242.19548 -14088534.07846  21100259.2504                   21100256.7034
 -18044199.38348 -13919917.86346  20666884.2894                   20666879.1524
 -17473254.66848 -12640946.78546  20817532.1644                   20817529.6024
   9383596.74246   7326185.56643  24243584.5944                   24243584.5864
 11  8  3  1  0 30.0000000  0  9G09G17G05G12G27G10G02G04G28
  -3904440.17247  -2947499.91445  22861722.4304                   22861722.2194
  -4729016.93847  -3416430.52045  22601597.1644                   22601595.0234
  -9867850.43447  -7668353.63345  23107362.1644                   23107361.1954
 -15349148.00848 -11576801.52745  22156250.0944                   22156247.7424
  -7045323.92247  -4290007.18744  23209885.0634                   23209884.6214
 -18120917.27048 -14086722.41846  21100701.9924                   21100699.0744
 -18022490.15248 -13903001.55546  20671015.1174                   20671010.5594
 -17367996.33648 -12558927.31246  20837562.1334                   20837559.3874
   9526913.95346   7437861.17242  24270856.8284                   24270856.7854
 11  8  3  1  1  0.0000000  0  9G09G17G05G12G27G10G02G04G28
  -3798549.80147  -2864987.96945  22881873.2194                   22881872.2704
  -4641426.34047  -3348178.11345  22618265.7344                   22618262.7034
  -9929479.96147  -7716376.51245  23095634.3674                   23095633.2154
 -15387315.65648 -11606542.53146  22148987.0314                   22148984.0474
  -6948473.67247  -4214539.55544  23228314.6804                   23228314.3954
 -18117980.15648 -14084433.72746  21101260.5704                   21101258.0354
 -18000377.82848 -13885771.16446  20675223.2664                   20675218.5314
 -17262405.97748 -12476649.11746  20857655.3594                   20857652.5784
   9670477.67246   7549728.96142  24298175.8754                   24298176.2624
 11  8  3  1  1 30.0000000  0  8G09G17G05G12G27G10G02G04
  -3692262.19147  -2782166.52345  22902099.4694                   22902098.9734
  -4553674.90647  -3279800.39845  22634963.7584                   22634961.2464
  -9990946.86447  -7764272.66645  23083937.7424                   23083936.3054
 -15425154.67248 -11636027.44945  22141787.0164                   22141783.9774
  -6851358.90247  -4138865.79344  23246795.1414                   23246794.3134
 -18114444.72348 -14081678.81946  21101933.4064                   21101931.1804
 -17977879.47348 -13868239.96946  20679504.4774                   20679499.5554
 -17156501.70348 -12394126.32846  20877808.5004                   20877805.9104
 11  8  3  1  2  0.0000000  0  8G09G17G05G12G27G10G02G04
  -3585575.14147  -2699033.81345  22922401.2424                   22922400.2274
  -4465756.32847  -3211292.42245  22651693.8984                   22651691.9844
 -10052242.37547  -7812035.27045  23072272.8444                   23072271.4064
 -15462657.26248 -11665250.22746  22134650.3444                   22134646.9304
  -6753976.59847  -4062983.59044  23265326.6884                   23265326.4264
 -18110303.58248 -14078451.93746  21102721.2894                   21102718.6564
 -17954989.77348 -13850403.82446  20683859.8834                   20683855.4654
 -17050280.40248 -12311356.48446  20898021.3984                   20898018.5864
 11  8  3  1  2 30.0000000  0  8G09G17G05G12G27G10G02G04
  -3478489.57447  -2615590.57845  22942779.3914                   22942778.5904
  -4377667.09447  -3142651.49245  22668456.9384                   22668454.7814
 -10113361.23847  -7859660.22745  23060642.3834                   23060641.0984
 -15499818.06248 -11694206.66046  22127579.1644                   22127575.7074
  -6656327.07446  -3986893.14844  23283908.5864                   23283908.5904
 -18105552.30948 -14074749.63346  21103625.8134                   21103622.7774
 -17931707.26248 -13832261.60246  20688290.3444                   20688285.6254
 -16943741.94548 -12228339.52046  20918295.2114                   20918292.8404
 11  8  3  1  3  0.0000000  0  8G09G17G05G12G27G10G02G04
  -3371004.48447  -2531836.00845  22963233.0554                   22963232.0434
  -4289403.67647  -3073874.80945  22685253.2424                   22685250.6724
 -10174296.32847  -7907141.97745  23049046.7814                   23049045.3164
 -15536630.71548 -11722891.82045  22120573.5004                   22120570.1604
  -6558408.71546  -3910593.24244  23302542.0004                   23302541.1024
 -18100184.82448 -14070567.15246  21104646.8914                   21104644.0394
 -17908028.18448 -13813810.36346  20692796.6414                   20692791.7034
 -16836884.72348 -12145074.15646  20938629.2194                   20938626.6804
 11  8  3  1  3 30.0000000  0  8G09G17G05G12G27G10G02G04
  -3263120.95347  -2447770.98445  22983762.7194                   22983761.6914
  -4200962.80947  -3004959.87545  22702083.1334                   22702080.8754
 -10235042.34447  -7954476.40645  23037486.8754                   23037485.6954
 -15573090.22748 -11751301.81245  22113635.7274                   22113632.3164
  -6460221.84446  -3834084.08644  23321226.0474                   23321225.9884
 -18094196.79348 -14065901.13746  21105786.6564                   21105784.2814
 -17883951.29348 -13795049.14846  20697378.5004                   20697373.3444
 -16729708.39848 -12061560.15246  20959024.2114                   20959021.6914
 11  8  3  1  4  0.0000000  0  8G09G17G05G12G27G10G02G04
  -3154856.57447  -2363409.19544  23004364.4304                   23004363.7974
  -4112358.21947  -2935917.35245  22718943.4774                   22718941.5204
 -10295610.61747  -8001672.33245  23025961.5784                   23025960.2034
 -15609208.41448 -11779445.83646  22106762.4144                   22106759.8714
  -6361783.69146  -3757379.12544  23339958.9924                   23339958.3674
 -18087601.25048 -14060761.73846  21107041.6334                   21107039.0234
 -17859491.43448 -13775989.51246  20702032.8054                   20702028.0784
 -16622229.98448 -11977810.75446  20979476.8754                   20979474.3054
 11  8  3  1  4 30.0000000  0  8G09G17G05G12G27G10G02G04
  -3046204.44947  -2278745.25444  23025040.3444                   23025039.6374
  -4023578.81647  -2866738.60945  22735838.0784                   22735835.6334
 -10355987.98047  -8048719.50445  23014471.3914                   23014470.0744
 -15644972.16448 -11807313.65246  22099956.7274                   22099953.9064
  -6263086.79747  -3680472.56344  23358740.2194                   23358740.2624
 -18080385.62148 -14055139.15246  21108414.3914                   21108411.9694
 -17834639.21948 -13756624.14146  20706762.3054                   20706757.0354
 -16514441.36748 -11893819.63746  20999988.4924                   20999986.3834
 11  8  3  1  5  0.0000000  0  8G09G17G05G12G27G10G02G04
  -2937170.58247  -2193783.85944  23045788.8204                   23045788.2584
  -3934626.62947  -2797425.24245  22752765.0944                   22752762.9454
 -10416174.08247  -8095617.64545  23003018.9534                   23003017.5514
 -15680381.56247 -11834905.35546  22093218.6024                   22093215.3874
  -6164136.41546  -3603368.48644  23377569.6334                   23377570.1374
 -18072550.77748 -14049034.05146  21109904.4774                   21109902.3244
 -17809398.20348 -13736955.80146  20711565.4774                   20711559.9574
 -16406347.64148 -11809590.77746  21020557.6884                   21020555.5634
 11  8  3  1  5 30.0000000  0  8G09G17G05G12G27G10G02G04
  -2827761.33247  -2108529.98445  23066609.1334                   23066608.4454
  -3845504.46947  -2727979.43445  22769724.5164                   22769722.1644
 -10476169.16447  -8142366.93745  22991602.5944                   22991600.5594
 -15715437.36748 -11862221.55146  22086547.4614                   22086544.7424
  -6064938.23047  -3526071.29344  23396447.4694                   23396447.2504
 -18064098.08648 -14042447.52046  21111514.2734                   21111511.6724
 -17783771.97348 -13716987.30146  20716441.6024                   20716436.9924
 -16297954.24648 -11725128.41046  21041184.4064                   21041182.1294
 11  8  3  1  6  0.0000000  0  8G09G17G05G12G27G10G02G04
  -2717984.36347  -2022989.55944  23087497.8054                   23087497.9614
  -3756215.78947  -2658403.85945  22786715.7504                   22786713.3594
 -10535974.64147  -8188968.48845  22980221.2344                   22980220.1804
 -15750141.36748 -11889263.59046  22079944.1024                   22079940.4494
  -5965499.24947  -3448586.46144  23415369.7114                   23415370.0744
 -18055030.16848 -14035381.57846  21113239.0554                   21113236.8054
 -17757765.73848 -13696722.69946  20721390.5084                   20721385.4304
 -16189267.55948 -11640437.50046  21061866.5634                   21061864.5124
 11  8  3  1  6 30.0000000  0  8G09G17G05G12G27G10G02G04
  -2607840.43847  -1937163.21144  23108458.6024                   23108457.9774
  -3666757.48447  -2588696.11745  22803739.0944                   22803736.5044
 -10595585.02347  -8235418.01645  22968877.4224                   22968876.2114
 -15784488.60948 -11916027.64546  22073407.7424                   22073404.7344
  -5865819.68847  -3370914.17644  23434338.3674                   23434338.7234
 -18045342.73048 -14027832.91046  21115082.7194                   21115080.5164
 -17731378.02048 -13676160.82846  20726412.1254                   20726407.0004
 -16080287.79748 -11555518.23046  21082605.2424                   21082602.5634
 11  8  3  1  7  0.0000000  0  8G09G17G05G12G27G10G02G04
  -2497331.12147  -1851052.13344  23129488.0084                   23129487.2154
  -3577127.75847  -2518854.78145  22820795.1174                   22820792.1914
 -10654995.50847  -8281711.77045  22957572.3444                   22957570.5354
 -15818474.27748 -11942509.95346  22066940.6254                   22066937.6604
  -5765900.55547  -3293055.19144  23453352.0234                   23453352.6054
 -18035032.38748 -14019798.84446  21117044.8914                   21117042.4494
 -17704607.55948 -13655300.70746  20731506.5784                   20731501.6254
 -15971015.45748 -11470370.94546  21103398.8054                   21103396.6524
 11  8  3  1  7 30.0000000  0  8G09G17G05G12G27G10G02G04
  -2386463.30547  -1764661.71144  23150584.8524                   23150584.7544
  -3487329.25447  -2448881.94945  22837882.9304                   22837880.5004
 -10714206.47347  -8327850.07445  22946304.9774                   22946303.3874
 -15852099.56648 -11968711.45746  22060541.6094                   22060538.6254
  -5665748.03147  -3215014.35944  23472410.0394                   23472410.3954
 -18024101.03148 -14011280.86746  21119124.6484                   21119122.1994
 -17677458.67648 -13634145.71546  20736672.5944                   20736667.7544
 -15861456.23448 -11385000.13346  21124247.2974                   21124244.9384
 11  8  3  1  8  0.0000000  0  8G09G17G05G12G27G10G02G04
  -2275245.91447  -1677998.90644  23171748.6024                   23171748.2544
  -3397366.93847  -2378781.45745  22855002.2194                   22854999.9454
 -10773220.77047  -8373835.12945  22935074.6724                   22935072.8554
 -15885367.66448 -11994634.62146  22054211.1024                   22054208.2894
  -5565370.46146  -3136798.16444  23491512.0704                   23491512.6684
 -18012552.31248 -14002281.84046  21121322.7034                   21121320.2894
 -17649937.64848 -13612700.75046  20741909.6804                   20741904.4184
 -15751617.97348 -11299411.88346  21145148.7894                   21145146.5984
 11  8  3  1  8 30.0000000  0  8G09G17G05G12G27G10G02G04
  -2163679.62547  -1591064.21544  23192979.0314                   23192978.8874
  -3307237.44947  -2308550.71145  22872153.7974                   22872151.1414
 -10832032.36747  -8419662.23445  22923882.6484                   22923880.9534
 -15918272.84848 -12020274.99646  22047949.1254                   22047946.4964
  -5464767.68446  -3058406.48844  23510656.1094                   23510656.1644
 -18000382.20748 -13992798.61346  21123638.5634                   21123635.9264
 -17622042.95748 -13590964.61346  20747217.9924                   20747212.7114
 -15641500.28948 -11213605.91046  21166103.3594                   21166101.2274
 11  8  3  1  9  0.0000000  0  8G09G17G05G12G27G10G02G04
  -2051765.89546  -1503858.80544  23214276.1414                   23214275.0664
  -3216938.74647  -2238188.10245  22889337.0234                   22889334.3014
 -10890637.03947  -8465328.10245  22912730.5864                   22912729.4064
 -15950811.33248 -12045629.63746  22041757.4384                   22041754.4774
  -5363941.03547  -2979840.35544  23529842.4454                   23529843.0984
 -17987587.21548 -13982828.45746  21126072.8984                   21126070.5744
 -17593773.57848 -13568936.52046  20752597.2584                   20752592.4104
 -15531104.10948 -11127582.93046  21187111.1024                   21187108.8984
 11  8  3  1  9 30.0000000  0  8G09G17G05G12G27G10G02G04
  -1939507.69947  -1416384.99244  23235638.2274                   23235636.9734
  -3126469.74647  -2167692.80945  22906552.4694                   22906550.6604
 -10949031.23047  -8510829.96945  22901618.7894                   22901617.0864
 -15982980.03148 -12070696.13346  22035635.9064                   22035632.9414
  -5262892.70746  -2901101.49644  23549071.7664                   23549071.9064
 -17974165.08648 -13972369.62546  21128627.2734                   21128624.7854
 -17565129.83248 -13546616.69946  20758048.0554                   20758042.9774
 -15420431.09448 -11041344.23446  21208171.8054                   21208168.8984
 11  8  3  1 10  0.0000000  0  8G09G17G05G12G27G10G02G04
  -1826911.86347  -1328648.05944  23257064.2814                   23257063.5984
  -3035833.31647  -2097067.03145  22923800.0314                   22923797.5554
 -11007215.17247  -8556167.99645  22890546.5164                   22890544.5824
 -16014779.74648 -12095475.10546  22029584.4064                   22029581.1174
  -5161628.79746  -2822194.64844  23568341.1024                   23568341.6524
 -17960117.85948 -13961423.71146  21131300.5554                   21131297.7234
 -17536115.92248 -13524008.44146  20763569.4144                   20763564.1054
 -15309486.63348 -10954894.01646  21229283.4614                   21229281.6054
 11  8  3  1 10 30.0000000  0  8G09G17G05G12G27G10G02G04
  -1713973.60947  -1240644.30944  23278555.9454                   23278554.9224
  -2945020.37547  -2026303.72745  22941081.0004                   22941079.3014
 -11065177.50447  -8601333.36745  22879516.3524                   22879514.4494
 -16046199.53947 -12119958.03946  22023605.5864                   22023602.4574
  -5060143.83246  -2743115.54344  23587653.6094                   23587654.4384
 -17945435.89148 -13949983.18046  21134094.6804                   21134091.6374
 -17506724.16848 -13501105.75446  20769162.5084                   20769156.9774
 -15198264.81248 -10868227.67246  21250448.2194                   21250445.8094
 11  8  3  1 11  0.0000000  0  8G09G17G05G12G27G10G02G04
  -1600706.70747  -1152384.50044  23300110.5784                   23300109.4574
  -2854040.90647  -1955410.66845  22958394.0084                   22958391.4924
 -11122925.98847  -8646332.09845  22868527.1414                   22868526.0474
 -16077247.53148 -12144151.25846  22017697.4614                   22017693.9734
  -4958450.86746  -2663874.39844  23607005.0554                   23607005.0084
 -17930127.83648 -13938054.79746  21137007.2424                   21137004.8054
 -17476966.16848 -13477917.68746  20774824.9924                   20774819.9694
 -15086778.43048 -10781355.17646  21271663.5634                   21271660.7194
 11  8  3  1 11 30.0000000  0  8G09G17G05G12G27G10G02G04
  -3062532.60947  -2291469.69544  23021934.0004                   23021933.2584
  -4338312.94147  -3111986.30145  22675946.9614                   22675944.0434
 -12755881.03247  -9918764.49145  22557786.3594                   22557784.7114
 -17683343.50847 -13395654.61746  21712067.3284                   21712063.9494
  -6431970.85546  -3812071.87543  23326603.4454                   23326603.7344
 -19489613.34448 -15153238.27746  20840247.0704                   20840244.4144
 -19022263.63348 -14682045.57046  20480764.2344                   20480759.4304
 -16550447.94548 -11921876.89546  20993136.1414                   20993134.1134
 11  8  3  1 12  0.0000000  0  8G09G17G05G12G27G10G02G04
  -2948616.54747  -2202704.01644  23043611.4844                   23043610.7424
  -4246996.42647  -3040830.60245  22693323.4534                   22693321.5124
 -12813190.52347  -9963421.13745  22546880.4924                   22546879.1134
 -17713637.35948 -13419260.18746  21706302.5004                   21706299.7034
  -6329867.93746  -3732511.25443  23346032.9454                   23346033.6054
 -19473046.67648 -15140329.16446  20843399.6094                   20843396.8914
 -18991774.08648 -14658287.47346  20486566.5864                   20486561.4064
 -16438437.56648 -11834596.09446  21014451.4534                   21014448.9804
 11  8  3  1 12 30.0000000  0  8G09G17G05G12G27G10G02G04
  -2834372.61347  -2113682.87144  23065351.8364                   23065350.5784
  -4155502.32247  -2969536.51045  22710734.3204                   22710732.1884
 -12870267.66047 -10007896.75445  22536018.9534                   22536017.4964
 -17743542.67248 -13442563.00446  21700611.6254                   21700608.8714
  -6227555.74947  -3652787.57544  23365502.0394                   23365503.3874
 -19455840.52748 -15126921.73046  20846673.5704                   20846671.5514
 -18960911.43748 -14634238.64146  20492439.4774                   20492434.7774
 -16326160.05548 -11747107.14546  21035817.2034                   21035814.5124
 11  8  3  1 13  0.0000000  0  8G09G17G05G12G27G10G02G04
  -2719813.48047  -2024416.07844  23087151.4924                   23087151.1724
  -4063839.42247  -2898110.89845  22728177.1254                   22728174.8954
 -12927119.09847 -10052196.49245  22525200.7734                   22525198.9804
 -17773065.81648 -13465568.02046  21694994.0004                   21694990.3754
  -6125046.34046  -3572910.21044  23385009.3594                   23385010.2664
 -19438002.71148 -15113022.10946  20850068.2344                   20850065.2974
 -18929685.99248 -14609907.10946  20498381.7114                   20498376.6294
 -16213627.19148 -11659419.22746  21057231.5314                   21057229.1484
 11  8  3  1 13 30.0000000  0  8G09G17G05G12G27G10G02G04
  -2604937.69547  -1934902.57044  23109011.7034                   23109011.5004
  -3972002.13747  -2826549.41445  22745653.2504                   22745650.6524
 -12983736.81247 -10096314.12145  22514426.3054                   22514424.8594
 -17802199.32448 -13488269.43746  21689449.6484                   21689446.6414
  -6022337.91047  -3492877.75044  23404553.7974                   23404555.4654
 -19419526.59848 -15098625.11746  20853583.9844                   20853581.6134
 -18898093.63348 -14585289.67646  20504393.1024                   20504388.2974
 -16100836.22348 -11571530.19146  21078695.0634                   21078692.3364
 11  8  3  1 14  0.0000000  0  8G09G17G05G12G27G10G02G04
  -2489753.94147  -1845149.05944  23130930.8284                   23130929.7974
  -3879994.87947  -2754855.46945  22763160.8754                   22763159.4024
 -13040123.23047 -10140251.50845  22503696.7344                   22503694.6094
 -17830946.12148 -13510669.52046  21683979.3834                   21683976.3284
  -5919438.46847  -3412696.46243  23424136.1884                   23424135.8244
 -19400416.66048 -15083734.24646  20857220.7664                   20857217.8794
 -18866140.75448 -14560391.31246  20510473.7814                   20510468.4804
 -15987794.91048 -11483446.06646  21100206.5234                   21100203.7854
 11  8  3  1 14 30.0000000  0  8G09G17G05G12G27G10G02G04
  -2374268.08247  -1755160.16844  23152907.1564                   23152906.3874
  -3787820.44247  -2683031.26545  22780701.5864                   22780699.3674
 -13096277.69147 -10184008.15245  22493010.3834                   22493008.8524
 -17859306.36348 -13532768.40246  21678582.7974                   21678579.3284
  -5816353.36747  -3332370.51644  23443752.5784                   23443753.0904
 -19380673.92648 -15068350.27346  20860977.6954                   20860975.1414
 -18833830.94148 -14535214.82046  20516622.0474                   20516616.8204
 -15874507.90648 -11395170.51246  21121763.8054                   21121761.4414
 11  8  3  1 15  0.0000000  0  8G09G17G05G12G27G10G02G04
  -2258481.70347  -1664937.08644  23174940.7424                   23174940.0474
  -3695475.87947  -2611074.47345  22798274.6414                   22798271.7974
 -13152195.15647 -10227580.12945  22482369.6254                   22482368.0004
 -17887275.03148 -13554562.14546  21673260.3594                   21673257.5634
  -5713083.13347  -3251900.28144  23463404.5704                   23463404.1524
 -19360295.05148 -15052470.61746  20864855.2974                   20864852.6094
 -18801162.90648 -14509759.19146  20522838.3914                   20522833.5664
 -15760975.23448 -11306703.52046  21143368.9384                   21143366.0434
 11  8  3  1 15 30.0000000  0  8G09G17G05G12G27G10G02G04
  -2142389.81247  -1574475.96145  23197032.2424                   23197031.9774
  -3602952.19147  -2538978.14145  22815881.2734                   22815878.9884
 -13207864.70347 -10270958.89545  22471776.2034                   22471773.9884
 -17914841.59848 -13576042.56646  21668014.3284                   21668011.7384
  -5609622.23847  -3171281.48444  23483092.5944                   23483093.4964
 -19339270.44948 -15036087.78946  20868856.4534                   20868853.7194
 -18768129.31248 -14484018.72746  20529124.4614                   20529119.9494
 -15647191.12148 -11218040.59046  21165020.9844                   21165018.4734
 11  8  3  1 16  0.0000000  0  8G09G17G05G12G27G10G02G04
  -2026004.47747  -1483786.16044  23219179.2194                   23219179.0864
  -3510257.53947  -2466748.57045  22833520.3754                   22833517.9454
 -13263291.55147 -10314148.57845  22461228.0864                   22461227.1134
 -17942012.38748 -13597214.60246  21662844.2584                   21662841.2274
  -5505982.25847  -3090523.13744  23502814.3364                   23502815.1374
 -19317607.61748 -15019207.65246  20872978.1724                   20872975.6414
 -18734739.84448 -14458000.93746  20535478.4614                   20535473.4344
 -15533166.43748 -11129190.20746  21186718.9304                   21186716.5084
 11  8  3  1 16 30.0000000  0  9G09G17G05G12G27G10G02G04G25
  -1909326.50747  -1392868.33844  23241382.7504                   23241382.5984
  -3417388.49347  -2394383.10545  22851192.8834                   22851190.4304
 -13318470.26447 -10357144.89645  22450728.5084                   22450726.5824
 -17968781.55848 -13618073.66946  21657749.9454                   21657747.3954
  -5402163.08147  -3009625.19444  23522570.8284                   23522571.1644
 -19295302.34048 -15001826.90846  20877222.8674                   20877220.5824
 -18700992.54148 -14431704.33046  20541900.2274                   20541894.9804
 -15418900.38648 -11040151.74546  21208463.1564                   21208460.5004
  -6397656.01157  -4978199.86054  24574915.3524                   24574916.1804
 11  8  3  1 17  0.0000000  0  9G09G17G05G12G27G10G02G04G25
  -1792365.98447  -1301730.36744  23263639.6414                   23263639.2894
  -3324351.52047  -2321886.78545  22868897.0704                   22868895.2074
 -13373404.44547 -10399950.68745  22440274.8284                   22440273.1214
 -17995154.14848 -13638623.71546  21652731.9614                   21652728.6334
  -5298174.38347  -2928595.14144  23542358.5164                   23542359.3594
 -19272360.75048 -14983950.32046  20881589.1024                   20881586.1334
 -18666895.37148 -14405135.09846  20548388.7194                   20548383.9774
 -15304402.32448 -10950932.49646  21230251.3984                   21230249.3834
  -6458044.33647  -5025255.63344  24563423.5474                   24563424.2114
 11  8  3  1 17 30.0000000  0  9G09G17G05G12G27G10G02G04G25
  -1675125.93046  -1210374.53544  23285949.1564                   23285949.5474
  -3231145.61347  -2249258.82445  22886633.8834                   22886631.3164
 -13428091.38747 -10442563.80945  22429868.1414                   22429866.4924
 -18021127.18448 -13658862.42646  21647788.8754                   21647785.7464
  -5194018.50447  -2847434.82044  23562178.7974                   23562179.6484
 -19248781.12948 -14965576.56646  20886075.9774                   20886073.2664
 -18632448.68048 -14378293.50446  20554944.0394                   20554938.9224
 -15189673.93048 -10861533.77046  21252083.8364                   21252080.9454
  -6518296.50047  -5072205.30943  24551958.1094                   24551958.1884
 11  8  3  1 18  0.0000000  0  9G09G17G05G12G27G10G02G04G25
  -1557608.93446  -1118802.91844  23308311.9384                   23308311.9884
  -3137769.34447  -2176498.09845  22904403.1024                   22904400.4104
 -13482526.69147 -10484980.85245  22419509.3364                   22419507.7704
 -18046696.87948 -13678786.84046  21642923.6724                   21642920.1844
  -5089697.31647  -2766145.69144  23582031.3444                   23582031.3954
 -19224561.36748 -14946703.99646  20890684.4924                   20890681.8554
 -18597652.73848 -14351179.76646  20561565.6484                   20561560.1724
 -15074716.70748 -10771956.73446  21273959.5234                   21273957.2074
  -6578409.18047  -5119046.28943  24540518.3674                   24540518.7814
 11  8  3  1 18 30.0000000  0  9G09G17G05G12G27G10G02G04G25
  -1439821.75447  -1027020.80144  23330726.3204                   23330726.3834
  -3044225.52047  -2103606.83245  22922203.2344                   22922201.2854
 -13536710.98747 -10527202.30645  22409198.5084                   22409196.4734
 -18071864.40248 -13698397.88746  21638134.0234                   21638130.9384
  -4985216.93046  -2684732.50044  23601913.2344                   23601914.1804
 -19199703.94148 -14927334.56246  20895414.7504                   20895412.4654
 -18562511.90648 -14323797.28946  20568252.3134                   20568247.0434
 -14959536.09748 -10682205.62946  21295877.3134                   21295875.3954
  -6638383.27347  -5165779.31243  24529105.0704                   24529105.4884
 11  8  3  1 19  0.0000000  0  9G09G17G05G12G27G10G02G04G25
  -1321766.65647   -935029.89844  23353191.6334                   23353191.4224
  -2950512.22347  -2030583.50445  22940036.4224                   22940034.0434
 -13590639.93747 -10569224.80145  22398936.0314                   22398934.5314
 -18096626.06648 -13717692.68446  21633422.2894                   21633419.0594
  -4880578.98846  -2603196.53944  23621824.3914                   23621825.7664
 -19174206.55148 -14907466.44546  20900267.0704                   20900264.3984
 -18527025.71948 -14296145.70746  20575005.2344                   20574999.9064
 -14844132.89848 -10592281.07446  21317837.9534                   21317835.5004
  -6698215.07047  -5212401.46143  24517719.5394                   24517720.1884
 11  8  3  1 19 30.0000000  0  9G09G17G05G12G27G10G02G04G25
  -1203440.41446   -842827.73444  23375708.7814                   23375708.0354
  -2856622.28947  -1957422.52745  22957903.2274                   22957900.6254
 -13644304.03547 -10611040.91045  22388723.6644                   22388722.1994
 -18120972.94948 -13736664.25446  21628788.9924                   21628785.9344
  -4775779.74646  -2521534.91444  23641767.6724                   23641768.7584
 -19148061.24648 -14887093.45746  20905241.8834                   20905239.3594
 -18491188.50848 -14268220.58646  20581824.6804                   20581819.2704
 -14728503.19148 -10502180.01646  21339841.3134                   21339839.1254
  -6757895.71147  -5258905.81643  24506362.7114                   24506363.3244
 11  8  3  1 20  0.0000000  0  9G09G17G05G12G27G10G02G04G25
  -1084852.85546   -750421.94944  23398275.5394                   23398274.6054
  -2762561.67247  -1884128.56245  22975802.2974                   22975800.0514
 -13697706.53947 -10652653.18045  22378561.6094                   22378559.7034
 -18144908.37948 -13755315.23046  21624234.3754                   21624231.2934
  -4670828.02046  -2439754.43744  23661739.6644                   23661740.7114
 -19121273.37148 -14866219.76646  20910339.6804                   20910336.8164
 -18455007.80548 -14240027.82446  20588709.5944                   20588704.3204
 -14612654.96548 -10411908.68745  21361886.4064                   21361884.5824
  -6817428.75046  -5305295.19543  24495033.5554                   24495034.4064
 11  8  3  1 20 30.0000000  0  9G09G17G05G12G27G10G02G04G25
   -966008.25046   -657815.84044  23420890.0314                   23420890.5204
  -2668330.70347  -1810701.84445  22993733.4454                   22993731.6024
 -13750845.45747 -10694060.05545  22368449.5164                   22368448.2074
 -18168431.37948 -13773644.81646  21619757.9694                   21619755.4064
  -4565727.80946  -2357858.28544  23681739.4064                   23681740.7304
 -19093843.07848 -14844845.48446  20915559.5164                   20915557.0044
 -18418485.64148 -14211568.98046  20595659.3364                   20595653.5634
 -14496591.57448 -10321469.70346  21383972.6094                   21383970.2194
  -6876812.77046  -5351568.41043  24483732.9614                   24483734.0274
 11  8  3  1 21  0.0000000  0  9G09G17G05G12G27G10G02G04G25
   -846909.69547   -565011.86344  23443554.4694                   23443554.1214
  -2573928.41447  -1737141.62145  23011697.7274                   23011695.6174
 -13803717.77347 -10735259.18045  22358388.5784                   22358386.3954
 -18191538.62148 -13791650.43746  21615361.4224                   21615357.5044
  -4460481.38346  -2275848.18444  23701767.7274                   23701767.6994
 -19065769.03148 -14822969.58646  20920901.5164                   20920898.8364
 -18381622.42248 -14182844.39146  20602674.3134                   20602669.2424
 -14380314.58248 -10230864.26246  21406099.6564                   21406097.3524
  -6936044.91046  -5397723.28942  24472461.4384                   24472462.5274
 11  8  3  1 21 30.0000000  0  9G09G17G05G12G27G10G02G04G25
   -727557.06247   -472009.87144  23466266.2894                   23466265.6564
  -2479350.60247  -1663444.63745  23029695.3204                   23029693.4534
 -13856316.48247 -10776245.11545  22348379.1884                   22348377.3914
 -18214224.41448 -13809327.65646  21611043.5944                   21611040.8444
  -4355087.84846  -2193723.50444  23721823.2344                   23721824.1994
 -19037046.53148 -14800588.40646  20926367.3204                   20926364.5664
 -18344415.54748 -14153852.01646  20609754.4534                   20609750.0084
 -14263822.75448 -10140091.43746  21428267.4844                   21428265.1414
  -6995118.89146  -5443754.95343  24461220.2584                   24461221.7424
 11  8  3  1 22  0.0000000  0  9G09G17G05G12G27G10G02G04G25
   -607957.57447   -378815.57044  23489025.3674                   23489025.2814
  -2384600.70747  -1589613.57045  23047725.9454                   23047723.9734
 -13908642.58647 -10817018.62945  22338421.7114                   22338419.7934
 -18236490.06648 -13826677.48446  21606807.0164                   21606803.6804
  -4249553.78546  -2111489.25844  23741905.7034                   23741906.1684
 -19007678.52048 -14777704.21546  20931955.6804                   20931953.3244
 -18306869.79748 -14124595.59046  20616899.4694                   20616894.3954
 -14147122.06648 -10049155.86746  21450474.5554                   21450472.1414
  -7054036.03546  -5489664.40643  24450009.4224                   24450009.5234
 11  8  3  1 22 30.0000000  0  9G09G17G05G12G27G10G02G04G25
   -488116.50847   -285432.99244  23511830.3134                   23511829.9414
  -2289679.82847  -1515649.25845  23065788.7424                   23065786.3954
 -13960694.77748 -10857578.69545  22328517.3364                   22328514.3754
 -18258334.97748 -13843699.47746  21602649.9844                   21602646.2424
  -4143883.87547  -2029149.19943  23762014.2344                   23762014.9104
 -18977665.98048 -14754317.79746  20937667.1094                   20937664.1414
 -18268988.11748 -14095077.39546  20624108.3444                   20624102.6374
 -14030216.33648  -9958060.50445  21472721.3834                   21472718.8794
  -7112795.69547  -5535451.12544  24438827.1564                   24438828.2504
 11  8  3  1 23  0.0000000  0  9G09G17G05G12G27G10G02G04G25
   -368031.23447   -191860.10944  23534682.3984                   23534681.9844
  -2194580.94147  -1441546.23845  23083885.4924                   23083883.6024
 -14012464.45747 -10897918.64145  22318665.5004                   22318663.0004
 -18279750.62148 -13860386.94946  21598574.4774                   21598571.3524
  -4038074.99247  -1946700.82444  23782149.1484                   23782149.4494
 -18947002.42248 -14730424.10546  20943502.1334                   20943499.7504
 -18230765.48448 -14065293.51646  20631381.1254                   20631376.3674
 -13913101.75448  -9866802.40245  21495007.5634                   21495005.0864
  -7171389.39847  -5581108.53144  24427677.7584                   24427678.5434
 11  8  3  1 23 30.0000000  0  9G09G17G05G12G27G10G02G04G25
   -247707.72746    -98101.60944  23557579.2664                   23557578.7464
  -2099306.91447  -1367306.76245  23102015.3984                   23102013.5744
 -14063951.21547 -10938038.12145  22308867.6884                   22308865.3594
 -18300737.23848 -13876740.13746  21594581.0084                   21594577.8714
  -3932132.49647  -1864148.32044  23802309.0314                   23802309.9884
 -18915689.39548 -14706024.32446  20949460.8134                   20949458.0434
 -18192205.75448 -14035246.96946  20638719.4614                   20638714.5164
 -13795783.27348  -9775385.42645  21517332.0314                   21517330.0204
  -7229817.32647  -5626636.76744  24416559.6484                   24416559.8054
 11  8  3  1 24  0.0000000  0  9G09G17G05G12G27G10G02G04G25
   -127148.31247     -4159.32044  23580521.3134                   23580520.7034
  -2003856.11747  -1292929.51245  23120179.2344                   23120177.4774
 -14115151.03947 -10977934.01645  22299124.2424                   22299122.1644
 -18321291.45348 -13892756.36746  21590669.4774                   21590666.0164
  -3826057.91447  -1781492.93043  23822495.1174                   23822495.3444
 -18883725.23848 -14681117.16846  20955543.5864                   20955540.8094
 -18153308.68748 -14004937.55946  20646121.1414                   20646116.3404
 -13678261.74248  -9683810.20345  21539695.4534                   21539693.2074
  -7288075.73447  -5672032.91844  24405472.7344                   24405473.0274
 11  8  3  1 24 30.0000000  0  9G09G17G05G12G27G10G02G04G25
     -6358.87546     89962.23844  23603506.1334                   23603506.2774
  -1908229.99647  -1218415.64845  23138376.2734                   23138374.5394
 -14166063.20347 -11017605.77345  22289436.0784                   22289433.9304
 -18341413.20748 -13908435.62946  21586840.5314                   21586837.3204
  -3719856.53146  -1698738.70743  23842703.9384                   23842704.1024
 -18851111.59048 -14655703.91046  20961749.2894                   20961747.0784
 -18114077.79748 -13974368.02746  20653586.5474                   20653581.4064
 -13560541.78548  -9592080.37945  21562097.3204                   21562094.6604
  -7346164.44147  -5717296.82044  24394419.2814                   24394419.4534
 11  8  3  1 25  0.0000000  0  9G09G17G05G12G27G10G02G04G25
    114655.34847    184258.96144  23626535.2584                   23626534.7034
  -1812429.62147  -1143766.02345  23156606.1954                   23156604.4384
 -14216686.78947 -11057052.65646  22279803.0004                   22279800.5044
 -18361101.88348 -13923777.42646  21583094.1254                   21583090.5004
  -3613532.91446  -1615889.24243  23862937.1334                   23862937.2734
 -18817849.21548 -14629785.16446  20968079.3524                   20968076.7504
 -18074515.76648 -13943540.46146  20661114.6804                   20661109.5204
 -13442627.05148  -9500198.78545  21584535.7814                   21584533.3164
  -7404082.69547  -5762427.88344  24383397.2584                   24383398.2544
 11  8  3  1 25 30.0000000  0  9G09G17G05G12G27G10G02G04G25
    235893.93047    278730.48844  23649605.9384                   23649605.8364
  -1716451.75047  -1068978.09045  23174870.2034                   23174868.5594
 -14267015.85247 -11096270.03546  22270225.4614                   22270223.1914
 -18380352.28948 -13938777.71946  21579430.8754                   21579427.4384
  -3507086.73847  -1532944.27343  23883192.8134                   23883193.3404
 -18783934.43448 -14603358.04746  20974533.1024                   20974530.3674
 -18034620.73048 -13912453.41846  20668706.4844                   20668701.2664
 -13324516.79348  -9408164.84045  21607011.2504                   21607008.5784
  -7461825.02347  -5807421.87144  24372409.3834                   24372409.9964
 11  8  3  1 26  0.0000000  0  9G09G17G05G12G27G10G02G04G25
    357353.74646    373374.42244  23672718.6724                   23672719.0704
  -1620295.85547   -994051.42644  23193168.0084                   23193166.0204
 -14317047.21147 -11135255.43445  22260704.3364                   22260702.3054
 -18399161.65648 -13953434.32846  21575851.0084                   21575848.2894
  -3400520.81646  -1449905.98843  23903472.3204                   23903472.6214
 -18749366.47748 -14576421.94946  20981111.1414                   20981108.6334
 -17994393.55148 -13881107.55146  20676361.5164                   20676356.3364
 -13206213.05548  -9315980.11745  21629524.0704                   21629521.1094
  -7519388.69446  -5852276.61843  24361455.4384                   24361455.7424
 11  8  3  1 26 30.0000000  0  9G09G17G05G12G27G10G02G04G25
    479025.46547    468183.46144  23695872.4384                   23695871.5704
  -1523967.04747   -918990.02044  23211498.4384                   23211496.4344
 -14366783.80147 -11174011.14846  22251240.0004                   22251237.7774
 -18417533.37548 -13967749.92646  21572355.3524                   21572352.1414
  -3293843.57047  -1366780.98843  23923772.0944                   23923772.5274
 -18714150.42648 -14548980.85946  20987812.2114                   20987810.2304
 -17953840.80148 -13849507.99246  20684078.4454                   20684073.2114
 -13087723.61348  -9223650.68745  21652071.8834                   21652069.2304
  -7576777.03546  -5896994.74643  24350535.3204                   24350534.7114
 11  8  3  1 27  0.0000000  0  9G09G17G05G12G27G10G02G04G25
    600911.05147    563159.16444  23719066.5864                   23719065.6454
  -1427459.61347   -843789.42645  23229864.1564                   23229861.6804
 -14416217.26647 -11212530.66446  22241833.0234                   22241831.2154
 -18435459.95748 -13981718.67646  21568943.7584                   21568940.6994
  -3187052.37946  -1283567.18443  23944093.4304                   23944094.5944
 -18678280.39148 -14521030.16446  20994638.2344                   20994635.6414
 -17912958.70748 -13817651.80546  20691857.9534                   20691853.1374
 -12969045.33648  -9131174.11345  21674655.5944                   21674653.0514
  -7633981.92647  -5941569.94543  24339649.1954                   24339649.1764
 11  8  3  1 27 30.0000000  0  9G09G17G05G12G27G10G02G04G25
    723002.34846    658295.18044  23742298.9774                   23742300.0864
  -1330777.01647   -768452.34044  23248261.2664                   23248259.3444
 -14465349.11347 -11250815.14846  22232483.5634                   22232481.0704
 -18452943.18048 -13995341.93046  21565616.9144                   21565613.6334
  -3080154.59446  -1200270.33643  23964435.8134                   23964436.8984
 -18641760.36748 -14492572.97346  21001588.2034                   21001585.0944
 -17871752.87148 -13785543.34446  20699699.3524                   20699694.2154
 -12850184.53948  -9038555.32045  21697273.4614                   21697272.0634
  -7691005.43746  -5986003.81243  24328798.1334                   24328797.3834
 11  8  3  1 28  0.0000000  0  9G09G17G05G12G27G10G02G04G25
    845298.58647    753590.84044  23765571.0784                   23765571.8164
  -1233916.73447   -692976.79345  23266693.4144                   23266691.1804
 -14514173.83247 -11288860.32445  22223192.4454                   22223190.1134
 -18469978.35548 -14008616.07446  21562375.2814                   21562371.9184
  -2973150.24246  -1116890.46143  23984798.3284                   23984799.2304
 -18604587.52748 -14463607.09846  21008661.2734                   21008658.6914
 -17830221.70748 -13753181.39846  20707602.2114                   20707597.2664
 -12731140.73848  -8945793.91045  21719927.3754                   21719924.6604
  -7747842.43047  -6030292.35543  24317982.0704                   24317982.3324
 11  8  3  1 28 30.0000000  0  9G09G17G05G12G27G10G02G04G25
    967799.60246    849046.08643  23788882.6644                   23788882.9494
  -1136875.23447   -617360.03545  23285159.9224                   23285158.1334
 -14562685.94547 -11326661.90645  22213960.5004                   22213958.1214
 -18486560.23848 -14021537.00846  21559219.7584                   21559216.3874
  -2866039.23046  -1033427.48043  24005180.9844                   24005181.9224
 -18566758.08248 -14434129.58246  21015860.2974                   21015857.2704
 -17788363.11748 -13720564.30546  20715567.7584                   20715562.8594
 -12611913.27348  -8852889.39145  21742614.7974                   21742613.1134
  -7804487.30547  -6074431.18443  24307202.9774                   24307203.6294
 11  8  3  1 29  0.0000000  0  9G09G17G05G12G27G10G02G04G25
   1090494.85546    944652.65644  23812230.5474                   23812231.2894
  -1039658.48047   -541606.74244  23303659.9614                   23303658.1764
 -14610889.12547 -11364222.75445  22204787.6884                   22204785.9734
 -18502693.10948 -14034108.05546  21556149.8754                   21556146.6804
  -2758831.01646   -949888.72743  24025581.3364                   24025583.4414
 -18528278.50448 -14404145.45346  21023182.3834                   21023179.3364
 -17746184.93048 -13687698.18746  20723594.0164                   20723588.8794
 -12492510.76248  -8759848.48445  21765336.7584                   21765334.3404
  -7860944.28947  -6118423.58643  24296459.4614                   24296459.6214
 11  8  3  1 29 30.0000000  0  9G09G17G05G12G27G10G02G04G25
   1213386.98046   1040412.63344  23835616.6334                   23835617.3484
   -942259.96147   -465711.80944  23322193.7974                   23322191.9024
 -14658774.82447 -11401536.21545  22195675.3754                   22195673.3364
 -18518368.56248 -14046322.68046  21553166.9304                   21553163.4884
  -2651522.41046   -866271.77343  24046001.9384                   24046004.3524
 -18489142.27748 -14373649.67246  21030629.7814                   21030626.7664
 -17703682.34848 -13654579.28546  20731682.2424                   20731676.7234
 -12372929.42648  -8666668.24645  21788092.4384                   21788090.2274
  -7917204.77747  -6162262.88344  24285753.1174                   24285753.9454
 11  8  3  1 30  0.0000000  0  9G09G17G05G12G27G10G02G04G25
   -238947.31346    -91276.56644  23559246.7894                   23559247.1884
  -2420100.18847  -1617275.65244  23040970.8984                   23040968.9224
 -16281764.92647 -12666203.77345  21886830.7584                   21886828.1484
 -20109009.73447 -15285783.31646  21250478.1724                   21250474.7624
  -4119536.80546  -2010179.23443  23766648.5234                   23766650.5514
 -20024771.49648 -15570243.83646  20738409.3524                   20738406.3674
 -19236279.07448 -14848810.48846  20440038.7504                   20440033.4884
 -13828591.20348  -9800950.15645  21511089.2894                   21511086.9574
  -9548692.07047  -7433551.66444  23975291.8594                   23975292.5514
 11  8  3  1 30 30.0000000  0  9G09G17G05G12G27G10G02G04G25
   -115679.43846      4776.21944  23582703.3834                   23582704.4024
  -2322344.62947  -1541102.52344  23059572.5704                   23059570.6844
 -16329013.48847 -12703020.77046  21877839.4924                   21877837.1724
 -20123772.19548 -15297286.51646  21247668.5704                   21247665.2384
  -4012043.80946  -1926418.60544  23787103.7814                   23787105.1804
 -19984328.32848 -15538729.65646  20746105.2194                   20746102.2114
 -19193138.80548 -14815194.68746  20448247.5784                   20448242.6644
 -13708665.60548  -9707501.65245  21533910.5784                   21533908.1764
  -9604559.53947  -7477084.73044  23964660.1564                   23964660.8164
 11  8  3  1 31  0.0000000  0  9G09G17G05G12G27G10G02G04G25
      7767.18746    100968.30144  23606194.7424                   23606195.8914
  -2224414.04347  -1464792.99244  23078207.6954                   23078206.3984
 -16375943.76247 -12739589.76246  21868909.3834                   21868906.9414
 -20138078.89147 -15308434.57446  21244946.3444                   21244942.6764
  -3904466.94146  -1842592.61744  23807574.9924                   23807576.9804
 -19943235.44548 -15506709.20346  20753925.2424                   20753922.3954
 -19149685.54348 -14781334.99246  20456516.7664                   20456511.9694
 -13588575.58648  -9613925.03145  21556762.8524                   21556760.6334
  -9660231.00447  -7520465.04744  23954066.4224                   23954067.3674
 11  8  3  1 31 30.0000000  0  9G09G17G05G12G27G10G02G04G25
    131392.00447    197299.18444  23629720.0784                   23629720.7734
  -2126304.91047  -1388344.32444  23096877.7034                   23096876.0744
 -16422549.91447 -12775906.17246  21860040.3054                   21860038.3134
 -20151924.35548 -15319223.23046  21242311.2894                   21242307.9884
  -3796805.99646  -1758701.09844  23828062.5394                   23828063.9884
 -19901489.51648 -15474179.88346  20761869.0164                   20761866.1254
 -19105917.75048 -14747230.20747  20464845.5394                   20464840.3094
 -13468319.86348  -9520219.28145  21579646.7194                   21579644.7154
  -9715700.71547  -7563688.16044  23943510.6644                   23943511.1954
 11  8  3  1 32  0.0000000  0  9G09G17G05G12G27G10G02G04G25
    255193.89547    293768.09844  23653278.9064                   23653279.3714
  -2028014.35247  -1311754.28544  23115582.2894                   23115579.6884
 -16468826.82047 -12811966.04346  21851234.2584                   21851231.5044
 -20165303.90647 -15329648.83246  21239765.0704                   21239762.0234
  -3689061.15246  -1674744.20744  23848565.5634                   23848566.9304
 -19859087.73848 -15441139.51246  20769937.6564                   20769935.1374
 -19061833.55148 -14712878.86746  20473234.1884                   20473229.1954
 -13347897.96148  -9426384.03945  21602562.1094                   21602559.7774
  -9770963.73047  -7606750.22344  23932994.8524                   23932994.9964
 11  8  3  1 32 30.0000000  0  9G09G17G05G12G27G10G02G04G25
    379169.94547    390372.70744  23676871.2504                   23676871.8674
  -1929541.45747  -1235022.18044  23134320.6724                   23134318.9694
 -16514770.62147 -12847766.35246  21842491.0474                   21842488.9494
 -20178214.80548 -15339709.26246  21237308.3674                   21237305.0784
  -3581234.91446  -1590723.86344  23869085.0164                   23869086.0394
 -19816029.44948 -15407587.57846  20778131.0784                   20778128.8404
 -19017433.93448 -14678281.75846  20481683.1484                   20481678.4694
 -13227311.43448  -9332420.52345  21625508.8754                   21625506.6134
  -9826016.93047  -7649648.78144  23922517.8984                   23922518.6254
 11  8  3  1 33  0.0000000  0  9G09G17G05G12G27G10G02G04G25
    503313.68747    487107.97744  23700494.8134                   23700495.6684
  -1830888.75447  -1158149.95744  23153094.0784                   23153091.1724
 -16560381.79347 -12883307.46146  21833811.5004                   21833809.2774
 -20190658.21547 -15349405.40646  21234940.6644                   21234937.5784
  -3473333.11746  -1506644.66043  23889618.1094                   23889618.9654
 -19772317.58648 -15373526.38346  20786449.3284                   20786447.0314
 -18972722.99648 -14643442.04746  20490191.5864                   20490186.6604
 -13106565.37948  -9238332.69545  21648486.0474                   21648483.4414
  -9880860.85546  -7692384.24244  23912081.3754                   23912082.9844
 11  8  3  1 33 30.0000000  0  9G09G17G05G12G27G10G02G04G25
    627617.66047    583968.10944  23724149.2664                   23724149.8364
  -1732059.68847  -1081140.31644  23171900.0084                   23171898.1524
 -16605661.84447 -12918590.56646  21825194.9924                   21825193.0314
 -20202635.75848 -15358738.53946  21232661.0474                   21232658.2384
  -3365362.57846  -1422511.87543  23910163.9384                   23910165.4224
 -19727955.64148 -15338958.61346  20794891.7274                   20794888.8554
 -18927705.91848 -14608363.79746  20498758.2114                   20498752.8984
 -12985666.02048  -9144125.41445  21671492.4144                   21671490.3874
  -9935497.03146  -7734957.82444  23901684.1174                   23901685.6844
 11  8  3  1 34  0.0000000  0  9G09G17G05G12G27G10G02G04G25
    752083.86347    680954.64544  23747834.7274                   23747835.3594
  -1633048.77747  -1003988.96144  23190741.9844                   23190739.0514
 -16650602.28948 -12953609.03946  21816643.0864                   21816640.7854
 -20214139.93448 -15367702.82446  21230472.1564                   21230468.6954
  -3257320.78146  -1338323.56243  23930723.6804                   23930725.1604
 -19682938.48048 -15303880.28946  20803457.9454                   20803455.3284
 -18882378.80148 -14573043.94546  20507383.5394                   20507378.3984
 -12864609.98448  -9049796.05145  21694528.6254                   21694526.9104
  -9989917.35246  -7777363.20344  23891328.7664                   23891329.7424
 11  8  3  1 34 30.0000000  0  9G09G17G05G12G27G10G02G04G25
    876714.40647    778069.27344  23771550.8204                   23771551.4454
  -1533850.00047   -926691.21144  23209618.6954                   23209616.1374
 -16695195.07647 -12988356.60246  21808157.0164                   21808155.3164
 -20225163.05548 -15376292.25046  21228374.3134                   21228370.9924
  -3149204.94146  -1254077.56743  23951296.8524                   23951298.8244
 -19637260.82848 -15268287.30146  20812150.0314                   20812147.2814
 -18836737.01248 -14537478.89846  20516068.6724                   20516063.7664
 -12743393.59448  -8955341.73845  21717595.3834                   21717593.2664
 -10044113.77047  -7819594.13344  23881015.7974                   23881016.6054
 11  8  3  1 35  0.0000000  0  9G09G17G05G12G27G10G02G04G25
   1001495.93047    875301.53143  23795296.3834                   23795296.9144
  -1434472.09047   -849253.87144  23228529.8834                   23228527.4534
 -16739447.15247 -13022838.68746  21799736.3134                   21799733.8554
 -20235712.74648 -15384512.77746  21226366.9144                   21226363.8404
  -3041027.72346  -1169783.76643  23971882.6414                   23971884.1414
 -19590932.05148 -15232186.93746  20820966.3134                   20820963.3014
 -18790791.57848 -14501677.25446  20524812.0474                   20524806.5704
 -12622028.63348  -8860771.65645  21740690.6564                   21740688.5164
 -10098093.43447  -7861656.19144  23870743.3524                   23870744.0004
 11  8  3  1 35 30.0000000  0  9G09G17G05G12G27G10G02G04G25
   1126427.41047    972650.62543  23819069.9774                   23819071.2704
  -1334913.19947   -771675.53144  23247474.7974                   23247472.6684
 -16783353.09447 -13057051.03946  21791381.2584                   21791378.9884
 -20245784.31248 -15392360.75046  21224450.3914                   21224447.0164
  -2932789.29746  -1085442.26643  23992480.6564                   23992481.5984
 -19543949.57048 -15195577.19546  20829906.6564                   20829903.9184
 -18744541.35248 -14465638.09046  20533613.2814                   20533607.7584
 -12500514.75848  -8766085.52345  21763814.0554                   21763811.7464
 -10151851.49147  -7903545.52944  23860513.6254                   23860514.3834
 11  8  3  1 36  0.0000000  0  9G09G17G05G12G27G10G02G04G25
   1251508.78547   1070116.54743  23842872.2974                   23842872.8134
  -1235169.06347   -693952.80944  23266455.8054                   23266454.0164
 -16826906.89847 -13090989.00046  21783093.2974                   21783091.0204
 -20255372.55148 -15399832.09046  21222626.1024                   21222622.6724
  -2824489.18846  -1001052.67243  24013089.1024                   24013090.5474
 -19496309.71548 -15158455.21946  20838972.2504                   20838968.9804
 -18697984.00048 -14429359.62146  20542472.8134                   20542467.4924
 -12378850.45748  -8671282.18045  21786965.9144                   21786963.2624
 -10205381.68047  -7945257.31244  23850327.3204                   23850327.6804
 11  8  3  1 36 30.0000000  0  9G09G17G05G12G27G10G02G04G25
   1376733.37547   1167694.05544  23866702.2664                   23866702.3204
  -1135242.65647   -616088.08644  23285471.1414                   23285468.2704
 -16870109.03547 -13124652.94146  21774871.8524                   21774869.5124
 -20264478.75448 -15406927.82046  21220892.6334                   21220889.6644
  -2716133.60946   -916619.90243  24033707.8984                   24033709.4734
 -19448016.16048 -15120823.85546  20848162.1484                   20848158.9694
 -18651124.23448 -14392845.49246  20551389.6094                   20551384.5394
 -12257041.01648  -8576365.73845  21810145.5004                   21810143.0904
 -10258685.03947  -7986792.34844  23840184.3914                   23840184.4104
 11  8  3  1 37  0.0000000  0  9G09G17G05G12G27G10G02G04G25
   1502095.48447   1265378.70343  23890556.6804                   23890557.9224
  -1035135.63347   -538082.60244  23304520.7194                   23304518.6214
 -16912959.29747 -13158042.69546  21766717.4924                   21766715.6374
 -20273103.05548 -15413648.04346  21219251.5704                   21219248.0634
  -2607727.61346   -832147.82043  24054337.2894                   24054339.2114
 -19399071.18048 -15082684.89546  20857475.7974                   20857472.7234
 -18603965.40248 -14356098.33246  20560363.6024                   20560358.4614
 -12135090.67648  -8481339.51245  21833352.0004                   21833349.3754
 -10311761.11347  -8028150.30144  23830084.0164                   23830083.7234
 11  8  3  1 37 30.0000000  0  9G09G17G05G12G27G10G02G04G25
   1627591.98047   1363168.07844  23914438.7194                   23914439.7074
   -934847.39847   -459935.89844  23323604.8834                   23323603.3134
 -16955454.53147 -13191155.80146  21758631.4694                   21758628.6024
 -20281242.82448 -15419990.71546  21217702.7504                   21217699.5234
  -2499273.59846   -747638.29743  24074975.6174                   24074976.9574
 -19349474.45348 -15044038.06646  20866913.7734                   20866911.2894
 -18556508.18048 -14319118.67646  20569394.6414                   20569389.1094
 -12013001.28148  -8386204.91845  21856584.8284                   21856582.7234
 -10364607.11747  -8069328.96544  23820027.5864                   23820027.7074
 11  8  3  1 38  0.0000000  0  9G09G17G05G12G27G10G02G04G25
   1753221.01646   1461060.77043  23938344.6564                   23938345.4264
   -834375.96147   -381646.46544  23342723.6724                   23342721.6374
 -16997590.21547 -13223988.74646  21750613.0784                   21750610.7424
 -20288894.66048 -15425953.17246  21216246.6954                   21216243.3054
  -2390772.68446   -663092.19943  24095622.4694                   24095624.2664
 -19299224.65248 -15004882.34846  20876476.2814                   20876473.1294
 -18508752.74648 -14281906.62946  20578482.1884                   20578476.4494
 -11890773.02048  -8290962.13345  21879844.0004                   21879841.4414
 -10417218.75847  -8110324.99244  23810016.2894                   23810016.4694
 11  8  3  1 38 30.0000000  0  9G09G17G05G12G27G10G02G04G25
   1878982.43046   1559056.54743  23962277.2504                   23962277.3984
   -733717.62147   -303211.38744  23361878.3364                   23361876.6684
 -17039360.64848 -13256537.06646  21742664.7034                   21742662.3754
 -20296053.13848 -15431531.18646  21214884.6094                   21214881.3014
  -2282224.49646   -578509.40643  24116278.2974                   24116280.5514
 -19248318.75447 -14965215.38346  20886163.3284                   20886160.3204
 -18460696.82448 -14244460.44146  20587626.9614                   20587621.8014
 -11768404.74248  -8195610.24245  21903129.4534                   21903127.4104
 -10469590.25847  -8151133.85844  23800050.0554                   23800050.4884
 11  8  3  1 39  0.0000000  0  9G09G17G05G12G27G10G02G04G25
   2004866.32046   1657147.78143  23986230.8754                   23986232.0234
   -632878.60547   -224635.53944  23381067.6954                   23381065.2234
 -17080769.57048 -13288803.69146  21734784.7114                   21734782.1764
 -20302722.79748 -15436728.31246  21213615.2584                   21213612.1684
  -2173638.11746   -493896.71943  24136942.3984                   24136944.6994
 -19196763.25048 -14925042.23846  20895973.8524                   20895970.4964
 -18412347.80948 -14206785.87146  20596827.1414                   20596822.0164
 -11645904.42248  -8100155.45745  21926440.7894                   21926438.8524
 -10521725.44147  -8191758.62144  23790128.6024                   23790129.3554
 11  8  3  1 39 30.0000000  0  9G09G17G05G12G27G10G02G04G25
   2130873.15646   1755334.82443  24010210.3524                   24010210.8984
   -531854.27747   -145915.27744  23400292.2114                   23400290.1524
 -17121810.25448 -13320783.39546  21726974.6174                   21726972.1804
 -20308897.62148 -15441539.84446  21212440.4844                   21212437.1684
  -2065012.51846   -409253.53643  24157613.5474                   24157614.3954
 -19144554.60448 -14884360.14946  20905908.5634                   20905905.8054
 -18363703.16048 -14168880.93446  20606084.0784                   20606079.0004
 -11523270.66848  -8004596.69945  21949777.1724                   21949774.9614
 -10573617.91447  -8232194.20544  23780252.8674                   23780254.5944
 11  8  3  1 40  0.0000000  0  9G09G17G05G12G27G10G02G04G25
   2257000.82846   1853616.04743  24034211.1174                   24034211.9574
   -430643.56347    -67049.80544  23419551.8914                   23419549.3444
 -17162478.58248 -13352472.93746  21719235.5474                   21719233.3554
 -20314574.43748 -15445963.32446  21211360.3204                   21211356.6254
  -1956349.22746   -324580.98443  24178291.4774                   24178292.9414
 -19091691.43448 -14843168.02746  20915968.1024                   20915965.5474
 -18314762.96948 -14130745.71546  20615397.3674                   20615391.8914
 -11400503.88748  -7908934.27045  21973139.0554                   21973136.8054
 -10625263.82847  -8272437.68044  23770426.1334                   23770427.1684
 11  8  3  1 40 30.0000000  0  9G09G17G05G12G27G10G02G04G25
   2383239.88746   1951984.06643  24058233.8284                   24058235.5124
   -329251.71547     11956.81344  23438845.6724                   23438844.3364
 -17202778.32048 -13383875.27046  21711566.8204                   21711564.5204
 -20319757.09448 -15450001.72746  21210373.5944                   21210370.5394
  -1847657.23046   -239886.04744  24198975.4454                   24198976.5434
 -19038180.37148 -14801471.05946  20926151.0004                   20926148.1804
 -18265534.48048 -14092385.84046  20624764.7974                   20624759.7934
 -11277612.00848  -7813174.36345  21996524.2734                   21996522.4654
 -10676666.62547  -8312491.71944  23760643.5234                   23760644.7974
 11  8  3  1 41  0.0000000  0  9G09G17G05G12G27G10G02G04G25
   2509587.12946   2050436.34444  24082277.2734                   24082278.7664
   -227678.40247     91104.84044  23458174.3204                   23458172.4494
 -17242706.34448 -13414987.95746  21703969.0784                   21703966.2624
 -20324443.59848 -15453653.53146  21209481.8834                   21209478.9884
  -1738938.97346   -155170.68043  24219662.9384                   24219665.3914
 -18984021.59848 -14759269.39146  20936456.9924                   20936454.2664
 -18216018.83648 -14053802.20346  20634187.2424                   20634182.3874
 -11154596.78148  -7717318.35245  22019933.8054                   22019931.5084
 -10727823.56247  -8352354.19144  23750909.1094                   23750910.0554
 11  8  3  1 41 30.0000000  0  9G09G17G05G12G27G10G02G04G25
   2636043.37946   2148973.57444  24106341.7274                   24106342.5904
   -125919.02346    170397.85244  23477538.7194                   23477536.8914
 -17282255.85948 -13445805.69946  21696442.7894                   21696440.4224
 -20328627.68048 -15456913.82846  21208685.8674                   21208682.6954
  -1630192.95746    -70433.62143  24240356.9694                   24240359.2074
 -18929210.96548 -14716559.77746  20946886.9774                   20946884.4964
 -18166212.89848 -14014992.36746  20643665.1954                   20643660.2504
 -11031455.96948  -7621364.48045  22043366.9384                   22043364.6414
 -10778727.72747  -8392019.70744  23741222.4304                   23741223.8054
 11  8  3  1 42  0.0000000  0  9G09G17G05G12G27G10G02G04G25
   2762610.73047   2247597.39144  24130426.0004                   24130427.5204
    -23967.49247    249840.60944  23496939.6334                   23496937.4924
 -17321418.73848 -13476322.16046  21688990.2974                   21688987.7384
 -20332302.11348 -15459777.00046  21207986.3134                   21207982.9064
  -1521416.53146     14327.10543  24261056.5784                   24261058.9884
 -18873743.69948 -14673338.51746  20957442.0474                   20957439.1334
 -18116112.26648 -13975952.90246  20653199.1484                   20653193.6094
 -10908185.53948  -7525309.60945  22066823.8674                   22066821.9344
 -10829370.93447  -8431481.91444  23731585.5084                   23731586.1564
 11  8  3  1 42 30.0000000  0  9G09G17G05G12G27G10G02G04G25
   2889274.10546   2346296.00444  24154530.0084                   24154530.5704
     78164.46946    329423.95344  23516374.6644                   23516372.6884
 -17360204.12548 -13506544.48446  21681609.3204                   21681606.8874
 -20335476.80148 -15462250.75046  21207382.7344                   21207378.9454
  -1412624.21146     99100.20343  24281759.1024                   24281761.0354
 -18817631.77048 -14629614.91046  20968120.1174                   20968117.2774
 -18065730.20348 -13936694.14146  20662786.3054                   20662781.5044
 -10784799.46548  -7429164.62545  22090303.9144                   22090301.7894
 -10879762.52347  -8470748.02344  23721996.5554                   23721996.6644
 11  8  3  1 43  0.0000000  0  9G09G17G05G12G27G10G02G04G25
   3016028.02347   2445065.18844  24178650.3134                   24178651.2624
    180475.72747    409146.98844  23535844.2344                   23535842.2544
 -17398611.19948 -13536472.01646  21674300.8524                   21674298.1294
 -20338151.52048 -15464334.92246  21206873.5084                   21206869.7034
  -1303820.47346    183882.19543  24302464.3594                   24302466.3404
 -18760877.30548 -14585390.63346  20978919.7344                   20978916.8524
 -18015069.83248 -13897218.51246  20672426.3674                   20672421.4774
 -10661301.66448  -7332932.57845  22113804.4844                   22113802.4964
 -10929901.75447  -8509817.52744  23712455.2424                   23712455.6294
 11  8  3  1 43 30.0000000  0  9G09G17G05G12G27G10G02G04G25
   3142874.55947   2543906.55544  24202788.3914                   24202789.3914
    282971.85247    489014.08244  23555348.1804                   23555346.4964
 -17436631.62548 -13566098.25446  21667065.9924                   21667063.4534
 -20340318.68748 -15466023.60246  21206461.0164                   21206457.0744
  -1195002.59446    268675.24243  24323171.1484                   24323173.6374
 -18703475.00048 -14540661.55946  20989842.9064                   20989840.4184
 -17964126.64148 -13857522.49646  20682120.9924                   20682115.6374
 -10537688.10548  -7236610.32445  22137327.5474                   22137325.4384
 -10979780.26247  -8548683.89844  23702963.4304                   23702963.3444
 11  8  3  1 44  0.0000000  0  9G09G17G05G12G27G10G02G04G25
   3269808.41047   2642815.92244  24226943.2034                   24226944.0204
    385651.24646    569023.98844  23574887.3594                   23574885.2344
 -17474265.62948 -13595423.39146  21659904.1644                   21659901.4844
 -20341978.65248 -15467317.06246  21206145.1094                   21206141.5124
  -1086175.69946    353475.30143  24343881.3914                   24343882.7304
 -18645427.80548 -14495429.95746  21000889.6644                   21000886.2624
 -17912904.06248 -13817608.78146  20691868.0474                   20691863.1844
 -10413963.00048  -7140201.14845  22160871.9304                   22160869.3444
 -11029397.87947  -8587346.94144  23693521.5314                   23693521.7894
 11  8  3  1 44 30.0000000  0  9G09G17G05G12G27G10G02G04G25
   3396831.36747   2741794.75844  24251114.5704                   24251115.5044
    488519.08247    649180.73844  23594462.6174                   23594460.5594
 -17511504.73048 -13624440.81646  21652817.7814                   21652815.4384
 -20343124.81648 -15468210.14846  21205926.7034                   21205923.4774
   -977337.38746    438284.23443  24364591.6644                   24364594.7034
 -18586731.43448 -14449692.50846  21012058.5704                   21012055.7344
 -17861398.52748 -13777474.57446  20701669.1094                   20701664.1914
 -10290123.16848  -7043702.57445  22184437.2194                   22184435.5204
 -11078746.94947  -8625800.73044  23684130.8134                   23684130.4614
 11  8  3  1 45  0.0000000  0  9G09G17G05G12G27G10G02G04G25
   3523935.14846   2840836.57043  24275301.6254                   24275302.9734
    591570.80947    729480.76644  23614072.3914                   23614070.5984
 -17548351.41848 -13653152.46946  21645805.6414                   21645803.6644
 -20343759.78948 -15468704.89846  21205805.8364                   21205802.8094
   -868495.30946    523096.12143  24385303.4614                   24385306.6994
 -18527391.07848 -14403453.26246  21023350.7974                   21023347.5824
 -17809616.22748 -13737124.71546  20711523.2344                   20711517.7894
 -10166175.08247  -6947119.65645  22208023.5704                   22208022.1454
 -11127829.53547  -8664046.93744  23674790.7344                   23674790.8164
 11  8  3  1 45 30.0000000  0  9G09G17G05G12G27G10G02G04G25
   3651116.02346   2939938.44543  24299503.9064                   24299504.5164
    694806.32847    809924.01244  23633717.7814                   23633715.2624
 -17584803.80948 -13681556.85546  21638869.2504                   21638866.8244
 -20343882.50848 -15468800.49646  21205782.6564                   21205779.3524
   -759652.65646    607908.47343  24406016.2584                   24406018.1914
 -18467407.53948 -14356712.82446  21034765.1334                   21034762.3524
 -17757558.26648 -13696560.05146  20721429.4224                   20721424.0434
 -10042121.18747  -6850454.26645  22231630.5474                   22231628.5704
 -11176643.57047  -8702083.80944  23665501.5394                   23665502.3674
 11  8  3  1 46  0.0000000  0  9G09G17G05G12G27G10G02G04G25
   3778374.14546   3039100.51243  24323720.1414                   24323720.1914
    798229.86547    890513.81444  23653399.1564                   23653396.1644
 -17620855.59748 -13709649.10046  21632008.6094                   21632005.9614
 -20343487.63648 -15468492.78746  21205858.0554                   21205854.8914
   -650808.65246    692721.84043  24426728.6884                   24426731.1884
 -18406778.01848 -14309469.01446  21046302.7664                   21046299.5784
 -17705222.68848 -13655779.06946  20731388.3364                   20731383.4494
  -9917959.66347  -6753705.05245  22255257.8364                   22255255.3594
 -11225182.87547  -8739906.60744  23656265.0234                   23656265.6054
 11  8  3  1 46 30.0000000  0  9G09G17G05G12G27G10G02G04G25
   3905699.32846   3138314.82843  24347949.1724                   24347950.0394
    901834.59047    971244.76644  23673114.0554                   23673111.8014
 -17656511.01248 -13737432.50046  21625223.7734                   21625221.0044
 -20342579.48448 -15467785.09446  21206030.8054                   21206027.3874
   -541972.50845    777529.05142  24447439.6884                   24447442.1134
 -18345509.63348 -14261727.39846  21057961.6334                   21057958.9964
 -17652617.43048 -13614787.93446  20741398.9534                   20741393.5354
  -9793698.98047  -6656878.55945  22278904.2114                   22278902.0124
 -11273451.57447  -8777518.56244  23647079.1954                   23647079.6844
 11  8  3  1 47  0.0000000  0  9G09G17G05G12G27G10G02G04G25
   4033099.11546   3237587.27543  24372192.4844                   24372193.7704
   1005631.61747   1052125.58244  23692866.0704                   23692863.4774
 -17691756.47748 -13764896.43746  21618516.5234                   21618514.1414
 -20341146.36948 -15466668.35746  21206303.6954                   21206299.8634
   -433136.06646    862336.52342  24468150.2114                   24468152.9574
 -18283592.44948 -14213480.23446  21069744.2274                   21069741.1844
 -17599732.90548 -13573579.19746  20751462.4144                   20751457.0314
  -9669330.20747  -6559967.83245  22302570.3914                   22302568.3594
 -11321436.32047  -8814909.25444  23637948.3204                   23637948.8134
 11  8  3  1 47 30.0000000  0  9G09G17G05G12G27G10G02G04G25
   4160562.87946   3336909.59043  24396448.5704                   24396449.5084
   1109614.18047   1133150.94944  23712653.3984                   23712650.6884
 -17726597.10548 -13792044.92246  21611886.7814                   21611884.2854
 -20339193.28948 -15465146.44546  21206674.8914                   21206671.5474
   -324309.46546    947136.33642  24488859.7114                   24488862.7464
 -18221034.34848 -14164733.64846  21081648.9064                   21081646.0354
 -17546578.04748 -13532159.82046  20761577.3914                   20761572.7034
  -9544862.44547  -6462979.96945  22326256.1644                   22326253.8324
 -11369141.76647  -8852082.28544  23628870.5474                   23628871.4184
 11  8  3  1 48  0.0000000  0  9G09G17G05G12G27G10G02G04G25
   2712677.48846   2208687.10243  24120925.2584                   24120925.7234
   -361627.93047    -13271.47344  23432685.1804                   23432682.2734
 -19336445.27048 -15046472.01246  21305542.6254                   21305539.9224
 -21912132.00048 -16690812.94546  20907354.9384                   20907351.4614
  -1790905.70746   -195666.02043  24209775.3204                   24209778.7544
 -19733248.09048 -15343081.99246  20793883.6254                   20793881.0664
 -19068565.93448 -14718124.39546  20471952.8674                   20471947.9734
 -10995707.17647  -7593508.33645  22050169.4144                   22050167.1994
 -12991980.81647 -10116632.14544  23320053.7664                   23320054.7624
 11  8  3  1 48 30.0000000  0  9G09G17G05G12G27G10G02G04G25
   2840265.25446   2308106.00443  24145205.3754                   24145205.8164
   -257267.61747     68048.24644  23452544.0944                   23452541.9844
 -19370462.15648 -15072978.61346  21299069.4844                   21299066.7234
 -21909127.70348 -16688471.90646  20907925.9774                   20907922.7624
  -1682100.89846   -110883.16043  24230481.3674                   24230482.7854
 -19669404.49248 -15293333.71146  20806032.7974                   20806030.1294
 -19014867.54348 -14676281.48046  20482171.3754                   20482166.5234
 -10871040.73847  -7496365.65645  22073892.4304                   22073890.4224
 -13039113.93047 -10153359.18444  23311085.0554                   23311085.6684
 11  8  3  1 49  0.0000000  0  9G09G17G05G12G27G10G02G04G25
   2967908.21946   2407567.93043  24169494.3364                   24169495.2464
   -152719.72347    149514.15244  23472439.4774                   23472436.8874
 -19404065.44548 -15099162.94946  21292674.9694                   21292672.4884
 -21905596.98448 -16685720.67246  20908598.2584                   20908594.8094
  -1573312.96146    -26113.44543  24251183.1884                   24251184.0314
 -19604921.22748 -15243086.97346  20818303.3914                   20818301.1024
 -18960901.05548 -14634229.65246  20492440.7664                   20492435.6214
 -10746279.18147  -7399148.85545  22097633.2504                   22097631.6604
 -13085958.66447 -10189861.52344  23302170.2894                   23302171.5594
 11  8  3  1 49 30.0000000  0  9G09G17G05G12G27G10G02G04G25
   3095600.05546   2507067.98043  24193792.2814                   24193794.0394
    -47986.83247    231124.20744  23492369.0784                   23492366.7274
 -19437255.50048 -15125025.27746  21286359.1644                   21286356.4844
 -21901541.69948 -16682560.68746  20909369.8834                   20909366.6134
  -1464547.46946     58638.75443  24271880.3204                   24271882.0474
 -19539801.89548 -15192344.62946  20830695.2894                   20830692.3554
 -18906670.65248 -14591972.18446  20502760.7344                   20502755.6294
 -10621427.38747  -7301861.73445  22121392.6024                   22121390.2154
 -13132515.44947 -10226139.48044  23293311.1174                   23293311.8324
 11  8  3  1 50  0.0000000  0  9G09G17G05G12G27G10G02G04G25
   3223335.08846   2606601.65843  24218100.6724                   24218101.6844
     56928.96647    312876.78044  23512333.2664                   23512331.9104
 -19470032.08848 -15150565.42446  21280121.8834                   21280118.9804
 -21896961.92248 -16678992.00746  20910241.3284                   20910237.8754
  -1355809.38346    143369.62943  24292572.3134                   24292574.2664
 -19474049.53148 -15141108.98946  20843207.6884                   20843204.7894
 -18852180.17248 -14549512.06146  20513129.7034                   20513124.7814
 -10496489.35647  -7204507.43445  22145167.6174                   22145165.1174
 -13178783.93447 -10262192.79144  23284506.3364                   23284506.9734
 11  8  3  1 50 30.0000000  0  9G09G17G05G12G27G10G02G04G25
   3351111.09846   2706167.28143  24242415.7034                   24242417.3094
    162028.48847    394772.50044  23532333.9534                   23532331.1954
 -19502392.01248 -15175780.91046  21273963.7194                   21273961.5434
 -21891855.42248 -16675012.89846  20911212.9844                   20911209.4844
  -1247101.05146    228077.30943  24313258.8834                   24313260.9734
 -19407664.36748 -15089380.27346  20855840.1334                   20855837.4654
 -18797429.80948 -14506849.43446  20523548.1884                   20523543.1054
 -10371466.08247  -7107086.72345  22168958.2974                   22168956.7074
 -13224760.78947 -10298018.84444  23275757.5554                   23275758.0634
 11  8  3  1 51  0.0000000  0  9G09G17G05G12G27G10G02G04G25
   3478926.61746   2805763.68043  24266737.5164                   24266739.3984
    267314.12947    476813.26244  23552368.5314                   23552366.5164
 -19534330.64148 -15200668.09846  21267886.4224                   21267883.6724
 -21886218.34448 -16670620.35246  20912285.4614                   20912282.2464
  -1138422.65646    312761.65243  24333939.6024                   24333941.9964
 -19340645.31648 -15037157.60946  20868593.5234                   20868590.8594
 -18742419.03148 -14463983.89546  20534016.6174                   20534011.4694
 -10246357.19147  -7009599.29345  22192765.6484                   22192764.3244
 -13270441.34847 -10333614.02344  23267064.6174                   23267065.3634
 11  8  3  1 51 30.0000000  0  9G09G17G05G12G27G10G02G04G25
   3606779.96546   2905389.56643  24291068.0234                   24291068.9384
    372787.82047    559000.54344  23572439.5634                   23572437.5394
 -19565844.12948 -15225224.00446  21261889.4304                   21261886.7154
 -21880047.34048 -16665811.75846  20913459.9224                   20913456.3484
  -1029775.33646    397421.77043  24354613.6724                   24354617.1804
 -19272991.32447 -14984440.18746  20881467.6254                   20881464.6134
 -18687147.19548 -14420914.92246  20544534.4454                   20544529.3014
 -10121162.90247  -6912045.31345  22216589.7814                   22216587.4344
 -13315821.39547 -10368975.03944  23258428.9774                   23258430.1454
 11  8  3  1 52  0.0000000  0  9G09G17G05G12G27G10G02G04G25
   3734668.77047   3005043.05543  24315404.3674                   24315405.7304
    478450.62947    641335.19944  23592546.5634                   23592544.8914
 -19596929.23848 -15249446.11346  21255973.9694                   21255971.1994
 -21873340.41848 -16660585.56646  20914736.1174                   20914732.5474
   -921161.16046    482056.02743  24375283.8834                   24375286.0864
 -19204702.90248 -14931228.41046  20894462.1724                   20894459.3954
 -18631614.79748 -14377642.91846  20555101.9064                   20555097.1524
  -9995884.01647  -6814425.40645  22240429.5944                   22240426.9694
 -13360897.69947 -10404099.34845  23249851.4614                   23249852.0204
 11  8  3  1 52 30.0000000  0  9G09G17G05G12G27G10G02G04G25
   3862586.10946   3104718.82043  24339746.2504                   24339747.8984
    584299.05547    723814.50044  23612689.7814                   23612686.8954
 -19627587.19948 -15273335.38746  21250140.0634                   21250137.4224
 -21866099.64548 -16654943.38746  20916114.0864                   20916110.8324
   -812586.25846    566659.74243  24395944.9304                   24395947.8874
 -19135784.38348 -14877525.65246  20907577.0864                   20907574.1294
 -18575826.91048 -14334171.82446  20565718.0704                   20565712.9654
  -9870525.75847  -6716743.64845  22264284.4064                   22264281.6954
 -13405671.23447 -10438987.75844  23241331.3914                   23241330.9774
 11  8  3  1 53  0.0000000  0  9G09G17G05G12G27G10G02G04G25
   3990527.57846   3204413.37943  24364093.0704                   24364094.1954
    690332.05546    806437.60544  23632866.7274                   23632864.1024
 -19657816.86748 -15296890.91846  21244387.5084                   21244384.0124
 -21858324.64548 -16648884.93446  20917593.3204                   20917590.1374
   -704054.70746    651229.68043  24416597.8364                   24416600.2974
 -19066237.96148 -14823333.62146  20920811.4534                   20920808.4734
 -18519786.07048 -14290503.61746  20576382.1254                   20576377.2424
  -9745091.37147  -6619002.54745  22288153.6804                   22288151.1684
 -13450140.73047 -10473639.23844  23232869.1414                   23232869.4614
 11  8  3  1 53 30.0000000  0  8G09G17G05G12G10G02G04G25
   4118495.78547   3304128.76643  24388444.0944                   24388445.8484
    796556.02746    889209.51244  23653080.6254                   23653078.1604
 -19687609.69948 -15320106.07046  21238717.9774                   21238714.6954
 -21850007.53948 -16642404.05946  20919176.0864                   20919172.8914
 -18996058.83248 -14768648.56246  20934166.1334                   20934163.0634
 -18463487.73848 -14246634.77746  20587095.0474                   20587089.9024
  -9619576.37947  -6521198.66845  22312038.4304                   22312036.5204
 -13494297.51647 -10508047.03944  23224465.6644                   23224466.1914
 11  8  3  1 54  0.0000000  0  8G09G17G05G12G10G02G04G25
   4246486.57446   3403861.74243  24412800.2734                   24412802.6954
    902970.34846    972129.78144  23673330.0394                   23673327.7734
 -19716964.42648 -15342979.82446  21233131.9614                   21233129.2234
 -21841147.79348 -16635500.35546  20920862.1884                   20920858.9884
 -18925248.91448 -14713471.98846  20947640.7664                   20947637.9924
 -18406933.71148 -14202566.69146  20597857.1484                   20597852.2114
  -9493983.17247  -6423333.83245  22335938.0164                   22335936.0554
 -13538139.82447 -10542209.78944  23216123.2734                   23216123.0864
 11  8  3  1 54 30.0000000  0  8G09G17G05G12G10G02G04G25
   4374498.60546   3503611.27044  24437160.1254                   24437162.1054
   1009576.93746   1055199.85244  23693616.7664                   23693614.5394
 -19745876.68048 -15365508.80146  21227630.2344                   21227627.3324
 -21831742.28548 -16628171.37146  20922651.5634                   20922648.6524
 -18853807.65647 -14657803.46546  20961235.6414                   20961232.3014
 -18350123.52348 -14158298.99646  20608668.2194                   20608662.7624
  -9368311.58247  -6325407.94545  22359852.3914                   22359850.0984
 -13581663.35947 -10576124.17244  23207841.0784                   23207840.8134
 11  8  3  1 55  0.0000000  0  8G09G17G05G12G10G02G04G25
   4502528.50247   3603374.70243  24461523.5314                   24461525.9844
   1116375.99246   1138419.87944  23713939.8364                   23713938.1684
 -19774344.13348 -15387691.19146  21222212.9144                   21222209.8794
 -21821789.53248 -16620415.95946  20924545.9534                   20924542.6724
 -18781736.11447 -14601643.81446  20974950.6954                   20974947.4104
 -18293058.43048 -14113832.67446  20619526.8444                   20619521.9534
  -9242563.30347  -6227422.28845  22383781.3674                   22383779.1174
 -13624865.57047 -10609788.16044  23199619.9384                   23199619.2504
 11  8  3  1 55 30.0000000  0  8G09G17G05G12G10G02G04G25
   4630575.50046   3703151.48444  24485890.8914                   24485892.5984
   1223370.48846   1221792.23444  23734299.7814                   23734298.0784
 -19802362.07448 -15409523.30546  21216881.3054                   21216878.4774
 -21811285.31248 -16612230.84046  20926544.8674                   20926541.3364
 -18709032.64547 -14544991.74246  20988785.2814                   20988782.8014
 -18235737.49248 -14069166.99246  20630434.8204                   20630429.7274
  -9116737.55147  -6129376.24645  22407725.3524                   22407723.2894
 -13667741.23847 -10643197.71144  23191460.7424                   23191460.8554
 11  8  3  1 56  0.0000000  0  8G09G17G05G12G10G02G04G25
   4758630.99247   3802934.86743  24510259.0864                   24510261.1024
   1330554.80946   1305312.47744  23754696.9844                   23754694.7464
 -19829933.54348 -15431007.50846  21211634.0944                   21211631.5044
 -21800233.96548 -16603619.39546  20928647.9304                   20928644.0984
 -18635703.94147 -14487852.48446  21002739.4844                   21002736.6334
 -18178167.06648 -14024306.91046  20641389.9224                   20641384.5314
  -8990841.19547  -6031275.20345  22431682.7194                   22431680.2704
 -13710293.26247 -10676355.08244  23183363.2584                   23183363.8484
 11  8  3  1 56 30.0000000  0  8G09G17G05G12G10G02G04G25
   4886694.43046   3902724.42643  24534628.8984                   24534630.5704
   1437931.83647   1388982.88344  23775130.4454                   23775127.8954
 -19857053.82448 -15452140.13746  21206473.7734                   21206471.0084
 -21788631.35548 -16594578.39546  20930855.6724                   20930852.6414
 -18561748.46548 -14430224.83246  21016812.2814                   21016809.6644
 -18120345.97348 -13979251.49646  20652393.2664                   20652388.0124
  -8864873.52347  -5933118.57445  22455653.2584                   22455651.2304
 -13752516.66447 -10709256.37144  23175328.0474                   23175328.8284
 11  8  3  1 57  0.0000000  0  8G09G17G05G12G10G02G04G25
   5014763.75846   4002518.59443  24558999.2734                   24559000.8404
   1545502.91846   1472804.50044  23795600.3524                   23795597.7074
 -19883719.23448 -15472918.32846  21201399.2424                   21201396.4774
 -21776474.87948 -16585105.78946  20933169.2194                   20933165.7344
 -18487166.68748 -14372109.13746  21031004.6804                   21031002.0664
 -18062274.33648 -13934000.86346  20663443.9224                   20663438.4844
  -8738834.93847  -5834906.66844  22479637.9694                   22479635.1764
 -13794407.72747 -10741898.70744  23167356.6484                   23167356.7814
 11  8  3  1 57 30.0000000  0  8G09G17G05G12G10G02G04G25
   5142825.46946   4102306.81243  24583369.3754                   24583370.6844
   1653257.93446   1556769.46144  23816105.2424                   23816103.3284
 -19909937.77348 -15493348.31246  21196410.3444                   21196407.0944
 -21763773.26248 -16575208.42246  20935586.1254                   20935582.3754
 -18411969.77047 -14313514.12146  21045314.6254                   21045311.4104
 -18003963.56648 -13888563.87946  20674539.9144                   20674534.5044
  -8612736.98847  -5736648.52044  22503634.0004                   22503631.4804
 -13835973.88747 -10774287.87944  23159446.9614                   23159447.1374
 11  8  3  1 58  0.0000000  0  8G09G17G05G12G10G02G04G25
   5270886.16846   4202094.21543  24607737.3754                   24607740.0944
   1761206.88746   1640885.51244  23836646.6564                   23836645.2664
 -19935697.61748 -15513420.87546  21191508.1804                   21191505.3524
 -21750515.57448 -16564877.74246  20938108.9224                   20938105.3204
 -18336149.19547 -14254433.13346  21059742.2274                   21059739.9614
 -17945405.42648 -13842934.14546  20685683.0864                   20685677.8444
  -8486571.78147  -5638337.95745  22527641.8054                   22527639.8164
 -13877202.98047 -10806414.40245  23151601.5314                   23151601.2114
 11  8  3  1 58 30.0000000  0  8G09G17G05G12G10G02G04G25
   5398938.66046   4301875.26243  24632105.4774                   24632107.1254
   1869345.96546   1725149.73844  23857224.7194                   23857223.5004
 -19961000.42648 -15533137.30546  21186693.0554                   21186690.0784
 -21736704.56248 -16554115.90646  20940737.5004                   20940733.2624
 -18259710.54347 -14194870.53946  21074288.2734                   21074285.3834
 -17886604.78948 -13797115.45346  20696872.2194                   20696867.1604
  -8360344.78147  -5539979.28145  22551662.0474                   22551660.4264
 -13918096.47747 -10838279.43045  23143819.6414                   23143819.3204
 11  8  3  1 59  0.0000000  0  8G09G17G05G12G10G02G04G25
   5526980.91446   4401648.32042  24656471.5784                   24656472.8164
   1977676.17246   1809562.83244  23877840.1024                   23877838.3054
 -19985843.12548 -15552495.20746  21181965.9064                   21181962.6994
 -21722337.85548 -16542921.05546  20943470.9304                   20943467.2774
 -18182654.31248 -14134826.70746  21088951.4064                   21088948.7234
 -17827562.19548 -13751108.23046  20708107.7734                   20708102.6294
  -8234056.69147  -5441572.98045  22575694.1024                   22575692.7734
 -13958650.82847 -10869880.18745  23136102.0554                   23136102.1484
 11  8  3  1 59 30.0000000  0  8G09G17G05G12G10G02G04G25
   5655003.43746   4501406.00442  24680833.5864                   24680834.9304
   2086191.73446   1894120.41044  23898489.9614                   23898487.7584
 -20010229.39548 -15571497.44146  21177325.2974                   21177322.4344
 -21707419.86748 -16531296.63346  20946309.8054                   20946306.4104
 -18104987.73948 -14074307.30746  21103731.2344                   21103728.3954
 -17768285.11748 -13704918.28946  20719387.8594                   20719382.6604
  -8107715.16947  -5343125.05145  22599735.5554                   22599733.7854
 -13998869.63347 -10901219.47345  23128448.8444                   23128448.4804
 11  8  3  2  0  0.0000000  0  8G09G17G05G12G10G02G04G25
   5783010.75846   4601151.87943  24705192.5004                   24705194.1644
   2194900.22746   1978828.29344  23919175.7034                   23919174.3284
 -20034149.62148 -15590136.53546  21172773.2894                   21172770.2304
 -21691942.37148 -16519236.23446  20949255.0394                   20949251.7464
 -18026704.50447 -14013307.37546  21118627.9694                   21118625.6254
 -17708767.03148 -13658540.53946  20730714.0474                   20730708.7734
  -7981314.12147  -5244630.73444  22623789.4384                   22623787.5514
 -14038742.63747 -10932289.30945  23120861.5004                   23120860.9694
 11  8  3  2  0 30.0000000  0  8G09G17G05G12G10G02G04G25
   5910998.62546   4700882.61343  24729548.0164                   24729549.5744
   2303801.05546   2063686.04744  23939899.5784                   23939897.4264
 -20057602.42248 -15608411.39846  21168310.0004                   21168307.5234
 -21675904.75048 -16506739.37546  20952307.0164                   20952303.6294
 -17947806.84448 -13951828.66446  21133641.5704                   21133638.7504
 -17649010.26248 -13611976.81246  20742085.0234                   20742080.3874
  -7854855.93347  -5146091.86544  22647853.5394                   22647851.3244
 -14078268.31347 -10963088.49645  23113339.8054                   23113339.8634
 11  8  3  2  1  0.0000000  0  8G09G17G05G12G10G02G04G25
   6038961.34846   4800593.66043  24753898.1414                   24753900.7504
   2412891.39546   2148691.50044  23960659.2814                   23960656.5514
 -20080588.55548 -15626322.61746  21163936.1334                   21163933.4384
 -21659308.71948 -16493807.39146  20955465.1954                   20955461.3834
 -17868299.18048 -13889874.63746  21148771.7114                   21148768.8284
 -17589018.91848 -13565230.29746  20753501.1724                   20753496.0274
  -7728344.70747  -5047511.68444  22671927.7584                   22671925.9654
 -14117446.88747 -10993617.22345  23105884.2114                   23105884.3284
 11  8  3  2  1 30.0000000  0  8G09G17G05G12G10G02G04G25
   6166889.18446   4900277.63743  24778241.6174                   24778244.3444
   2522164.70346   2233839.52344  23981452.4614                   23981450.6054
 -20103112.52748 -15643873.72746  21159649.6414                   21159646.8954
 -21642159.37948 -16480444.25446  20958728.5474                   20958724.7894
 -17788189.51647 -13827451.50446  21164015.9224                   21164012.8524
 -17528800.53548 -13518306.87146  20764960.0554                   20764955.0944
  -7601788.91447  -4948896.75844  22696010.4534                   22696008.8634
 -14156282.40647 -11023878.62545  23098493.9224                   23098494.7934
 11  8  3  2  2  0.0000000  0  8G09G17G05G12G10G02G04G25
   6294795.11746   4999944.47743  24802582.2114                   24802583.4534
   2631637.81646   2319143.22344  24002285.1024                   24002283.1414
 -20125155.50848 -15661050.03146  21155455.3914                   21155452.3914
 -21624439.36348 -16466636.43446  20962100.6094                   20962096.9414
 -17707462.91848 -13764547.65646  21179377.9064                   21179374.8244
 -17468340.24248 -13471194.93746  20776465.5004                   20776460.2424
  -7475173.60947  -4850235.48044  22720104.5784                   22720102.5514
 -14194756.06647 -11053858.03545  23091172.6254                   23091173.2704
 11  8  3  2  2 30.0000000  0  8G09G17G05G12G10G02G04G25
   6422659.51247   5099578.96143  24826914.1954                   24826915.6994
   2741293.68446   2404589.33644  24023150.9924                   24023149.4924
 -20146732.52748 -15677863.25446  21151349.2734                   21151346.1804
 -21606163.90648 -16452395.80946  20965578.1094                   20965574.4844
 -17626137.85548 -13701177.47346  21194853.5084                   21194850.6024
 -17407656.19948 -13423908.66046  20788013.1024                   20788007.5474
  -7348516.91847  -4751541.95344  22744206.7034                   22744204.1374
 -14232882.01247 -11083566.52745  23083917.2274                   23083917.3054
 11  8  3  2  3  0.0000000  0  8G09G17G05G12G10G02G04G25
   6550489.45746   5199186.58243  24851239.2894                   24851241.2934
   2851142.64846   2490185.92644  24044055.1954                   24044053.0984
 -20167831.22748 -15694303.75446  21147334.4304                   21147331.1294
 -21587322.07048 -16437713.84446  20969163.2424                   20969160.0234
 -17544205.35248 -13637333.96546  21210444.3674                   21210441.5864
 -17346739.25048 -13376440.90246  20799605.1414                   20799599.9804
  -7221810.27747  -4652809.50045  22768318.2584                   22768316.0984
 -14270647.62947 -11112994.21945  23076730.4224                   23076731.1604
 11  8  3  2  3 30.0000000  0  8G09G17G05G12G10G02G04G25
   6678271.78946   5298757.13743  24875555.7974                   24875557.8094
   2961175.15247   2575925.54744  24064993.9144                   24064992.1994
 -20188459.18448 -15710377.44546  21143409.0554                   21143405.8914
 -21567922.46148 -16422597.25446  20972854.9304                   20972851.2974
 -17461676.58348 -13573025.83446  21226148.9454                   21226146.3364
 -17285600.57848 -13328800.36346  20811239.6484                   20811234.3834
  -7095065.01247  -4554046.96145  22792437.1804                   22792434.7934
 -14308060.16447 -11142146.79345  23069611.4454                   23069611.4884
 11  8  3  2  4  0.0000000  0  8G09G17G05G12G10G02G04G25
   6806007.03546   5398290.98444  24899862.8834                   24899864.5274
   3071394.99246   2661811.09844  24085967.7114                   24085965.5004
 -20208610.80148 -15726079.96546  21139574.1564                   21139571.3674
 -21547960.66848 -16407042.59446  20976653.8134                   20976650.2734
 -17378549.86747 -13508251.75046  21241967.9224                   21241964.5944
 -17224237.93048 -13280985.29746  20822916.5864                   20822911.4144
  -6968278.92247  -4455252.61745  22816563.6484                   22816561.3324
 -14345113.57847 -11171019.53945  23062560.3054                   23062560.0164
 11  8  3  2  4 30.0000000  0  8G09G17G05G12G10G02G04G25
   6933703.86747   5497794.92643  24924162.7664                   24924165.2344
   3181813.55946   2747851.53144  24106979.6644                   24106977.8754
 -20228272.52748 -15741400.75046  21135832.3524                   21135829.1994
 -21527423.80548 -16391039.83646  20980561.5164                   20980558.1094
 -17294815.42248 -13443004.12546  21257901.6414                   21257898.9694
 -17162640.81248 -13232987.52046  20834638.0004                   20834632.6764
  -6841441.88347  -4356418.55944  22840699.6564                   22840697.9654
 -14381793.82447 -11199601.50445  23055580.6414                   23055580.0554
 11  8  3  2  5  0.0000000  0  8G09G17G05G12G10G02G04G25
   7061352.14147   5597260.99643  24948454.0394                   24948455.9224
   3292423.62947   2834041.19144  24128028.2504                   24128025.8524
 -20247449.59048 -15756343.86746  21132183.2894                   21132180.3874
 -21506317.87948 -16374593.64546  20984578.2664                   20984574.4654
 -17210481.90248 -13377289.68446  21273950.0314                   21273947.0514
 -17100817.85248 -13184813.76646  20846402.4454                   20846397.1454
  -6714562.69947  -4257551.63744  22864843.8674                   22864842.1454
 -14418105.66847 -11227896.37945  23048670.1094                   23048670.6724
 11  8  3  2  5 30.0000000  0  8G09G17G05G12G10G02G04G25
   5613527.81647   4469086.09843  24672942.5234                   24672944.5864
   1827804.32447   1692779.41444  23849320.4534                   23849318.3914
 -21841565.51248 -16998512.07846  20828832.7814                   20828829.9224
 -23060065.79748 -17585306.29746  20688909.9454                   20688906.3014
 -18700972.88747 -14538711.23046  20990319.1094                   20990316.3404
 -18614193.02748 -14364067.13346  20558416.6644                   20558411.4304
  -8163063.22347  -5386253.35544  22589203.6884                   22589201.5314
 -16029472.56647 -12483506.89845  22742037.2814                   22742037.8164
 11  8  3  2  6  0.0000000  0  8G09G17G05G12G10G02G04G25
   5741064.08646   4568464.88343  24697211.4694                   24697213.8594
   1938793.01147   1779264.08844  23870440.5944                   23870438.9804
 -21859772.28948 -17012699.13746  20825368.2504                   20825365.3284
 -23037823.91048 -17567974.94546  20693142.1954                   20693138.5514
 -18615451.09848 -14472070.86746  21006592.9774                   21006590.1914
 -18551926.88548 -14315548.04346  20570265.7424                   20570260.3634
  -8036108.67247  -5287327.69944  22613362.2974                   22613360.2814
 -16065044.96147 -12511225.58645  22735267.7664                   22735267.9734
 11  8  3  2  6 30.0000000  0  8G09G17G05G12G10G02G04G25
   5868544.93446   4667800.48443  24721469.2664                   24721472.9534
   2049975.92246   1865900.12944  23891598.6254                   23891596.1804
 -21877485.76248 -17026501.80546  20821997.5704                   20821994.5474
 -23015007.63348 -17550196.01246  20697483.9844                   20697480.5944
 -18529333.06248 -14404965.89846  21022980.9534                   21022977.7774
 -18489436.45748 -14266854.18046  20582157.3834                   20582151.9884
  -7909113.58647  -5188370.47744  22637528.7974                   22637526.2894
 -16100238.91847 -12538649.38745  22728570.9844                   22728571.5634
 11  8  3  2  7  0.0000000  0  7G17G05G12G10G02G04G25
   2161345.89546   1952681.91444  23912791.0864                   23912788.8164
 -21894711.64148 -17039924.52346  20818719.5004                   20818716.7424
 -22991623.45348 -17531974.55946  20701933.8054                   20701930.3244
 -18442627.44947 -14337403.06646  21039480.4774                   21039477.8094
 -18426730.15648 -14217992.11746  20594089.8054                   20594084.5314
  -7782086.63747  -5089388.44944  22661700.6334                   22661698.7814
 -16135059.37147 -12565782.15645  22721945.0164                   22721944.9414
 11  8  3  2  7 30.0000000  0  7G17G05G12G10G02G04G25
   2272906.01246   2039611.85544  23934020.4924                   23934018.0234
 -21911444.48048 -17052963.05946  20815535.1804                   20815532.3674
 -22967666.91048 -17513307.10946  20706492.8284                   20706489.0084
 -18355333.01647 -14269381.43046  21056092.0634                   21056089.1644
 -18363805.80148 -14168960.14546  20606063.9144                   20606058.8094
  -7655026.39147  -4990380.49644  22685879.8754                   22685878.1684
 -16169500.84447 -12592619.62545  22715390.7034                   22715390.3204
 11  8  3  2  8  0.0000000  0  7G17G05G12G10G02G04G25
   2384663.47747   2126695.58243  23955287.5234                   23955284.3714
 -21927675.61748 -17065610.65646  20812446.5234                   20812443.7234
 -22943129.82048 -17494187.28946  20711161.8364                   20711158.4024
 -18267444.32848 -14200896.74246  21072816.9774                   21072813.9304
 -18300657.54748 -14119753.69946  20618080.6024                   20618075.2234
  -7527926.92647  -4891341.94244  22710065.7974                   22710063.4774
 -16203553.62947 -12619154.20345  22708910.2664                   22708910.8444
 11  8  3  2  8 30.0000000  0  7G17G05G12G10G02G04G25
   2496611.52746   2213927.82443  23976589.7814                   23976587.8484
 -21943410.05148 -17077871.21146  20809452.6644                   20809449.4104
 -22918019.20348 -17474620.56646  20715940.1724                   20715936.8594
 -18178970.29748 -14131955.91846  21089652.8204                   21089649.5784
 -18237293.69148 -14070379.25046  20630138.2664                   20630133.0474
  -7400796.54347  -4792279.28544  22734258.3754                   22734256.1914
 -16237222.30147 -12645389.47745  22702503.4064                   22702503.3284
 11  8  3  2  9  0.0000000  0  7G17G05G12G10G02G04G25
   2608763.39146   2301318.91443  23997932.6484                   23997929.2544
 -21958632.67248 -17089732.94946  20806555.5084                   20806552.2774
 -22892320.34048 -17454595.46546  20720830.3914                   20720826.8524
 -18089899.22748 -14062549.86346  21106602.8594                   21106599.6454
 -18173702.47348 -14020827.64546  20642239.3364                   20642233.9884
  -7273623.53147  -4693183.43844  22758458.9774                   22758456.3444
 -16270491.23847 -12671313.25845  22696172.7424                   22696172.3244
 11  8  3  2  9 30.0000000  0  7G17G05G12G10G02G04G25
   2721108.03547   2388860.21543  24019310.6644                   24019308.2304
 -21973351.99248 -17101202.51246  20803754.8284                   20803751.3754
 -22866042.85248 -17434119.48446  20725830.6174                   20725827.2464
 -18000243.57847 -13992688.30946  21123663.2424                   21123660.5124
 -18109895.25448 -13971107.72746  20654381.2664                   20654376.4414
  -7146419.52747  -4594063.41844  22782664.1024                   22782662.0204
 -16303368.46547 -12696931.81345  22689916.4224                   22689916.1134
 11  8  3  2 10  0.0000000  0  7G17G05G12G10G02G04G25
   2833642.46146   2476549.37943  24040724.1094                   24040722.6214
 -21987569.57048 -17112281.10546  20801049.1254                   20801045.9264
 -22839189.47348 -17413194.75446  20730940.8914                   20730937.4264
 -17910008.72747 -13922375.41446  21140834.6724                   21140831.3364
 -18045876.54348 -13921223.00846  20666564.0084                   20666559.0474
  -7019189.19547  -4494922.89144  22806875.3594                   22806873.8984
 -16335854.80147 -12722245.78945  22683734.6254                   22683734.1254
 11  8  3  2 10 30.0000000  0  7G17G05G12G10G02G04G25
   2946373.54747   2564391.76244  24062177.0944                   24062174.5044
 -22001276.69548 -17122961.93746  20798440.7734                   20798437.6094
 -22811752.55148 -17391815.31246  20736162.1564                   20736158.4844
 -17819189.58647 -13851607.23045  21158116.7114                   21158113.6564
 -17981641.42248 -13871169.65646  20678787.5704                   20678782.0594
  -6891927.26647  -4395757.75844  22831092.2344                   22831090.1524
 -16367941.10947 -12747248.04745  22677628.4614                   22677628.2234
 11  8  3  2 11  0.0000000  0  7G17G05G12G10G02G04G25
   3059295.27047   2652382.73043  24083664.8834                   24083662.6724
 -22014477.48448 -17133248.22746  20795928.5164                   20795925.8834
 -22783737.02348 -17369985.02046  20741493.2274                   20741489.5204
 -17727793.96548 -13780389.85946  21175508.6414                   21175505.5634
 -17917196.62148 -13820952.92246  20691050.7894                   20691045.5984
  -6764640.74647  -4296573.44944  22855314.5234                   22855312.1564
 -16399630.88747 -12771941.31645  22671598.3134                   22671597.7934
 11  8  3  2 11 30.0000000  0  7G17G05G12G10G02G04G25
   3172404.49247   2740519.77343  24105189.1484                   24105187.0234
 -22027173.54348 -17143141.21946  20793512.6334                   20793509.4734
 -22755145.66448 -17347706.01246  20746933.9924                   20746930.3754
 -17635827.43047 -13708727.59846  21193009.3834                   21193006.1994
 -17852546.48048 -13770576.17246  20703353.5554                   20703348.2504
  -6637334.52047  -4197373.78944  22879540.9614                   22879538.1024
 -16430925.05147 -12796326.30545  22665642.6954                   22665642.8954
 11  8  3  2 12  0.0000000  0  7G17G05G12G10G02G04G25
   3285712.00446   2828811.31243  24126750.5634                   24126749.3134
 -22039351.96548 -17152630.85546  20791195.3914                   20791191.8674
 -22725966.24648 -17324968.78146  20752486.7194                   20752482.8674
 -17543280.28948 -13636612.93446  21210620.3834                   21210617.4574
 -17787681.31248 -13720031.87946  20715696.7584                   20715691.8754
  -6509998.34847  -4098150.79744  22903771.4384                   22903769.4884
 -16461810.01247 -12820392.44545  22659765.5164                   22659765.3914
 11  8  3  2 12 30.0000000  0  7G17G05G12G10G02G04G25
   3399213.75046   2917254.26243  24148350.0704                   24148347.3134
 -22051014.99248 -17161718.89146  20788975.6414                   20788972.4694
 -22696202.30148 -17301776.08246  20758150.3444                   20758146.7464
 -17450159.11347 -13564050.96146  21228340.7504                   21228337.6214
 -17722606.43748 -13669324.17646  20728080.2504                   20728074.9734
  -6382638.15247  -3998909.08644  22928007.5164                   22928005.3134
 -16492287.59447 -12844141.12545  22653965.8674                   22653966.1054
 11  8  3  2 13  0.0000000  0  7G17G05G12G10G02G04G25
   3512905.15646   3005844.96143  24169984.1954                   24169982.7114
 -22062165.85248 -17170407.82446  20786853.7274                   20786850.9884
 -22665858.32848 -17278131.39846  20763924.8204                   20763921.2974
 -17356470.12148 -13491046.52346  21246169.2974                   21246166.5354
 -17657327.73848 -13618457.65246  20740501.9534                   20740496.5944
  -6255259.62147  -3899653.09044  22952246.6094                   22952244.9804
 -16522360.03148 -12867574.13745  22648243.0004                   22648243.4884
 11  8  3  2 13 30.0000000  0  7G17G05G12G10G02G04G25
   3626787.08246   3094584.15243  24191654.4384                   24191653.3754
 -22072801.89848 -17178695.61346  20784829.9694                   20784826.4344
 -22634932.12948 -17254033.04346  20769809.9534                   20769805.8054
 -17262214.72348 -13417600.74246  21264105.3134                   21264102.5044
 -17591844.81248 -13567431.98846  20752963.0004                   20752957.5744
  -6127862.89547  -3800382.89144  22976488.8594                   22976487.0554
 -16552023.97748 -12890688.81345  22642598.5394                   22642598.5554
 11  8  3  2 14  0.0000000  0  7G17G05G12G10G02G04G25
   3740864.42247   3183475.56643  24213363.9534                   24213361.5234
 -22082916.29748 -17186576.92646  20782904.6954                   20782901.2704
 -22603418.84048 -17229477.21546  20775806.5084                   20775802.9534
 -17167389.82448 -13343711.18446  21282149.6564                   21282146.8324
 -17526155.18748 -13516245.26646  20765463.3444                   20765458.0514
  -6000444.68047  -3701095.95744  23000736.2424                   23000733.6604
 -16581272.31348 -12913479.66445  22637032.5314                   22637032.6254
 11  8  3  2 14 30.0000000  0  7G17G05G12G10G02G04G25
   3855125.41846   3272510.09843  24235107.2664                   24235104.3914
 -22092518.78548 -17194059.34846  20781077.6644                   20781074.5594
 -22571328.80948 -17204471.97746  20781912.4304                   20781909.4884
 -17072008.86748 -13269388.35945  21300299.9534                   21300297.2114
 -17460271.28548 -13464907.14546  20778000.5634                   20777995.6374
  -5873017.46547  -3601802.00844  23024984.9384                   23024982.5824
 -16610114.10548 -12935953.73045  22631544.4144                   22631543.9064
 11  8  3  2 15  0.0000000  0  7G17G05G12G10G02G04G25
   3969579.06646   3361694.76244  24256886.7424                   24256884.5904
 -22101599.03148 -17201134.81646  20779349.5394                   20779346.7074
 -22538652.44148 -17179009.85546  20788131.3284                   20788127.8244
 -16976065.24648 -13194627.07846  21318557.7274                   21318555.0394
 -17394184.96548 -13413411.31346  20790576.2274                   20790571.5474
  -5745573.54347  -3502495.05144  23049236.8834                   23049234.5904
 -16638538.03147 -12958102.18445  22626134.9924                   22626134.7934
 11  8  3  2 15 30.0000000  0  7G17G05G12G10G02G04G25
   4084223.14546   3451027.79743  24278703.0394                   24278701.0314
 -22110157.42248 -17207803.65646  20777721.2894                   20777718.1334
 -22505391.39848 -17153092.13746  20794460.7504                   20794456.8834
 -16879563.04348 -13119430.54745  21336921.5234                   21336918.8094
 -17327899.44148 -13361760.23846  20803190.1644                   20803184.8014
  -5618116.55947  -3403177.92244  23073490.9774                   23073489.2114
 -16666543.98047 -12979924.93845  22620805.4534                   22620805.3914
 11  8  3  2 16  0.0000000  0  7G17G05G12G10G02G04G25
   4199055.19146   3540507.30143  24300554.1954                   24300552.4924
 -22118194.91448 -17214066.60546  20776191.7274                   20776188.4694
 -22471547.97748 -17126720.61746  20800900.5784                   20800897.3554
 -16782506.91848 -13043802.40246  21355390.6484                   21355387.6214
 -17261418.61348 -13309956.97746  20815840.9304                   20815835.5634
  -5490649.93447  -3303853.28144  23097746.4844                   23097744.6484
 -16694132.07047 -13001422.09445  22615555.7664                   22615555.7774
 11  8  3  2 16 30.0000000  0  8G17G05G29G12G10G02G04G25
   4314074.46946   3630132.74643  24322441.3364                   24322440.0864
 -22125710.59048 -17219922.93046  20774761.3594                   20774758.1294
 -11081738.62556  -8627542.46554  24673587.4304                   24673587.0434
 -22437122.14848 -17099895.28546  20807451.8444                   20807448.1134
 -16684899.40247 -12967744.59046  21373964.8524                   21373962.0434
 -17194744.64848 -13258003.23446  20828528.7424                   20828523.5984
  -5363175.70747  -3204522.69944  23122003.8834                   23122002.1024
 -16721300.75048 -13022592.44945  22610385.6884                   22610385.6294
 11  8  3  2 17  0.0000000  0  8G17G05G29G12G10G02G04G25
   4429281.54746   3719904.49643  24344365.5394                   24344363.2384
 -22132701.86348 -17225370.63346  20773430.9384                   20773427.8164
 -11116716.37146  -8654797.77043  24666930.8674                   24666930.2544
 -22402112.39148 -17072614.93746  20814114.0634                   20814110.3324
 -16586742.22347 -12891258.45345  21392643.2424                   21392640.4144
 -17127877.32448 -13205898.81346  20841253.1024                   20841247.9494
  -5235694.17646  -3105186.41044  23146263.0314                   23146261.6454
 -16748046.70747 -13043433.39845  22605296.4064                   22605295.8284
 11  8  3  2 17 30.0000000  0  8G17G05G29G12G10G02G04G25
   4544668.43046   3809816.34443  24366322.4614                   24366320.2584
 -22139175.16848 -17230414.71946  20772198.8914                   20772195.9804
 -11151769.28146  -8682111.65243  24660260.3834                   24660260.3914
 -22366526.18048 -17044885.41046  20820885.7034                   20820882.1094
 -16488045.06347 -12814351.57445  21411424.7584                   21411421.8984
 -17060826.10548 -13153651.09846  20854012.5084                   20854007.4064
  -5108214.24247  -3005851.39544  23170521.4064                   23170519.6374
 -16774375.46147 -13063949.27345  22600285.6884                   22600285.3634
 11  8  3  2 18  0.0000000  0  8G17G05G29G12G10G02G04G25
   4660240.39146   3899872.43743  24388314.9614                   24388313.1884
 -22145123.75448 -17235049.94546  20771067.1254                   20771063.8594
 -11186891.79746  -8709479.78943  24653576.8524                   24653575.8714
 -22330357.94948 -17016702.35946  20827768.4844                   20827764.9884
 -16388804.94147 -12737021.58645  21430309.3754                   21430306.6214
 -16993586.46948 -13101256.55546  20866807.8364                   20866802.1214
  -4980732.02747  -2906514.60944  23194781.2584                   23194778.3014
 -16800279.52047 -13084134.21145  22595356.6804                   22595356.4104
 11  8  3  2 18 30.0000000  0  8G17G05G29G12G10G02G04G25
   4775999.28546   3990074.17243  24410343.5944                   24410341.1174
 -22150544.03548 -17239273.49646  20770035.8134                   20770032.3484
 -11222081.36746  -8736900.16843  24646880.5314                   24646880.1884
 -22293605.09048 -16988063.75046  20834762.1094                   20834758.6884
 -16289022.19547 -12659268.78546  21449297.8594                   21449294.8244
 -16926157.85248 -13048714.75846  20879638.7034                   20879633.8484
  -4853246.50047  -2807175.22344  23219041.1804                   23219038.7464
 -16825754.62147 -13103984.89545  22590508.7504                   22590508.2974
 11  8  3  2 19  0.0000000  0  8G17G05G29G12G10G02G04G25
   4891943.25046   4080420.14543  24432406.3524                   24432404.7504
 -22155436.36348 -17243085.65646  20769104.5554                   20769101.6484
 -11257339.71546  -8764374.13744  24640171.5634                   24640170.4574
 -22256268.78948 -16958970.50846  20841866.8754                   20841862.7894
 -16188700.91447 -12581096.36345  21468388.2894                   21468385.0704
 -16858543.34848 -12996028.12146  20892505.8364                   20892500.8714
  -4725760.61147  -2707835.59444  23243300.4304                   23243298.1484
 -16850800.38347 -13123501.04345  22585742.6804                   22585742.2234
 11  8  3  2 19 30.0000000  0  8G17G05G29G12G10G02G04G25
   5008078.63346   4170915.24243  24454506.1174                   24454504.7424
 -22159792.55148 -17246480.04746  20768275.3984                   20768272.2194
 -11292659.44146  -8791895.91843  24633449.8364                   24633449.0744
 -22218342.69948 -16929417.69946  20849084.0004                   20849080.2114
 -16087836.04347 -12502500.35945  21487581.7734                   21487579.1684
 -16790737.15648 -12943192.10246  20905408.5394                   20905403.4574
  -4598268.88346  -2608491.35944  23267560.9614                   23267559.1024
 -16875407.80547 -13142675.63345  22581059.6024                   22581059.0784
 11  8  3  2 20  0.0000000  0  8G17G05G29G12G10G02G04G25
   5124399.14546   4261554.58643  24476641.4844                   24476639.9574
 -22163617.27048 -17249460.30546  20767547.8284                   20767544.6994
 -11328046.32047  -8819470.04343  24626716.3914                   24626715.0434
 -22179832.64548 -16899409.85946  20856412.2114                   20856408.4224
 -15986436.36747 -12423487.62945  21506877.8134                   21506874.9144
 -16722746.86748 -12890212.64546  20918346.7664                   20918341.2814
  -4470778.59447  -2509148.30143  23291821.7734                   23291819.1844
 -16899580.85247 -13161511.72345  22576459.8594                   22576459.6294
 11  8  3  2 20 30.0000000  0  8G17G05G29G12G10G02G04G25
   5240906.38746   4352339.45743  24498812.6724                   24498810.2274
 -22166907.39148 -17252023.99646  20766921.3284                   20766918.6374
 -11363498.19946  -8847094.82843  24619969.5634                   24619968.3984
 -22140736.22748 -16868945.10246  20863851.7424                   20863848.4414
 -15884502.52047 -12344058.65245  21526274.8054                   21526272.1764
 -16654571.98048 -12837089.34446  20931320.2344                   20931314.9264
  -4343289.13746  -2409805.85944  23316082.0084                   23316080.4844
 -16923315.48047 -13180006.18845  22571943.8134                   22571942.6884
 11  8  3  2 21  0.0000000  0  8G17G05G29G12G10G02G04G25
   5357599.66446   4443269.27343  24521018.6724                   24521015.7974
 -22169662.10948 -17254170.49646  20766397.3754                   20766393.9574
 -11399014.95347  -8874770.19943  24613211.6254                   24613209.7734
 -22101053.64148 -16838023.59846  20871403.0394                   20871399.3714
 -15782037.67247 -12264215.91445  21545773.5314                   21545770.4384
 -16586213.87948 -12783823.27746  20944328.3754                   20944323.0984
  -4215802.34847  -2310465.50844  23340341.9534                   23340339.3914
 -16946610.10547 -13198157.81645  22567510.6334                   22567510.5434
 11  8  3  2 21 30.0000000  0  8G17G05G29G12G10G02G04G25
   5474490.79746   4534353.28543  24543261.9454                   24543259.8594
 -22171868.37148 -17255889.62546  20765977.5944                   20765974.3134
 -11434584.33647  -8902486.54743  24606442.2504                   24606440.9224
 -22060772.78548 -16806635.90646  20879068.3284                   20879064.8364
 -15679031.53547 -12183951.37145  21565374.6564                   21565371.8054
 -16517661.89848 -12730406.13746  20957373.4064                   20957368.2584
  -4088307.30547  -2211118.69944  23364603.7894                   23364601.3014
 -16969450.53147 -13215955.52345  22563164.1094                   22563163.4494
 11  8  3  2 22  0.0000000  0  8G17G05G29G12G10G02G04G25
   5591563.73446   4625578.90643  24565539.7194                   24565537.8244
 -22173540.27348 -17257192.37146  20765659.2894                   20765656.2624
 -11470221.68446  -8930255.87543  24599660.5234                   24599659.1914
 -22019909.31648 -16774794.23846  20886844.4224                   20886840.7854
 -15575502.64147 -12103279.51645  21585076.0474                   21585073.2544
 -16448932.75848 -12676850.94146  20970452.0634                   20970446.9804
  -3960820.82847  -2111778.59044  23388863.6094                   23388861.3364
 -16991850.40247 -13233409.91845  22558901.7274                   22558901.2624
 11  8  3  2 22 30.0000000  0  8G17G05G29G12G10G02G04G25
   5708821.23046   4716948.38343  24587853.2894                   24587851.0354
 -22174674.00348 -17258075.76246  20765443.2504                   20765440.1604
 -11505923.19547  -8958075.19142  24592867.2114                   24592865.2504
 -21978459.66248 -16742495.79146  20894732.1724                   20894728.6454
 -15471450.21447 -12022199.70745  21604876.5314                   21604873.1254
 -16380024.88948 -12623156.49146  20983564.7114                   20983559.5554
  -3833341.25147  -2012443.82644  23413122.3204                   23413119.7624
 -17013804.66748 -13250517.08945  22554723.5864                   22554723.4414
 11  8  3  2 23  0.0000000  0  8G17G05G29G12G10G02G04G25
   5826265.33246   4808463.26243  24610202.0004                   24610200.4264
 -22175265.73848 -17258536.81246  20765330.8754                   20765327.8094
 -11541686.53547  -8985942.68443  24586061.6174                   24586059.3524
 -21936421.93748 -16709739.12146  20902731.3834                   20902728.0204
 -15366874.62548 -11940712.22745  21624776.2734                   21624773.5004
 -16310937.44148 -12569322.10246  20996711.8284                   20996706.0594
  -3705867.06346  -1913113.30544  23437379.1484                   23437377.7894
 -17035308.80548 -13267273.52345  22550631.4454                   22550631.5984
 11  8  3  2 23 30.0000000  0  8G17G05G29G12G10G02G04G25
   4368485.84445   3672531.19942  24332794.5234                   24332793.8834
 -23750727.91448 -18486169.63746  20465530.4844                   20465526.9614
 -13152926.20747 -10241454.06243  24279451.9844                   24279451.2814
 -23469208.58647 -17904118.31246  20611051.8524                   20611048.4884
 -16837188.71947 -13086411.53145  21344984.9534                   21344981.7734
 -17817083.33648 -13742942.26646  20710101.3204                   20710096.3794
  -5153809.47747  -3041380.13744  23161845.2734                   23161843.6804
 -18631775.48847 -14511273.49245  22246834.1414                   22246834.1604
 11  8  3  2 24  0.0000000  0  8G17G05G29G12G10G02G04G25
   4486310.46546   3764342.63342  24355217.1884                   24355214.9774
 -23750223.60248 -18485776.63747  20465626.3524                   20465623.2934
 -13188803.41846 -10269410.27743  24272625.3524                   24272624.4534
 -23425986.23848 -17870438.55546  20619277.1884                   20619273.2854
 -16731565.64547 -13004107.85245  21365084.2114                   21365081.7114
 -17747632.09448 -13688824.40646  20723317.2424                   20723312.5744
  -5026341.86747  -2942054.71144  23186101.9454                   23186099.9184
 -18652365.09047 -14527317.30545  22242916.4534                   22242916.2704
 11  8  3  2 24 30.0000000  0  8G17G05G29G12G10G02G04G25
   4604322.24246   3856299.88743  24377675.5234                   24377672.3874
 -23749172.52048 -18484957.57846  20465826.1804                   20465822.7624
 -13224739.79746 -10297412.59843  24265787.0164                   24265785.6764
 -23382174.11748 -17836299.23846  20627613.9614                   20627610.5514
 -16625425.39847 -12921401.16845  21385282.6804                   21385279.3984
 -17678003.18048 -13634568.10246  20736567.4774                   20736562.1954
  -4898881.84847  -2842735.23444  23210356.7034                   23210354.3984
 -18672497.08648 -14543004.49645  22239085.2114                   22239084.7234
 11  8  3  2 25  0.0000000  0  7G05G29G12G10G02G04G25
 -23747573.52748 -18483711.57846  20466130.8674                   20466127.2704
 -13260735.13746 -10325460.85943  24258936.7664                   24258935.9924
 -23337772.61748 -17801700.67246  20636063.5554                   20636059.5124
 -16518770.71147 -12838293.59445  21405578.1254                   21405575.2734
 -17608198.10548 -13580174.53546  20749850.7814                   20749846.0904
  -4771431.07047  -2743422.95344  23234609.9304                   23234607.6094
 -18692169.73848 -14558333.79345  22235341.6884                   22235341.0124
 11  8  3  2 25 30.0000000  0  7G05G29G12G10G02G04G25
 -23745426.66048 -18482038.66846  20466539.2194                   20466535.7154
 -13296789.50446 -10353555.06643  24252075.2034                   24252074.4264
 -23292782.58248 -17766643.48846  20644624.6484                   20644620.9614
 -16411604.89848 -12754787.76645  21425971.0634                   21425967.9064
 -17538219.32448 -13525645.60946  20763167.3204                   20763162.4494
  -4643991.35247  -2644119.26244  23258860.7344                   23258858.4064
 -18711381.92248 -14573304.27345  22231685.5164                   22231685.1914
 11  8  3  2 26  0.0000000  0  7G05G29G12G10G02G04G25
 -23742725.93748 -18479934.18046  20467053.3364                   20467049.7074
 -13332897.69946 -10381691.25043  24245204.8984                   24245203.6414
 -23247199.33248 -17731124.07446  20653298.8134                   20653295.4144
 -16303925.64147 -12670881.84045  21446461.8444                   21446458.7734
 -17468062.96548 -13470978.30146  20776517.7424                   20776512.5164
  -4516558.75847  -2544821.14044  23283110.4844                   23283107.9104
 -18730126.78547 -14587910.61745  22228118.2424                   22228117.6054
 11  8  3  2 26 30.0000000  0  7G05G29G12G10G02G04G25
 -23739472.66048 -18477399.13346  20467671.9924                   20467668.7934
 -13369062.02746 -10409871.14143  24238323.0084                   24238321.9144
 -23201025.64848 -17695144.57846  20662085.4384                   20662081.8554
 -16195738.07848 -12586579.84445  21467048.9144                   21467045.7194
 -17397732.70348 -13416175.49646  20789901.2584                   20789895.9774
  -4389137.20647  -2445531.63344  23307358.0474                   23307355.6844
 -18748404.87548 -14602153.23845  22224640.2114                   22224639.3134
 11  8  3  2 27  0.0000000  0  7G05G29G12G10G02G04G25
 -23735660.78148 -18474428.80546  20468397.8204                   20468394.0904
 -13405276.53547 -10438090.15644  24231431.4454                   24231430.0084
 -23154256.35948 -17658700.96946  20670985.1094                   20670981.6604
 -16087039.91448 -12501879.96545  21487733.9064                   21487730.5704
 -17327224.53548 -13361234.05946  20803318.2734                   20803313.4224
  -4261722.52046  -2346247.46544  23331604.0004                   23331601.8984
 -18766208.93448 -14616026.48845  22221251.7504                   22221251.1954
 11  8  3  2 27 30.0000000  0  7G05G29G12G10G02G04G25
 -23731288.41848 -18471021.73447  20469229.1954                   20469226.0354
 -13441540.03147 -10466347.35944  24224530.6954                   24224529.9454
 -23106890.73848 -17621792.68746  20679998.6804                   20679994.8284
 -15977832.77748 -12416783.48445  21508515.0394                   21508511.8634
 -17256539.02348 -13306154.42246  20816769.1094                   20816764.3204
  -4134314.98047  -2246968.85544  23355849.1954                   23355847.2664
 -18783536.38747 -14629528.34845  22217954.5234                   22217953.9924
 11  8  3  2 28  0.0000000  0  7G05G29G12G10G02G04G25
 -23726357.99248 -18467179.81646  20470167.6564                   20470164.3244
 -13477855.18047 -10494644.80544  24217620.0394                   24217619.2814
 -23058932.29748 -17584422.46546  20689124.7894                   20689121.4454
 -15868122.32848 -12331294.80945  21529392.3204                   21529388.6024
 -17185680.67648 -13250940.12546  20830253.5394                   20830248.3094
  -4006918.88347  -2147699.20744  23380091.8914                   23380089.8204
 -18800388.51248 -14642659.82445  22214747.7894                   22214747.3284
 11  8  3  2 28 30.0000000  0  7G05G29G12G10G02G04G25
 -23720867.97748 -18462901.84846  20471212.0314                   20471208.8594
 -13514220.82447 -10522981.57844  24210699.8834                   24210699.2974
 -23010380.31648 -17546589.75046  20698364.0944                   20698360.4024
 -15757910.68448 -12245415.59445  21550364.9774                   21550362.0474
 -17114649.96148 -13195591.51646  20843770.2734                   20843764.9844
  -3879534.66846  -2048438.78944  23404331.7424                   23404330.2154
 -18816762.69147 -14655418.87945  22211631.6024                   22211631.6524
 11  8  3  2 29  0.0000000  0  7G05G29G12G10G02G04G25
 -23714817.52048 -18458187.18446  20472363.8204                   20472360.3134
 -13550637.12546 -10551357.84443  24203769.3834                   24203769.3444
 -22961235.42648 -17508295.02046  20707715.8364                   20707712.3014
 -15647201.05547 -12159148.35245  21571431.9224                   21571429.0744
 -17043448.28148 -13140109.68046  20857318.9224                   20857314.1454
  -3752163.84446  -1949188.82044  23428569.6954                   23428567.3484
 -18832657.55147 -14667804.43745  22208606.8984                   22208606.1684
 11  8  3  2 29 30.0000000  0  7G05G29G12G10G02G04G25
 -23708209.49248 -18453038.03146  20473621.2424                   20473617.6294
 -13587106.72346 -10579775.62543  24196829.9694                   24196829.1094
 -22911501.92248 -17469541.63746  20717179.9224                   20717176.7664
 -15535999.57847 -12072497.84445  21592593.0004                   21592589.9534
 -16972080.33648 -13084498.28946  20870900.2274                   20870895.1524
  -3624810.92247  -1849952.79344  23452804.2034                   23452802.3524
 -18848074.48448 -14679817.59845  22205673.3914                   22205673.1644
 11  8  3  2 30  0.0000000  0  7G05G29G12G10G02G04G25
 -23701040.67248 -18447451.90246  20474985.1254                   20474982.0824
 -13623626.98446 -10608232.87143  24189879.9694                   24189879.2424
 -22861177.38348 -17430327.69946  20726756.4774                   20726753.3484
 -15424306.46947 -11985464.22745  21613847.5234                   21613844.0514
 -16900545.29348 -13028756.68446  20884512.8204                   20884507.8834
  -3497474.63347  -1750729.73844  23477035.4614                   23477034.1374
 -18863009.41848 -14691455.17245  22202831.6094                   22202830.9454
 11  8  3  2 30 30.0000000  0  7G05G29G12G10G02G04G25
 -23693309.57848 -18441427.65246  20476456.1724                   20476452.6454
 -13660196.59046 -10636728.59843  24182921.2194                   24182919.9184
 -22810261.87948 -17390653.27046  20736445.4304                   20736441.7624
 -15312124.02347 -11898049.32445  21635194.8754                   21635191.7774
 -16828843.47348 -12972885.11746  20898157.2504                   20898151.9454
  -3370155.31646  -1651519.89843  23501263.4064                   23501261.8364
 -18877459.94548 -14702715.28545  22200080.9694                   22200080.9614
 11  8  3  2 31  0.0000000  0  7G05G29G12G10G02G04G25
 -23685018.48848 -18434967.02746  20478034.2894                   20478030.5434
 -13696818.37146 -10665264.93044  24175952.6334                   24175951.3634
 -22758758.62148 -17350520.85546  20746245.9064                   20746242.4104
 -15199458.05948 -11810257.64845  21656634.8524                   21656631.4924
 -16756979.30548 -12916887.04746  20911832.3284                   20911827.4224
  -3242857.40247  -1552326.73043  23525488.1174                   23525485.6294
 -18891427.39548 -14713598.99245  22197423.2734                   22197423.2304
 11  8  3  2 31 30.0000000  0  7G05G29G12G10G02G04G25
 -23676167.02348 -18428069.74646  20479718.6094                   20479714.9694
 -13733492.13346 -10693841.76243  24168973.5864                   24168973.4024
 -22706668.42248 -17309931.08646  20756158.3204                   20756154.5744
 -15086311.66448 -11722091.62945  21678165.7734                   21678162.9534
 -16684954.45748 -12860763.77346  20925538.2344                   20925533.0904
  -3115582.27747  -1453151.29344  23549707.6254                   23549704.9224
 -18904910.36348 -14724105.18445  22194857.6414                   22194857.5044
 11  8  3  2 32  0.0000000  0  7G05G29G12G10G02G04G25
 -23666752.11348 -18420733.43446  20481510.1334                   20481506.5274
 -13770214.37546 -10722456.43743  24161985.7734                   24161984.2934
 -22653989.30548 -17268882.41446  20766182.7194                   20766179.3554
 -14972684.80948 -11633551.22345  21699788.1804                   21699785.3204
 -16612767.09448 -12804513.85946  20939274.8444                   20939270.3094
  -2988328.24246  -1353992.30144  23573922.6484                   23573920.7114
 -18917904.39848 -14734230.39146  22192385.1414                   22192384.4964
 11  8  3  2 32 30.0000000  0  7G05G29G12G10G02G04G25
 -23656773.73548 -18412958.04147  20483408.9144                   20483405.4774
 -13806985.91046 -10751109.48843  24154988.0394                   24154986.2344
 -22600722.67248 -17227375.94846  20776319.2504                   20776315.6214
 -14858581.37647 -11544639.45345  21721501.3054                   21721498.4774
 -16540419.75048 -12748139.29046  20953042.4774                   20953037.1294
  -2861097.38246  -1254851.38244  23598133.8444                   23598131.7774
 -18930408.72948 -14743974.00346  22190005.3754                   22190005.1764
 11  8  3  2 33  0.0000000  0  7G05G29G12G10G02G04G25
 -23646228.69148 -18404741.10247  20485415.7504                   20485412.0744
 -13843803.45746 -10779798.39843  24147981.4224                   24147979.9534
 -22546866.30548 -17185409.93446  20786567.5704                   20786564.2034
 -14744001.75048 -11455356.63745  21743305.4774                   21743302.1994
 -16467910.90648 -12691638.88346  20966840.0944                   20966834.9734
  -2733888.15247  -1155727.28944  23622341.2114                   23622339.0274
 -18942419.14848 -14753332.74246  22187720.1334                   22187719.6334
 11  8  3  2 33 30.0000000  0  7G05G29G12G10G02G04G25
 -23635115.53948 -18396081.47347  20487530.6884                   20487526.7894
 -13880665.78546 -10808522.20343  24140967.4844                   24140964.9224
 -22492420.22748 -17142984.41046  20796928.4534                   20796924.8914
 -14628948.00047 -11365704.36345  21765199.2974                   21765196.4344
 -16395241.39848 -12635013.27346  20980668.9454                   20980663.4774
  -2606700.85247  -1056620.29344  23646544.5164                   23646542.6024
 -18953933.18448 -14762304.71146  22185528.8674                   22185528.7704
 11  8  3  2 34  0.0000000  0  7G05G29G12G10G02G04G25
 -23623434.15648 -18386979.07447  20489753.1174                   20489749.3094
 -13917572.82447 -10837280.83643  24133944.7814                   24133942.3754
 -22437385.04748 -17100099.85946  20807401.3444                   20807397.5664
 -14513422.97748 -11275684.85545  21787182.8134                   21787179.9454
 -16322412.46548 -12578263.43446  20994527.7734                   20994522.3984
  -2479536.61747   -957531.28944  23670742.6884                   23670741.2934
 -18964949.33248 -14770888.71146  22183432.6804                   22183432.5044
 11  8  3  2 34 30.0000000  0  7G05G29G12G10G02G04G25
 -23611180.46548 -18377430.72347  20492084.9614                   20492081.9224
 -13954520.42646 -10866071.10543  24126912.6094                   24126910.6484
 -22381758.19948 -17056754.25046  20817986.6804                   20817983.1174
 -14397426.52747 -11185298.01645  21809255.9924                   21809253.4844
 -16249421.89148 -12521387.64546  21008417.4844                   21008412.2624
  -2352393.60247   -858458.80143  23694937.6414                   23694935.4804
 -18975462.75448 -14779080.96546  22181431.9384                   22181432.2154
 11  8  3  2 35  0.0000000  0  7G05G29G12G10G02G04G25
 -23598368.35548 -18367447.23847  20494522.8754                   20494519.2894
 -13991522.57846 -10894903.81244  24119871.3444                   24119871.0904
 -22325555.03148 -17012959.56646  20828681.6884                   20828678.0234
 -14280976.14548 -11094557.44145  21831416.0234                   21831413.1954
 -16176285.39148 -12464398.14546  21022334.4924                   21022329.4264
  -2225286.96547   -759414.64843  23719124.4774                   23719122.5474
 -18985486.32448 -14786891.51246  22179524.6334                   22179524.6174
 11  8  3  2 35 30.0000000  0  7G05G29G12G10G02G04G25
 -23584983.94148 -18357017.79747  20497069.9614                   20497066.7664
 -14028565.22347 -10923768.09044  24112822.5784                   24112820.9964
 -22268762.34448 -16968705.51646  20839489.5554                   20839485.6134
 -14164061.21548 -11003454.89845  21853664.2814                   21853661.3244
 -16102990.85948 -12407285.50446  21036282.4144                   21036276.6484
  -2098204.29747   -660389.19143  23743307.9224                   23743305.8284
 -18995004.88748 -14794308.55546  22177713.7734                   22177712.8714
 11  8  3  2 36  0.0000000  0  7G05G29G12G10G02G04G25
 -23571032.35548 -18346146.41447  20499724.8674                   20499721.4774
 -14065653.26247 -10952667.74244  24105765.1954                   24105763.7894
 -22211386.43448 -16923997.00446  20850407.1804                   20850403.6214
 -14046690.00848 -10911996.81245  21875999.3674                   21875995.8874
 -16029544.64148 -12350054.65646  21050258.6564                   21050253.2274
  -1971152.03947   -561387.42243  23767485.4534                   23767482.5044
 -19004022.25848 -14801335.05146  22175997.4774                   22175996.6334
 11  8  3  2 36 30.0000000  0  7G05G29G12G10G02G04G25
 -23556508.30948 -18334828.94947  20502488.6024                   20502485.1254
 -14102781.60947 -10981598.77344  24098699.3134                   24098698.1994
 -22153422.85248 -16878830.56246  20861437.6094                   20861434.0864
 -13928860.86348 -10820181.90645  21898421.1644                   21898418.6024
 -15955943.78148 -12292703.32046  21064264.5164                   21064259.2114
  -1844126.90247   -462406.74643  23791657.1954                   23791655.1294
 -19012532.40248 -14807966.29346  22174377.9304                   22174377.2504
 11  8  3  2 37  0.0000000  0  7G05G29G12G10G02G04G25
 -23541411.99248 -18323065.56247  20505361.4924                   20505357.9964
 -14139950.32447 -11010561.27044  24091626.0704                   24091624.7384
 -22094874.05948 -16833208.12146  20872579.0164                   20872575.5084
 -13810577.07848 -10728012.71945  21920930.2274                   21920926.9924
 -15882189.73848 -12235232.61746  21078299.1954                   21078294.2584
  -1717130.15647   -363448.24243  23815823.6334                   23815821.9224
 -19020534.25048 -14814201.46546  22172855.2814                   22172854.7624
 11  8  3  2 37 30.0000000  0  7G05G29G12G10G02G04G25
 -23525743.97748 -18310856.68747  20508342.7974                   20508339.2344
 -14177159.56647 -11039555.32844  24084545.6954                   24084544.4414
 -22035741.40648 -16787130.71546  20883831.7194                   20883827.8364
 -13691842.70348 -10635492.42645  21943524.1564                   21943521.5594
 -15808284.60248 -12177644.18446  21092362.7504                   21092357.8484
  -1590163.68747   -264513.33243  23839984.8284                   23839982.4924
 -19028027.18448 -14820040.07046  22171428.9144                   22171428.5554
 11  8  3  2 38  0.0000000  0  7G05G29G12G10G02G04G25
 -23509504.67648 -18298202.66047  20511433.1804                   20511429.9774
 -14214409.69946 -11068581.26644  24077457.2664                   24077455.9104
 -21976026.21548 -16740599.39846  20895194.6334                   20895191.3134
 -13572661.45748 -10542623.90645  21966203.7274                   21966201.0984
 -15734230.82048 -12119939.93046  21106454.7194                   21106449.4414
  -1463229.74247   -165603.76643  23864139.6804                   23864137.6914
 -19035010.61748 -14825481.66046  22170100.5164                   22170099.9774
 11  8  3  2 38 30.0000000  0  7G05G29G12G10G02G04G25
 -23492691.09048 -18285101.14147  20514632.6414                   20514629.3054
 -14251697.88346 -11097636.83644  24070360.8364                   24070360.1884
 -21915727.14848 -16693613.10546  20906669.6804                   20906665.5824
 -13453033.73447 -10449407.49645  21988968.3524                   21988965.5004
 -15660026.52048 -12062118.37946  21120575.4844                   21120570.2624
  -1336326.59047    -66718.17643  23888288.4064                   23888285.9104
 -19041480.54748 -14830523.11346  22168869.0164                   22168868.8364
 11  8  3  2 39  0.0000000  0  7G05G29G12G10G02G04G25
 -23475302.32848 -18271551.42247  20517941.5634                   20517938.2934
 -14289022.43746 -11126720.76244  24063258.6414                   24063256.8634
 -21854844.41048 -16646172.00846  20918255.0394                   20918251.4844
 -13332961.97348 -10355845.08245  22011817.5554                   22011814.0744
 -15585672.26248 -12004179.99246  21134724.8284                   21134719.5784
  -1209454.39847     32143.25843  23912431.4304                   23912429.5354
 -19047434.75448 -14835162.70746  22167735.7894                   22167735.2384
 11  8  3  2 39 30.0000000  0  7G05G29G12G10G02G04G25
 -23457339.71948 -18257554.56247  20521359.5634                   20521356.2814
 -14326383.98446 -11155833.52044  24056148.0704                   24056147.7114
 -21793379.79748 -16598277.49646  20929951.5004                   20929947.3714
 -13212450.64547 -10261940.14845  22034749.3204                   22034746.5594
 -15511171.07048 -11946127.08646  21148902.0394                   21148896.4734
  -1082615.50847    130978.77343  23936568.5554                   23936565.9104
 -19052873.14148 -14839400.36746  22166701.0314                   22166700.3014
 11  8  3  2 40  0.0000000  0  7G05G29G12G10G02G04G25
 -23438798.64548 -18243106.93747  20524887.6094                   20524884.2234
 -14363778.19146 -11184971.71144  24049032.6254                   24049031.4694
 -21731330.35248 -16549927.27746  20941759.0784                   20941755.3094
 -13091498.80147 -10167691.95345  22057765.7274                   22057763.0354
 -15436519.67248 -11887957.15246  21163107.3054                   21163102.2074
   -955806.94146    229790.63743  23960698.5234                   23960697.2304
 -19057790.32848 -14843231.89146  22165765.2734                   22165764.5864
 11  8  3  2 40 30.0000000  0  7G05G29G12G10G02G04G25
 -23419686.51648 -18228214.34447  20528524.9384                   20528521.3874
 -14401211.71946 -11214140.52044  24041909.1254                   24041907.7154
 -21668704.91448 -16501128.23046  20953676.1254                   20953672.7384
 -12970116.98847 -10073108.71545  22080864.1564                   22080861.0984
 -15361726.93748 -11829677.07446  21177340.0634                   21177334.5634
   -829037.16046    328572.25443  23984822.3984                   23984820.1564
 -19062192.50848 -14846662.11346  22164927.6724                   22164926.9844
 11  8  3  2 41  0.0000000  0  7G05G29G12G10G02G04G25
 -24975415.85248 -19440470.94147  20232479.2664                   20232475.9924
 -16014099.28546 -12470935.88744  23734986.6174                   23734984.7304
 -23180916.13748 -17679474.62946  20665912.2344                   20665908.7074
 -14423717.73447 -11205784.61745  21804253.3204                   21804250.0594
 -16862205.39848 -12998881.05546  20891808.2664                   20891802.8134
  -2277716.58646   -800268.89543  23709147.7274                   23709146.3054
 -20641492.01648 -16077285.05546  21864396.9144                   21864395.7194
 11  8  3  2 41 30.0000000  0  7G05G29G12G10G02G04G25
 -24955144.65648 -19424675.17647  20236337.1484                   20236333.3834
 -16051593.95747 -12500152.40644  23727851.8984                   23727850.0784
 -23117125.48848 -17629767.62546  20678051.2424                   20678047.0904
 -14301468.79347 -11110525.68845  21827516.1484                   21827513.5664
 -16787117.28148 -12940370.82846  20906097.4144                   20906091.5904
  -2151011.15246   -701537.37943  23733259.8284                   23733257.5784
 -20644843.87148 -16079896.83646  21863759.0314                   21863757.9964
 11  8  3  2 42  0.0000000  0  7G05G29G12G10G02G04G25
 -24934295.53548 -19408429.07847  20240304.2424                   20240300.7034
 -16089119.61747 -12529393.07844  23720711.0634                   23720709.0824
 -23052755.27748 -17579609.02046  20690300.2734                   20690296.3794
 -14178792.63747 -11014933.87145  21850860.7894                   21850858.0474
 -16711884.87148 -12881748.16446  20920413.5704                   20920408.1804
  -2024341.13346   -602833.48843  23757363.1724                   23757361.3484
 -20647670.19148 -16082099.12146  21863221.0004                   21863220.5314
 11  8  3  2 42 30.0000000  0  7G05G29G12G10G02G04G25
 -24912872.48048 -19391735.77047  20244380.6254                   20244377.3914
 -16126680.10547 -12558660.90644  23713562.9694                   23713560.5314
 -22987810.67648 -17529002.83246  20702658.5554                   20702655.1294
 -14055696.54747 -10919014.83645  21874285.1334                   21874282.3204
 -16636513.53548 -12823017.25446  20934756.3984                   20934750.6724
  -1897711.40246   -504160.98843  23781460.5084                   23781458.9574
 -20649973.96148 -16083894.22746  21862782.7894                   21862782.3364
 11  8  3  2 43  0.0000000  0  7G05G29G12G10G02G04G25
 -24890867.14148 -19374588.72747  20248568.1334                   20248564.9774
 -16164266.46547 -12587948.92244  23706410.5704                   23706408.2424
 -22922285.11748 -17477943.95746  20715127.8134                   20715123.9414
 -13932175.24647 -10822764.46545  21897790.1644                   21897787.5664
 -16560996.50448 -12764172.80146  20949126.5004                   20949121.0124
  -1771115.03146   -405514.46543  23805550.7664                   23805549.2344
 -20651745.64148 -16085274.72346  21862445.1254                   21862444.5944
 11  8  3  2 43 30.0000000  0  7G05G29G12G10G02G04G25
 -24868287.31348 -19356994.02747  20252864.9064                   20252861.8094
 -16201886.09447 -12617262.81644  23699251.8284                   23699249.9414
 -22856187.10248 -17426439.00446  20727706.1804                   20727702.1954
 -13808239.87547 -10726191.45745  21921374.9224                   21921371.4964
 -16485342.65248 -12705221.73446  20963523.3054                   20963517.2464
  -1644560.43046   -306900.51643  23829633.9144                   23829631.1914
 -20652991.71948 -16086245.64146  21862208.2194                   21862207.8984
 11  8  3  2 44  0.0000000  0  7G05G29G12G10G02G04G25
 -24845133.30148 -19338951.91847  20257271.1094                   20257267.6844
 -16239538.23047 -12646602.06344  23692086.8284                   23692084.4654
 -22789518.13348 -17374489.16446  20740392.5164                   20740389.2544
 -13683893.89847 -10629298.49245  21945036.8444                   21945033.8244
 -16409553.28148 -12646165.06646  20977945.1334                   20977939.9494
  -1518049.02747   -208320.20343  23853707.9454                   23853706.2384
 -20653711.36348 -16086806.36346  21862071.2974                   21862070.7344
 11  8  3  2 44 30.0000000  0  7G05G29G12G10G02G04G25
 -24821393.97748 -19320453.72347  20261788.4224                   20261785.1374
 -16277211.46147 -12675957.76644  23684917.5944                   23684915.9454
 -22722268.80548 -17322087.08646  20753189.6414                   20753186.2304
 -13559129.49247 -10532079.48845  21968778.5554                   21968775.4774
 -16333618.57848 -12586995.16846  20992395.1414                   20992389.7974
  -1391570.71147   -109765.66843  23877776.0864                   23877773.3594
 -20653892.39548 -16086947.39146  21862036.8364                   21862036.4654
 11  8  3  2 45  0.0000000  0  7G05G29G12G10G02G04G25
 -24797074.13748 -19301503.17647  20266416.1954                   20266412.8484
 -16314909.64147 -12705332.91444  23677743.8284                   23677741.9264
 -22654444.60248 -17269237.05546  20766096.1804                   20766092.3134
 -13433954.14547 -10434540.25845  21992599.2194                   21992596.3164
 -16257544.53548 -12527716.68446  21006871.5704                   21006865.9494
  -1265130.93047    -11241.16044  23901836.7274                   23901834.8134
 -20653538.15248 -16086671.33246  21862104.0784                   21862103.5744
 11  8  3  2 45 30.0000000  0  7G05G29G12G10G02G04G25
 -24772176.14148 -19282102.12147  20271154.3444                   20271150.8094
 -16352634.34846 -12734728.70344  23670564.7894                   23670563.6604
 -22586048.98048 -17215941.76646  20779111.6884                   20779108.1684
 -13308373.12947 -10336684.92245  22016496.0314                   22016493.3444
 -16181334.19548 -12468332.00046  21021373.7664                   21021368.4344
  -1138732.99247     87250.72744  23925889.6094                   23925887.6214
 -20652649.79748 -16085979.05946  21862272.8674                   21862271.9924
 11  8  3  2 46  0.0000000  0  7G05G29G12G10G02G04G25
 -24746702.28548 -19262252.34847  20276001.9304                   20275998.1604
 -16390387.31647 -12764146.48444  23663380.5864                   23663379.2464
 -22517086.06348 -17162204.42246  20792234.8594                   20792231.0784
 -13182392.10947 -10238517.89545  22040469.2894                   22040466.7234
 -16104991.21548 -12408843.94946  21035901.4694                   21035895.7304
  -1012380.14546    185707.51243  23949933.4454                   23949931.2814
 -20651228.44548 -16084871.48846  21862543.7344                   21862542.9774
 11  8  3  2 46 30.0000000  0  7G05G29G12G10G02G04G25
 -24720649.80148 -19241951.68447  20280959.5554                   20280955.9964
 -16428164.55546 -12793583.22344  23656191.8834                   23656190.4104
 -22447553.67248 -17108023.33646  20805466.3134                   20805462.7424
 -13056011.26247 -10140039.30945  22064519.2504                   22064516.5434
 -16028513.87148 -12349251.21546  21050454.4224                   21050449.2704
   -886070.09047    284130.93043  23973969.7734                   23973967.2154
 -20649269.92248 -16083345.34046  21862916.5704                   21862916.0234
 11  8  3  2 47  0.0000000  0  7G05G29G12G10G02G04G25
 -24694014.26248 -19221196.70747  20286028.0634                   20286024.2584
 -16465960.96947 -12823034.83244  23648998.9924                   23648997.9654
 -22377448.65648 -17053396.05146  20818807.0864                   20818803.0354
 -12929229.40247 -10041248.26245  22088644.6334                   22088641.7384
 -15951898.82848 -12289551.16446  21065033.8674                   21065028.4184
   -759799.44547    382523.60943  23997998.0784                   23997995.9184
 -20646768.81648 -16081396.40646  21863392.2114                   21863391.9734
 11  8  3  2 47 30.0000000  0  7G05G29G12G10G02G04G25
 -24666798.80948 -19199989.84047  20291207.1094                   20291203.4884
 -16503779.49647 -12852503.71944  23641802.6484                   23641801.0784
 -22306775.60248 -16998326.14146  20832255.8444                   20832252.0234
 -12802052.75847  -9942149.58645  22112846.1334                   22112842.6564
 -15875149.95348 -12229746.83246  21079638.6564                   21079633.0124
   -633571.94547    480882.69943  24022019.1094                   24022015.7344
 -20643726.94948 -16079026.09846  21863971.0314                   21863970.3914
 11  8  3  2 48  0.0000000  0  7G05G29G12G10G02G04G25
 -24639004.75848 -19178332.12147  20296496.0634                   20296492.5204
 -16541619.64547 -12881989.45744  23634601.4924                   23634600.5704
 -22235536.88748 -16942815.44946  20845811.7504                   20845808.0124
 -12674485.67247  -9842746.66045  22137121.0084                   22137117.8204
 -15798269.60948 -12169840.05946  21094268.7424                   21094263.0434
   -507389.67647    579206.52043  24046030.5004                   24046027.7894
 -20640144.46948 -16076234.52746  21864653.0864                   21864652.0904
 11  8  3  2 48 30.0000000  0  7G05G29G12G10G02G04G25
 -24610623.73848 -19156217.02047  20301896.5474                   20301893.1454
 -16579472.54347 -12911485.10544  23627398.4064                   23627396.9414
 -22163725.35948 -16886858.40646  20859476.8134                   20859473.2664
 -12546522.72747  -9743035.28145  22161471.4694                   22161468.3554
 -15721250.52748 -12109825.18046  21108924.7584                   21108919.4924
   -381245.18446    677500.91843  24070035.0554                   24070032.5784
 -20636011.85548 -16073014.27746  21865439.5084                   21865438.7854
 11  8  3  2 49  0.0000000  0  7G05G29G12G10G02G04G25
 -24581661.60248 -19133649.10947  20307408.0634                   20307404.6524
 -16617342.73047 -12940994.25444  23620191.8444                   23620190.2584
 -22091348.62948 -16830460.95746  20873249.6724                   20873245.9734
 -12418172.41447  -9643022.04345  22185895.6174                   22185892.5514
 -15644099.20748 -12049707.25046  21123605.9844                   21123600.9024
   -255144.62146    775761.09043  24094031.1954                   24094027.5864
 -20631333.52748 -16069368.80946  21866329.3204                   21866328.5634
 11  8  3  2 49 30.0000000  0  7G05G29G12G10G02G04G25
 -24552121.44148 -19110630.78547  20313029.1884                   20313025.9884
 -16655232.30947 -12970518.53144  23612981.4694                   23612980.3714
 -22018410.55148 -16773626.09046  20887129.2664                   20887125.7304
 -12289440.95347  -9542711.81345  22210392.1414                   22210389.7894
 -15566819.75448 -11989489.48446  21138311.8364                   21138306.7584
   -129091.51247    873984.28943  24118017.5474                   24118015.8914
 -20626111.27348 -16065299.50446  21867323.2424                   21867322.4024
 11  8  3  2 50  0.0000000  0  7G05G29G12G10G02G04G25
 -24522005.84048 -19087164.06647  20318760.1724                   20318756.5354
 -16693143.01247 -13000059.23444  23605767.7504                   23605766.0904
 -21944914.86348 -16716356.71946  20901115.3364                   20901111.7544
 -12160333.88747  -9442108.90645  22234960.9614                   22234957.9574
 -15489415.22347 -11929174.27046  21153041.2194                   21153035.3364
     -3089.30946    972167.79743  24141995.2584                   24141992.7734
 -20620346.62948 -16060807.53946  21868419.9534                   21868419.3874
 11  8  3  2 50 30.0000000  0  7G05G29G12G10G02G04G25
 -24491305.22348 -19063241.48447  20324602.3914                   20324598.8164
 -16731064.29547 -13029608.21544  23598551.5704                   23598548.6484
 -21870852.70348 -16658645.94146  20915209.0314                   20915205.2424
 -12030844.50047  -9341208.07045  22259601.2894                   22259598.5594
 -15411877.68848 -11868755.40646  21167796.6024                   21167791.1604
    122871.12546   1070318.81643  24165965.0234                   24165962.6094
 -20614028.72348 -16055884.47746  21869622.5634                   21869621.7384
 11  8  3  2 51  0.0000000  0  7G05G29G12G10G02G04G25
 -24460018.54348 -19038862.24247  20330555.8444                   20330552.3954
 -16768993.78547 -13059163.56644  23591334.1954                   23591331.1134
 -21796225.05948 -16600494.53546  20929409.9064                   20929406.3524
 -11900974.64847  -9240010.78545  22284314.8594                   22284312.5164
 -15334205.64148 -11808231.72746  21182576.8754                   21182571.5084
    248790.60546   1168437.88743  24189925.6254                   24189924.1954
 -20607155.05948 -16050528.35246  21870930.6174                   21870930.1374
 11  8  3  2 51 30.0000000  0  7G05G29G12G10G02G04G25
 -24428153.32848 -19014032.19147  20336619.6644                   20336615.9774
 -16806937.81647 -13088730.28944  23584112.7584                   23584110.1134
 -21721040.52348 -16541909.18846  20943716.7974                   20943713.3404
 -11770735.00447  -9138525.34445  22309098.8914                   22309095.6994
 -15256408.10248 -11747610.26646  21197381.3134                   21197375.6884
    374660.89146   1266518.57843  24213878.9144                   24213877.1414
 -20599732.05548 -16044744.16846  21872342.9614                   21872342.0084
 11  8  3  2 52  0.0000000  0  7G05G29G12G10G02G04G25
 -24395708.80148 -18988750.71547  20342793.6024                   20342790.0164
 -16844894.38347 -13118306.76244  23576890.4774                   23576887.1024
 -21645299.12948 -16482889.92646  20958130.2894                   20958126.8984
 -11640127.08247  -9036752.94145  22333952.8284                   22333949.5044
 -15178484.50048 -11686890.57446  21212210.2194                   21212204.6294
    500482.45746   1364561.36743  24237821.7114                   24237819.9304
 -20591757.40648 -16038530.12546  21873860.2114                   21873859.8444
 11  8  3  2 52 30.0000000  0  7G05G29G12G10G02G04G25
 -24362682.76248 -18963016.12947  20349077.8594                   20349074.6024
 -16882860.17647 -13147890.41044  23569664.9144                   23569663.6214
 -21569000.00848 -16423436.06346  20972649.5234                   20972646.0634
 -11509151.68047  -8934694.18445  22358876.1094                   22358873.5634
 -15100433.85548 -11626071.89146  21227062.3524                   21227056.9414
    626257.08246   1462567.53943  24261756.0474                   24261753.9654
 -20583227.90248 -16031883.72746  21875483.2814                   21875482.7974
 11  8  3  2 53  0.0000000  0  7G05G29G12G10G02G04G25
 -24329075.68448 -18936828.77747  20355473.4614                   20355470.1484
 -16920834.40646 -13177480.59044  23562438.9534                   23562437.3674
 -21492144.42248 -16363548.60246  20987274.8204                   20987271.4184
 -11377812.01647  -8832351.59445  22383869.7424                   22383866.9384
 -15022256.79348 -11565154.69146  21241938.9534                   21241933.3834
    751983.86746   1560536.45343  24285680.5864                   24285678.9384
 -20574142.61748 -16024804.24646  21877212.2344                   21877211.5234
 11  8  3  2 53 30.0000000  0  7G05G29G12G10G02G04G25
 -24294888.08248 -18910189.06647  20361979.1174                   20361975.4104
 -16958815.98447 -13207076.54744  23555211.2814                   23555209.3404
 -21414734.79748 -16303229.41846  21002005.1174                   21002001.7034
 -11246111.67647  -8729727.95344  22408931.8054                   22408928.0394
 -14943954.44948 -11504139.87546  21256839.3284                   21256833.7584
    877662.10946   1658467.52743  24309596.6884                   24309594.6294
 -20564500.79748 -16017291.11746  21879046.9844                   21879046.2114
 11  8  3  2 54  0.0000000  0  7G05G29G12G10G02G04G25
 -24260124.82848 -18883100.80547  20368593.9384                   20368590.9454
 -16996808.46947 -13236681.00444  23547981.5634                   23547979.5164
 -21336777.06648 -16242483.13346  21016839.9454                   21016836.2624
 -11114058.07047  -8626829.04345  22434060.8284                   22434057.4064
 -14865532.59048 -11443031.92646  21271762.3284                   21271757.1724
   1003286.75447   1756356.85943  24333502.0634                   24333499.7034
 -20554306.12148 -16009347.18446  21880987.2194                   21880986.2114
 11  8  3  2 54 30.0000000  0  7G05G29G12G10G02G04G25
 -24224775.78548 -18855556.08247  20375320.9844                   20375317.7194
 -17034800.61746 -13266285.17244  23540751.4534                   23540750.0664
 -21258261.56648 -16181302.24646  21031781.2814                   21031777.5394
 -10981643.52347  -8523648.87544  22459258.0704                   22459255.2074
 -14786981.08248 -11381822.96946  21286710.4064                   21286704.7074
   1128867.85247   1854212.28143  24357399.5394                   24357397.4844
 -20543546.78548 -16000963.25046  21883034.4384                   21883033.4144
 11  8  3  2 55  0.0000000  0  7G05G29G12G10G02G04G25
 -24188847.10948 -18827559.69147  20382157.8754                   20382154.4224
 -17072797.28547 -13295892.88744  23533521.4304                   23533518.9304
 -21179196.95348 -16119693.46546  21046826.6334                   21046822.9414
 -10848877.57847  -8420194.86745  22484522.9844                   22484519.4304
 -14708307.12548 -11320518.57846  21301681.4384                   21301676.3714
   1254398.19546   1952028.12943  24381287.4304                   24381285.0744
 -20532228.34048 -15992143.64846  21885188.2194                   21885187.8834
 11  8  3  2 55 30.0000000  0  7G05G29G12G10G02G04G25
 -24152342.95348 -18799114.88347  20389103.9384                   20389101.1414
 -17110800.79347 -13325505.94544  23526289.3594                   23526287.6764
 -21099587.78548 -16057660.35946  21061975.7584                   21061971.9694
 -10715766.87147  -8316472.23445  22509852.9224                   22509850.2734
 -14629514.83648 -11259121.99246  21316674.9384                   21316670.0744
   1379874.02046   2049801.51643  24405165.0704                   24405161.8284
 -20520353.27048 -15982890.31346  21887448.1254                   21887447.6994
 11  8  3  2 56  0.0000000  0  7G05G29G12G10G02G04G25
 -24115260.91848 -18770219.77347  20396160.7584                   20396157.5634
 -17148807.75447 -13355121.66845  23519056.7194                   23519055.4574
 -21019432.73448 -15995201.89146  21077228.8284                   21077225.0044
 -10582311.43847  -8212480.98044  22535248.4384                   22535245.1844
 -14550602.74248 -11197632.03946  21331691.5704                   21331686.4774
   1505297.48046   2147534.04743  24429032.1644                   24429029.2274
 -20507917.98448 -15973200.44546  21889814.3984                   21889813.4694
 11  8  3  2 56 30.0000000  0  8G26G05G29G12G10G02G04G25
 -14237133.68856 -11083555.06653  24925936.2664                   24925935.1724
 -24077598.88348 -18740872.71547  20403327.6954                   20403324.5124
 -17186814.19947 -13384736.99245  23511824.1954                   23511822.9694
 -20938731.12548 -15932317.52746  21092585.7424                   21092582.2384
 -10448511.93047  -8108221.61744  22560709.6094                   22560706.2584
 -14471569.03548 -11136047.32446  21346730.8914                   21346725.9304
   1630670.70346   2245227.47744  24452890.0704                   24452887.6054
 -20494919.08248 -15963071.39546  21892288.0004                   21892286.8984
 11  8  3  2 57  0.0000000  0  8G26G05G29G12G10G02G04G25
 -14285747.26246 -11121435.65642  24916685.6174                   24916684.1254
 -24039355.95748 -18711073.02347  20410605.0554                   20410601.5164
 -17224817.36347 -13414349.79744  23504592.7034                   23504590.6564
 -20857482.92247 -15869007.24246  21108046.5864                   21108043.4774
 -10314369.64547  -8003695.17644  22586235.9924                   22586233.1564
 -14392412.64547 -11074367.00646  21361794.1804                   21361788.8404
   1755994.44147   2342882.32444  24476737.9064                   24476735.8714
 -20481354.01048 -15952501.17646  21894869.1564                   21894868.4734
 11  8  3  2 57 30.0000000  0  8G26G05G29G12G10G02G04G25
 -14334489.10945 -11159416.21543  24907409.9384                   24907408.7664
 -24000540.48848 -18680827.19147  20417991.4694                   20417987.9734
 -17262824.90647 -13443965.99245  23497360.2194                   23497358.4574
 -20775698.44548 -15805279.08646  21123609.4774                   21123606.4614
 -10179896.17647  -7898910.64144  22611825.2504                   22611822.0004
 -14313143.04348 -11012598.46146  21376878.8284                   21376873.5904
   1881260.02046   2440491.86743  24500574.4694                   24500573.2234
 -20467230.53548 -15941495.84846  21897557.1564                   21897555.7074
 11  8  3  2 58  0.0000000  0  8G26G05G29G12G10G02G04G25
 -14383355.73046 -11197494.02343  24898110.1804                   24898109.1254
 -23961153.09848 -18650135.70347  20425486.3204                   20425482.9964
 -17300834.75847 -13473583.98845  23490126.8364                   23490124.3284
 -20693378.28548 -15741133.52046  21139274.6334                   21139271.0474
 -10045094.01247  -7793869.99244  22637477.5234                   22637474.0904
 -14233760.25048 -10950741.74246  21391984.3524                   21391979.6334
   2006467.51246   2538056.11343  24524401.5394                   24524398.6564
 -20452547.07848 -15930054.15646  21900351.0554                   21900349.9264
 11  8  3  2 58 30.0000000  0  8G26G05G29G12G10G02G04G25
 -16007765.92746 -12463268.05443  24588995.8594                   24588994.3714
 -25496611.96148 -19846597.13347  20133298.4304                   20133294.9964
 -18914266.70347 -14730803.62945  23183101.1724                   23183098.8594
 -22185941.42648 -16904169.73846  20855249.7424                   20855245.8714
 -11485381.27047  -8916171.74644  22363400.1094                   22363396.7234
 -15729681.87148 -12116394.93046  21107320.2504                   21107314.5634
    556200.89147   1407978.21543  24248425.0474                   24248422.7774
 -22012722.07848 -17145774.90646  21603459.5234                   21603458.8054
 11  8  3  2 59  0.0000000  0  8G26G05G29G12G10G02G04G25
 -16056866.57846 -12501528.19943  24579652.3834                   24579650.8094
 -25456073.73448 -19815008.89547  20141012.5394                   20141009.3484
 -18952270.30547 -14760416.73445  23175868.8914                   23175867.0164
 -22102547.83648 -16839187.72346  20871118.8674                   20871115.1994
 -11349923.14547  -8810619.94544  22389176.6884                   22389173.2974
 -15650067.60548 -12054357.82446  21122470.3914                   21122464.8244
    681298.05947   1505456.46543  24272229.8134                   24272228.2774
 -21996908.96148 -17133452.96546  21606468.7664                   21606468.2384
 11  8  3  2 59 30.0000000  0  8G26G05G29G12G10G02G04G25
 -16106077.98846 -12539874.70343  24570287.9614                   24570286.7974
 -25414958.90248 -19782971.34847  20148836.5554                   20148833.1564
 -18990267.01247 -14790024.49245  23168638.5474                   23168636.3484
 -22018618.25848 -16773788.06346  20887090.2034                   20887086.8444
 -11214139.67647  -8704814.66044  22415015.9064                   22415012.1804
 -15570336.62548 -11992229.77746  21137642.5394                   21137637.1914
    806341.36347   1602892.78143  24296025.2504                   24296023.1484
 -21980527.75048 -17120688.36346  21609585.6644                   21609585.5164
 11  8  3  3  0  0.0000000  0  8G26G05G29G12G10G02G04G25
 -16155396.76246 -12578304.81343  24560902.9614                   24560901.0744
 -25373267.47748 -19750484.52047  20156769.9534                   20156766.6884
 -19028254.85947 -14819625.35544  23161409.7114                   23161407.0044
 -21934153.64848 -16707971.48846  20903163.2974                   20903159.6994
 -11078033.00847  -8598757.53944  22440915.9144                   22440912.5704
 -15490488.91048 -11930010.77346  21152837.3914                   21152831.8914
    931331.31246   1700287.53543  24319809.5554                   24319807.5864
 -21963577.08648 -17107480.02746  21612811.7584                   21612810.9224
 11  8  3  3  0 30.0000000  0  8G26G05G29G12G10G02G04G25
 -16204830.44546 -12616824.49643  24551495.4844                   24551493.8954
 -25331010.28148 -19717556.81647  20164811.0864                   20164807.7774
 -19066243.03147 -14849226.46144  23154180.7194                   23154177.9144
 -21849166.14848 -16641747.46946  20919336.1724                   20919332.5314
 -10941616.86747  -8492459.23844  22466874.9144                   22466871.4414
 -15410535.81348 -11867709.64146  21168051.4064                   21168045.9344
   1056257.00846   1797632.21943  24343582.3134                   24343579.7854
 -21946066.62148 -17093835.48446  21616143.9304                   21616143.1214
 11  8  3  3  1  0.0000000  0  8G26G05G29G12G10G02G04G25
 -16254364.73446 -12655422.54743  24542069.0864                   24542067.7194
 -25288176.56348 -19684179.87947  20172962.1954                   20172959.0354
 -19104218.86347 -14878817.94544  23146954.2664                   23146951.8554
 -21763645.77048 -16575108.21146  20935609.7664                   20935606.5274
 -10804882.67647  -8385913.14144  22492894.8284                   22492891.1174
 -15330466.35248 -11805317.84446  21183288.6024                   21183283.1334
   1181129.25046   1894935.23843  24367344.8284                   24367342.3204
 -21927984.16448 -17079745.23446  21619584.7814                   21619583.9574
 11  8  3  3  1 30.0000000  0  8G26G05G29G12G10G02G04G25
 -16303989.05946 -12694090.76643  24532625.8364                   24532623.6604
 -25244758.85948 -19650347.89147  20181224.2974                   20181221.2034
 -19142173.47347 -14908392.87945  23139731.4454                   23139729.0234
 -21677586.67248 -16508049.17646  20951986.2344                   20951982.7814
 -10667825.51647  -8279115.35544  22518976.0704                   22518972.5744
 -15250273.45348 -11742829.86746  21198548.4694                   21198543.3324
   1305955.77346   1992202.65243  24391098.5784                   24391096.6884
 -21909321.16848 -17065202.61346  21623136.0394                   21623134.9024
 11  8  3  3  2  0.0000000  0  8G26G05G29G12G10G02G04G25
 -16353714.28946 -12732837.63343  24523163.6724                   24523161.8524
 -25200772.26248 -19616072.60947  20189594.8834                   20189591.4534
 -19180119.03947 -14937960.76244  23132510.3364                   23132508.1844
 -21591004.57048 -16440582.60946  20968462.2194                   20968458.6604
 -10530462.35547  -8172079.12944  22545115.0554                   22545111.8714
 -15169971.56648 -11680256.95346  21213829.5704                   21213824.3634
   1430722.11346   2089423.12543  24414839.1174                   24414838.6684
 -21890090.90248 -17050217.96546  21626795.2664                   21626794.2034
 11  8  3  3  2 30.0000000  0  8G26G05G29G12G10G02G04G25
 -16403529.33647 -12771654.47743  24513684.4454                   24513682.2464
 -25156208.37548 -19581347.48847  20198075.1564                   20198071.5514
 -19218046.18847 -14967514.30144  23125292.5394                   23125290.0864
 -21503892.80548 -16372703.32046  20985039.1954                   20985035.8204
 -10392788.21147  -8064800.57044  22571313.3754                   22571310.2664
 -15089553.18848 -11617593.27346  21229132.8364                   21229127.4454
   1555436.43446   2186603.11342  24438573.0554                   24438571.6804
 -21870284.37148 -17034784.27346  21630564.3204                   21630563.4024
 11  8  3  3  3  0.0000000  0  8G26G05G29G12G10G02G04G25
 -16453434.88747 -12810541.82443  24504187.6954                   24504185.9224
 -25111071.85548 -19546176.16447  20206664.2034                   20206660.7774
 -19255957.17646 -14997055.25844  23118078.5784                   23118076.6334
 -21416257.03948 -16304415.71546  21001715.5784                   21001712.0084
 -10254809.34847  -7957284.57044  22597570.0704                   22597567.1214
 -15009022.61348 -11554842.18446  21244457.0474                   21244451.6024
   1680094.53146   2283739.28142  24462294.7734                   24462292.8284
 -21849904.57048 -17018903.88746  21634442.7664                   21634441.4924
 11  8  3  3  3 30.0000000  0  8G26G05G29G12G10G02G04G25
 -16503427.41446 -12849496.96543  24494673.6484                   24494671.4384
 -25065362.59048 -19510558.54347  20215362.2894                   20215359.3134
 -19293849.89547 -15026581.97344  23110867.3674                   23110865.6954
 -21328098.05548 -16235720.39846  21018491.6484                   21018488.4144
 -10116528.03147  -7849532.89844  22623884.2664                   22623880.9024
 -14928379.72748 -11492003.55946  21259802.9144                   21259797.4614
   1804696.68046   2380831.81642  24486004.8594                   24486004.8094
 -21828950.30148 -17002575.86346  21638429.8984                   21638429.1764
 11  8  3  3  4  0.0000000  0  8G26G05G29G12G10G02G04G25
 -16553502.38746 -12888516.32043  24485144.6724                   24485142.3324
 -25019079.75448 -19474493.98447  20224169.5704                   20224166.5004
 -19331721.59847 -15056092.30944  23103661.2194                   23103658.6524
 -21239416.80548 -16166618.13746  21035367.2734                   21035363.6484
  -9977945.79347  -7741546.76644  22650255.4454                   22650252.4734
 -14847623.66848 -11429076.75846  21275170.1334                   21275165.2154
   1929244.348 6                  24509706.078
 -21807419.27048 -16985798.41046  21642527.0864                   21642526.2624
 11  8  3  3  4 30.0000000  0  8G26G05G29G12G10G02G04G25
 -16603655.92646 -12927596.93843  24475600.4924                   24475599.0434
 -24972223.23448 -19437982.39147  20233086.1174                   20233082.6884
 -19369570.03147 -15085584.50845  23096458.9694                   23096455.9964
 -21150213.50048 -16097109.07846  21052341.9534                   21052338.7074
  -9839064.67247  -7633327.71144  22676683.9454                   22676681.4064
 -14766753.83248 -11366061.30546  21290559.3444                   21290554.2974
   2053738.156 6                  24533396.953
 -21785309.95348 -16968570.35546  21646734.4694                   21646733.5664
 11  8  3  3  5  0.0000000  0  8G26G05G29G12G10G02G04G25
 -16653886.38346 -12966737.48443  24466041.3594                   24466040.7234
 -24924794.88348 -19401025.22347  20242111.3284                   20242107.8324
 -19407394.95747 -15115058.39145  23089260.7274                   23089258.4614
 -21060491.65648 -16027195.94946  21069415.3364                   21069412.2504
  -9699888.87147  -7524879.05144  22703167.8284                   22703165.1644
 -14685772.45348 -11302958.91446  21305969.7424                   21305963.9734
   2178176.437 6                  24557075.688
 -21762623.16048 -16950892.31646  21651051.5864                   21651050.9384
 11  8  3  3  5 30.0000000  0  8G26G05G29G12G10G02G04G25
 -16704195.44146 -13005939.28943  24456468.1024                   24456466.8914
 -24876800.35548 -19363626.87147  20251244.4774                   20251240.8364
 -19445199.91047 -15144516.70345  23082066.6644                   23082064.8794
 -20970257.77348 -15956883.84446  21086586.4454                   21086582.9414
  -9560426.27047  -7416206.89844  22729706.5944                   22729704.2274
 -14604684.38748 -11239773.39846  21321400.0864                   21321394.8594
   2302554.16446   2473978.76653  24580745.4774                   24580741.5164
 -21739362.98848 -16932767.49246  21655477.6254                   21655477.0084
 11  8  3  3  6  0.0000000  0  8G26G05G29G12G10G02G04G25
 -16754576.15646 -13045196.91843  24446881.5704                   24446879.5664
 -24828236.03948 -19325784.53147  20260486.0554                   20260482.6564
 -19482979.14847 -15173954.98045  23074877.7974                   23074875.4774
 -20879509.62948 -15886171.00446  21103855.3364                   21103851.6724
  -9420675.44147  -7307310.16044  22756300.6484                   22756297.7274
 -14523486.17248 -11176502.06646  21336851.4614                   21336846.4804
   2426875.14846   2570852.26242  24604402.3444                   24604401.0824
 -21715524.78148 -16914192.25046  21660014.0394                   21660013.3794
 11  8  3  3  6 30.0000000  0  8G26G05G29G12G10G02G04G25
 -16805025.51246 -13084508.02743  24437281.6564                   24437279.4884
 -24779102.84048 -19287498.90647  20269835.6174                   20269832.3164
 -19520731.59447 -15203372.38345  23067693.2504                   23067692.1764
 -20788248.62548 -15815058.53146  21121221.7114                   21121218.4144
  -9280639.73847  -7198191.42244  22782948.5394                   22782945.7234
 -14442178.93448 -11113145.77346  21352323.8444                   21352318.2774
   2551138.96946   2667681.20742  24628048.7344                   24628047.5904
 -21691108.36348 -16895166.46146  21664660.3674                   21664659.3244
 11  8  3  3  7  0.0000000  0  8G26G05G29G12G10G02G04G25
 -16855541.54346 -13123871.10243  24427668.4534                   24427666.9534
 -24729403.18848 -19248771.88347  20279293.1804                   20279289.7234
 -19558456.88347 -15232768.60545  23060514.6564                   23060512.0314
 -20696479.49648 -15743550.12946  21138684.7114                   21138681.5204
  -9140323.38747  -7088854.02044  22809650.3674                   22809647.3794
 -14360764.32048 -11049705.82046  21367816.0944                   21367811.0704
   2675344.22746   2764464.52042  24651685.2894                   24651683.0514
 -21666114.36348 -16875690.59846  21669416.4304                   21669415.2704
 11  8  3  3  7 30.0000000  0  8G26G05G29G12G10G02G04G25
 -16906119.03946 -13163282.08243  24418043.3754                   24418042.6254
 -24679135.17648 -19209602.00447  20288858.9534                   20288855.6214
 -19596151.33647 -15262140.82045  23053341.7344                   23053339.4694
 -20604201.31648 -15671645.06646  21156245.0944                   21156241.2854
  -8999726.61347  -6979298.09444  22836404.6174                   22836401.3524
 -14279240.20348 -10986180.53146  21383330.0704                   21383324.4264
   2799493.04746   2861203.86743  24675309.3054                   24675306.9614
 -21640539.83248 -16855762.37146  21674283.2274                   21674282.3094
 11  8  3  3  8  0.0000000  0  8G26G05G29G12G10G02G04G25
 -16956756.29746 -13202739.62143  24408407.3984                   24408406.2384
 -24628301.21948 -19169991.11347  20298531.8674                   20298528.3364
 -19633814.50847 -15291488.64545  23046174.1254                   23046172.4614
 -20511416.59048 -15599345.28546  21173900.8754                   21173897.5234
  -8858853.54347  -6869526.88344  22863211.7814                   22863208.4024
 -14197608.43448 -10922571.35546  21398864.1724                   21398858.6484
   2923583.80546   2957897.91442  24698922.4924                   24698920.4734
 -21614385.68448 -16835382.49646  21679260.3444                   21679259.1954
 11  8  3  3  8 30.0000000  0  7G26G05G29G12G10G02G25
 -17007447.94946 -13242239.52343  24398761.4384                   24398759.7234
 -24576899.89548 -19129938.12147  20308313.7114                   20308310.5434
 -19671442.64847 -15320809.17245  23039013.4924                   23039011.5594
 -20418125.41048 -15526650.87146  21191653.5554                   21191650.4024
  -8717704.96547  -6759540.98444  22890071.7814                   22890068.1764
 -14115867.33648 -10858876.98846  21414418.7194                   21414413.5634
 -21587649.30148 -16814548.94546  21684347.7664                   21684346.9064
 11  8  3  3  9  0.0000000  0  7G26G05G29G12G10G02G25
 -17058193.66846 -13281781.59843  24389105.0634                   24389102.7194
 -24524934.99648 -19089445.97347  20318201.9224                   20318198.4844
 -19709037.53947 -15350103.80945  23031859.7814                   23031857.3444
 -20324332.54748 -15453565.52746  21209501.6414                   21209497.8674
  -8576286.75847  -6649344.98044  22916982.6804                   22916979.5164
 -14034020.07048 -10795099.89846  21429994.0394                   21429988.6884
 -21560333.21148 -16793263.65246  21689545.8594                   21689545.5084
 11  8  3  3  9 30.0000000  0  7G26G05G29G12G10G02G25
 -17108990.13346 -13321363.24243  24379438.7894                   24379436.2384
 -24472406.81648 -19048514.90647  20328197.9454                   20328194.3054
 -19746597.15647 -15379370.94945  23024712.1254                   23024709.9734
 -20230039.99248 -15380090.81646  21227445.2274                   21227441.4734
  -8434601.82847  -6538941.12944  22943944.3674                   22943940.9694
 -13952067.30948 -10731240.60246  21445588.8914                   21445583.6644
 -21532436.61348 -16771526.03946  21694854.6644                   21694853.5634
 11  8  3  3 10  0.0000000  0  7G26G05G29G12G10G02G25
 -17159826.59446 -13360976.02343  24369764.5234                   24369762.5744
 -24419308.79348 -19007139.81347  20338302.0634                   20338298.7974
 -19784112.36347 -15408603.50045  23017573.0394                   23017571.0434
 -20135242.30148 -15306222.48446  21245484.5864                   21245481.1294
  -8292644.99647  -6428325.43044  22970957.8834                   22970954.7274
 -13870001.47748 -10667293.19146  21461205.3524                   21461199.9804
 -21503951.50848 -16749329.84446  21700274.8984                   21700274.1374
 11  8  3  3 10 30.0000000  0  7G26G05G29G12G10G02G25
 -17210706.70746 -13400622.83643  24360082.6804                   24360080.7384
 -24365648.55948 -18965326.63747  20348513.4774                   20348509.7814
 -19821588.34447 -15437805.50445  23010440.9774                   23010439.2274
 -20039947.89548 -15231967.11346  21263618.2194                   21263615.1414
  -8150426.39547  -6317505.74244  22998020.8674                   22998018.1254
 -13787829.66848 -10603263.20746  21476842.2424                   21476836.9344
 -21474884.40248 -16726680.13746  21705806.0554                   21705805.1294
 11  8  3  3 11  0.0000000  0  7G26G05G29G12G10G02G25
 -17261625.28146 -13440299.59043  24350392.8364                   24350391.6644
 -24311425.20348 -18923074.66047  20358831.8594                   20358828.5744
 -19859021.56647 -15466974.19945  23003318.5084                   23003315.7974
 -19944156.91048 -15157324.80146  21281847.0084                   21281843.4614
  -8007946.70747  -6206482.61744  23025133.8444                   23025131.1764
 -13705550.59448 -10539149.64146  21492499.3524                   21492493.9574
 -21445233.05148 -16703575.17646  21711448.8054                   21711447.6214
 11  8  3  3 11 30.0000000  0  7G26G05G29G12G10G02G25
 -17312581.51646 -13480005.69943  24340696.1484                   24340695.1374
 -24256642.02748 -18880386.46147  20369256.5314                   20369253.0554
 -19896412.98047 -15496110.28945  22996202.8204                   22996201.0394
 -19847873.87948 -15082299.07046  21300168.9224                   21300165.4384
  -7865211.18847  -6095260.14844  23052295.6644                   23052292.4224
 -13623167.20348 -10474954.78146  21508176.3134                   21508171.2274
 -21414999.41048 -16680016.48446  21717201.9144                   21717201.3014
 11  8  3  3 12  0.0000000  0  7G26G05G29G12G10G02G25
 -17363567.08647 -13519734.66043  24330994.4384                   24330991.6254
 -24201295.00048 -18837258.88747  20379788.5784                   20379785.2464
 -19933755.89547 -15525208.59845  22989096.5084                   22989093.8754
 -19751095.12148 -15006887.06346  21318585.4614                   21318582.2814
  -7722217.47347  -5983836.50044  23079506.1644                   23079503.5744
 -13540674.58647 -10410674.81646  21523874.1094                   21523868.8554
 -21384178.09048 -16655999.86746  21723067.1334                   21723065.8634
 11  8  3  3 12 30.0000000  0  7G26G05G29G12G10G02G25
 -17414578.51646 -13559483.77343  24321287.3914                   24321285.0784
 -24145384.64848 -18793692.37147  20390428.3834                   20390424.3444
 -19971048.16847 -15554267.46545  22982000.1644                   22981997.7814
 -19653823.34048 -14931090.87946  21337095.6954                   21337092.5394
  -7578968.30147  -5872213.78544  23106765.7504                   23106763.1374
 -13458072.84048 -10346309.81346  21539592.9064                   21539587.5704
 -21352768.64148 -16631524.95746  21729044.2814                   21729043.0314
 11  8  3  3 13  0.0000000  0  7G26G05G29G12G10G02G25
 -17465620.18847 -13599256.45343  24311574.0944                   24311571.5904
 -24088919.43848 -18749693.49247  20401173.1024                   20401169.4414
 -20008295.60547 -15583291.37945  22974912.5474                   22974909.3284
 -19556067.93048 -14854917.82846  21355697.7274                   21355694.3794
  -7435473.65647  -5760399.77044  23134072.0394                   23134069.0514
 -13375369.96148 -10281865.99646  21555330.8674                   21555325.6254
 -21320778.23848 -16606597.35946  21735131.7504                   21735130.8674
 11  8  3  3 13 30.0000000  0  7G26G05G29G12G10G02G25
 -17516684.73847 -13639046.96144  24301856.6804                   24301855.0944
 -24031896.50848 -18705260.03147  20412024.3134                   20412020.8794
 -20045492.69947 -15612276.07845  22967834.2274                   22967831.1644
 -19457827.13348 -14778366.56346  21374392.7504                   21374389.5704
  -7291732.69547  -5648393.82044  23161425.0004                   23161422.0434
 -13292562.10548 -10217340.38746  21571088.3444                   21571083.1604
 -21288202.69548 -16581213.82446  21741330.5164                   21741329.6994
 11  8  3  3 14  0.0000000  0  7G26G05G29G12G10G02G25
 -17567771.56146 -13678854.83543  24292134.4924                   24292133.6054
 -23974319.62348 -18660394.90647  20422980.7194                   20422977.0904
 -20082640.35247 -15641222.25445  22960764.7274                   22960762.7624
 -19359104.99648 -14701440.22746  21393178.7894                   21393175.5514
  -7147750.64147  -5536200.02744  23188823.7734                   23188821.1454
 -13209652.46548 -10152735.46546  21586865.8674                   21586860.3754
 -21255044.37548 -16555376.15246  21747640.6094                   21747639.8054
 11  8  3  3 14 30.0000000  0  7G26G05G29G12G10G02G25
 -17618881.53546 -13718680.74243  24282409.1414                   24282407.3134
 -23916194.00048 -18615102.19947  20434041.5634                   20434037.9414
 -20119740.95347 -15670131.73845  22953704.3524                   22953702.2114
 -19259908.40648 -14624144.19146  21412055.1094                   21412051.8794
  -7003534.64546  -5423823.95744  23216267.0634                   23216264.2464
 -13126645.37948 -10088054.60946  21602661.3914                   21602656.2074
 -21221307.24648 -16529087.47346  21754060.2584                   21754059.5124
 11  8  3  3 15  0.0000000  0  7G26G05G29G12G10G02G25
 -17670004.41846 -13758516.71143  24272681.1724                   24272678.6564
 -23857513.37548 -18569377.02047  20445208.1334                   20445204.7814
 -20156786.16847 -15698998.09445  22946655.7734                   22946652.6214
 -19160232.31648 -14546474.51246  21431022.9924                   21431019.7854
  -6859080.40246  -5311262.21144  23243755.8204                   23243752.6764
 -13043534.02348 -10023292.50446  21618476.7194                   21618471.5004
 -21186984.07448 -16502342.13346  21760591.8834                   21760591.2344
 11  8  3  3 15 30.0000000  0  7G26G05G29G12G10G02G25
 -17721136.89846 -13798360.17243  24262950.5474                   24262948.6254
 -23798279.26648 -18523220.55147  20456480.3204                   20456476.4964
 -20193774.40247 -15727820.03545  22939616.5944                   22939613.8794
 -19060078.90248 -14468432.90246  21450081.6174                   21450078.0704
  -6714391.16447  -5198517.35244  23271289.5164                   23271286.0944
 -12960319.07448  -9958449.68446  21634311.7344                   21634306.5204
 -21152075.02048 -16475140.25846  21767234.7344                   21767233.6484
 11  8  3  3 16  0.0000000  0  7G26G05G29G12G10G02G25
 -19347702.93446 -15065814.14843  23953425.3594                   23953422.8484
 -25313916.10948 -19704236.25847  20168064.0234                   20168060.4104
 -21806130.46147 -16984201.30945  22632794.9384                   22632793.2464
 -20534872.55948 -15617622.75846  21169437.7274                   21169434.3134
  -8144890.39547  -6313192.07444  22999074.2274                   22999071.3794
 -14452423.55948 -11121128.50446  21350373.8914                   21350369.3204
 -22692004.26248 -17675085.11746  21474195.9224                   21474195.3324
 11  8  3  3 16 30.0000000  0  7G26G05G29G12G10G02G25
 -19398843.22346 -15105663.71543  23943693.5944                   23943691.1954
 -25253576.39148 -19657218.28947  20179546.2734                   20179542.7114
 -21842997.50147 -17012928.80445  22625779.8914                   22625777.1884
 -20433769.94548 -15538841.51246  21188676.7504                   21188673.0904
  -7999737.73046  -6200086.13343  23026695.7894                   23026693.2774
 -14369000.84848 -11056123.79346  21366249.2114                   21366243.4344
 -22655921.42248 -17646968.60946  21481062.4144                   21481061.6684
 11  8  3  3 17  0.0000000  0  7G26G05G29G12G10G02G25
 -19449986.39146 -15145515.49643  23933961.9224                   23933959.7074
 -25192689.58648 -19609774.01247  20191132.5394                   20191129.0044
 -21879804.95347 -17041609.84845  22618775.7114                   22618772.6804
 -20332199.81348 -15459695.95746  21208005.0634                   21208001.3364
  -7854361.17247  -6086805.70344  23054360.7894                   23054357.5474
 -14285478.21548 -10991041.20746  21382142.7344                   21382137.0234
 -22619255.37148 -17618397.65646  21488039.5474                   21488038.5634
 11  8  3  3 17 30.0000000  0  7G26G05G29G12G10G02G25
 -19501128.44246 -15185366.38843  23924229.2194                   23924226.6804
 -25131256.18248 -19561903.80347  20202823.1024                   20202819.5124
 -21916550.65647 -17070242.80145  22611782.9774                   22611780.2734
 -20230163.39148 -15380187.07346  21227421.7894                   21227418.4494
  -7708763.01047  -5973352.61343  23082066.6334                   23082063.8984
 -14201855.50348 -10925880.64146  21398055.6954                   21398050.4414
 -22582005.39848 -17589371.68846  21495127.8444                   21495127.0864
 11  8  3  3 18  0.0000000  0  7G26G05G29G12G10G02G25
 -19552265.53546 -15225213.44143  23914498.7894                   23914495.9924
 -25069276.87548 -19513608.23447  20214617.2734                   20214613.5744
 -21953232.68847 -17098826.12145  22604802.7664                   22604800.0594
 -20127662.95748 -15300316.60946  21246926.9304                   21246923.7154
  -7562945.25047  -5859728.37544  23109814.9144                   23109811.7814
 -14118132.43048 -10860641.88346  21413987.7734                   21413982.4224
 -22544171.12148 -17559890.42246  21502327.8524                   21502326.6254
 11  8  3  3 18 30.0000000  0  7G26G05G29G12G10G02G25
 -19603392.65546 -15265052.71543  23904769.4224                   23904766.9734
 -25006751.57448 -19464887.21147  20226515.4454                   20226512.0124
 -21989847.55147 -17127357.10945  22597835.3134                   22597832.5164
 -20024699.27748 -15220085.17246  21266520.5314                   21266517.1454
  -7416909.58247  -5745934.35544  23137604.6564                   23137601.5864
 -14034308.05148 -10795324.17646  21429938.8674                   21429933.3324
 -22505751.09048 -17529952.72746  21509638.8594                   21509638.1604
 11  8  3  3 19  0.0000000  0  7G26G05G29G12G10G02G25
 -19654510.55946 -15304884.81643  23895041.4064                   23895039.6844
 -24943685.36348 -19415744.70347  20238516.3444                   20238512.6484
 -22026397.74247 -17155837.68045  22590879.5474                   22590876.7624
 -19921278.31648 -15139497.42246  21286201.0164                   21286197.7154
  -7270662.91847  -5631975.91444  23165434.5944                   23165431.2114
 -13950386.62948 -10729930.85546  21445908.6884                   21445903.4924
 -22466749.34448 -17499561.74646  21517060.6804                   21517059.3754
 11  8  3  3 19 30.0000000  0  7G26G05G29G12G10G02G25
 -19705614.26647 -15344705.85543  23885316.9064                   23885314.8524
 -24880077.92648 -19366180.45347  20250620.4534                   20250616.7854
 -22062879.56647 -17184265.00445  22583937.0394                   22583934.3874
 -19817401.07048 -15058554.12146  21305968.2504                   21305964.3984
  -7124206.12147  -5517853.72344  23193304.9454                   23193300.7934
 -13866366.85548 -10664460.90246  21461897.1024                   21461891.4064
 -22427164.35248 -17468716.28946  21524593.2584                   21524592.5274
 11  8  3  3 20  0.0000000  0  7G26G05G29G12G10G02G25
 -19756701.58247 -15384514.11343  23875595.1334                   23875592.6884
 -24815931.88748 -19316196.52347  20262827.0554                   20262823.6054
 -22099292.57047 -17212638.69945  22577007.9694                   22577004.8554
 -19713070.85548 -14977257.85946  21325821.5004                   21325817.9494
  -6977543.05147  -5403570.81344  23221213.8984                   23221210.8404
 -13782250.02348 -10598915.29746  21477904.4924                   21477898.5124
 -22386997.42648 -17437417.37946  21532236.8054                   21532235.8674
 11  8  3  3 20 30.0000000  0  7G26G05G29G12G10G02G25
 -19807762.69946 -15424301.98043  23865878.9454                   23865876.3794
 -24751242.03148 -19265788.84047  20275137.0394                   20275133.6564
 -22135628.49247 -17240952.33645  22570093.3364                   22570091.1374
 -19608283.22748 -14895605.16846  21345761.6334                   21345758.2734
  -6830670.09847  -5289124.37144  23249162.6644                   23249159.8874
 -13698029.66848 -10533289.05146  21493930.6174                   21493924.7974
 -22346242.09448 -17405659.96546  21539992.5084                   21539991.3484
 11  8  3  3 21  0.0000000  0  7G26G05G29G12G10G02G25
 -19858800.60546 -15464071.77043  23856166.8054                   23856164.1954
 -24686015.86348 -19214963.24647  20287549.2114                   20287545.7974
 -22171891.81647 -17269209.40645  22563192.3134                   22563189.8984
 -19503047.58248 -14813603.38346  21365787.3914                   21365784.1764
  -6683596.53547  -5174521.61744  23277149.4924                   23277146.6094
 -13613712.64148 -10467587.46146  21509975.4694                   21509969.9964
 -22304905.03548 -17373449.25046  21547858.3284                   21547857.6294
 11  8  3  3 21 30.0000000  0  7G26G05G29G12G10G02G25
 -19909812.34846 -15503821.15643  23846458.7194                   23846457.0704
 -24620255.26648 -19163721.21547  20300063.2504                   20300059.4454
 -22208081.15247 -17297408.82045  22556306.0864                   22556303.4774
 -19397366.28148 -14731254.32446  21385898.1414                   21385894.1374
  -6536325.37546  -5059764.87544  23305173.8984                   23305171.2344
 -13529299.69148 -10401811.12546  21526038.7584                   21526033.6024
 -22262986.95348 -17340785.81346  21555835.2274                   21555834.2464
 11  8  3  3 22  0.0000000  0  7G26G05G29G12G10G02G25
 -19960792.74246 -15543546.08643  23836757.6484                   23836755.6334
 -24553959.66448 -19112062.28947  20312678.7114                   20312675.2974
 -22244193.23047 -17325548.03145  22549434.3594                   22549430.9924
 -19291240.43848 -14648558.86746  21406092.8444                   21406089.5744
  -6388857.73447  -4944855.03944  23333236.0944                   23333233.7814
 -13444789.15248 -10335958.75046  21542120.6254                   21542115.3094
 -22220486.25048 -17307668.36746  21563922.7194                   21563921.7344
 11  8  3  3 22 30.0000000  0  7G26G05G29G12G10G02G25
 -20011737.28946 -15583243.13343  23827064.4144                   23827060.7234
 -24487129.35448 -19059986.71647  20325396.0234                   20325392.3284
 -22280224.85547 -17353624.57845  22542577.6804                   22542574.3634
 -19184671.09848 -14565517.83246  21426372.7664                   21426369.2544
  -6241195.38047  -4829793.49444  23361335.3284                   23361332.4534
 -13360180.38348 -10270029.84046  21558220.9064                   21558215.6054
 -22177401.99248 -17274096.19546  21572121.4534                   21572120.5594
 11  8  3  3 23  0.0000000  0  7G26G05G29G12G10G02G25
 -20062645.89147 -15622912.11343  23817375.7894                   23817372.8054
 -24419769.50848 -19007498.51247  20338214.1804                   20338210.9024
 -22316177.73447 -17381639.72745  22535735.9144                   22535733.3364
 -19077663.91048 -14482135.60946  21446735.2894                   21446731.8984
  -6093344.36746  -4714584.94544  23389470.7894                   23389467.5904
 -13275476.85248 -10204027.08246  21574339.4534                   21574334.1414
 -22133737.85548 -17240072.18046  21580430.3134                   21580429.5274
 11  8  3  3 23 30.0000000  0  7G26G05G29G12G10G02G25
 -20113509.43047 -15662545.99644  23807697.1644                   23807694.4614
 -24351875.70748 -18954594.25047  20351133.9774                   20351130.4264
 -22352044.20347 -17409587.58245  22528910.7734                   22528907.8364
 -18970215.53947 -14398409.61346  21467182.2424                   21467178.3444
  -5945301.45947  -4599226.85744  23417642.7194                   23417639.6134
 -13190673.17248 -10137946.28146  21590477.1724                   21590471.8754
 -22089488.45748 -17205592.11746  21588851.1024                   21588849.9264
 11  8  3  3 24  0.0000000  0  7G26G05G29G12G10G02G25
 -20164331.96147 -15702147.93844  23798025.9844                   23798023.4654
 -24283457.09448 -18901281.03147  20364153.6174                   20364149.9104
 -22387829.88347 -17437472.44945  22522101.0634                   22522097.5434
 -18862336.07448 -14314347.68446  21487710.9224                   21487707.1644
  -5797077.44947  -4483727.65244  23445848.6884                   23445845.9024
 -13105776.89148 -10071793.33246  21606632.3594                   21606626.9964
 -22044661.59848 -17170662.09046  21597380.9224                   21597380.1414
 11  8  3  3 24 30.0000000  0  7G26G05G29G12G10G02G25
 -20215105.76647 -15741711.89543  23788363.1254                   23788361.5474
 -24214510.55948 -18847556.45347  20377273.8204                   20377270.3324
 -22423528.67647 -17465289.63745  22515307.7974                   22515304.5044
 -18754023.78548 -14229948.50846  21508322.0314                   21508318.5204
  -5648670.65647  -4368085.99644  23474088.8674                   23474086.8444
 -13020783.92248 -10005565.05146  21622806.2894                   21622800.7584
 -21999253.45348 -17135279.10246  21606022.0394                   21606020.9534
 11  8  3  3 25  0.0000000  0  7G26G05G29G12G10G02G25
 -20265824.56347 -15781232.98843  23778712.4144                   23778710.1994
 -24145034.43048 -18793419.19547  20390494.5164                   20390490.7114
 -22459135.56347 -17493035.19945  22508531.5554                   22508528.7114
 -18645277.96948 -14145211.52346  21529015.6024                   21529012.2074
  -5500080.65647  -4252301.62343  23502365.1334                   23502362.3984
 -12935691.34448  -9939259.14846  21638998.8284                   21638993.7154
 -21953261.30548 -17099441.05946  21614773.8524                   21614772.8284
 11  8  3  3 25 30.0000000  0  7G26G05G29G12G10G02G25
 -20316484.03146 -15820707.86343  23769071.9454                   23769069.6294
 -24075029.99248 -18738870.28547  20403815.6644                   20403812.2704
 -22494648.52047 -17520707.56645  22501773.6564                   22501771.0944
 -18536100.61347 -14060138.27746  21549791.2504                   21549787.7894
  -5351309.43447  -4136376.02743  23530675.6254                   23530673.0314
 -12850498.90648  -9872875.44146  21655210.4614                   21655204.9304
 -21906684.91848 -17063147.75846  21623637.2664                   21623636.1604
 11  8  3  3 26  0.0000000  0  7G26G05G29G12G10G02G25
 -20367086.51946 -15860138.32644  23759442.5704                   23759440.3874
 -24004504.39848 -18683915.27347  20417236.7734                   20417233.0164
 -22530071.29347 -17548309.67245  22495033.1334                   22495030.0084
 -18426500.07048 -13974735.25446  21570648.0234                   21570644.4844
  -5202365.58647  -4020315.87144  23559018.8834                   23559015.0554
 -12765212.55948  -9806418.55546  21671440.1414                   21671434.3444
 -21859530.53548 -17026404.07446  21632610.1094                   21632609.0744
 11  8  3  3 26 30.0000000  0  7G26G05G29G12G10G02G25
 -20417627.24146 -15899520.67544  23749824.8134                   23749823.2584
 -23933457.56648 -18628554.09047  20430756.3594                   20430752.5234
 -22565400.32847 -17575838.72745  22488310.0704                   22488307.5354
 -18316477.33248 -13889003.25046  21591584.3594                   21591580.6524
  -5053250.41047  -3904122.25444  23587394.0084                   23587391.1804
 -12679831.11748  -9739887.55546  21687687.2424                   21687681.5704
 -21811797.19948 -16989209.26646  21641693.7424                   21641692.7074
 11  8  3  3 27  0.0000000  0  7G26G05G29G12G10G02G25
 -20468101.33646 -15938851.10943  23740219.8594                   23740217.9224
 -23861890.53148 -18572787.56347  20444375.1254                   20444371.4804
 -22600632.58247 -17603292.37545  22481605.5164                   22481603.0704
 -18206033.66847 -13802943.25846  21612600.9924                   21612597.8554
  -4903965.28547  -3787796.18843  23615802.4224                   23615798.8834
 -12594353.51648  -9673281.64546  21703953.0314                   21703947.7774
 -21763484.24648 -16951562.79746  21650887.2424                   21650886.4924
 11  8  3  3 27 30.0000000  0  7G26G05G29G12G10G02G25
 -20518506.86746 -15978128.10544  23730627.9614                   23730626.5634
 -23789805.40648 -18516617.33247  20458092.3284                   20458088.7304
 -22635767.87147 -17630670.46145  22474919.4454                   22474916.4184
 -18095172.88747 -13716558.23446  21633697.0084                   21633693.8364
  -4754514.25046  -3671340.85943  23644241.2814                   23644238.6684
 -12508781.33648  -9606602.04346  21720236.9534                   21720231.6644
 -21714593.53948 -16913466.14846  21660190.7664                   21660189.5474
 11  8  3  3 28  0.0000000  0  8G26G05G29G12G15G10G02G25
 -20568840.14146 -16017348.79744  23721050.0394                   23721047.5274
 -23717203.97348 -18460044.77347  20471908.0864                   20471904.3674
 -22670803.71147 -17657971.04745  22468252.3204                   22468249.6214
 -17983897.76248 -13629850.35246  21654872.1564                   21654868.7854
 -17425751.41856 -13567808.46953  24668862.2894                   24668861.4534
  -4604899.91846  -3554758.26643  23672712.1564                   23672709.0354
 -12423114.44948  -9539848.64546  21736539.0864                   21736533.5594
 -21665125.41048 -16874919.53946  21669604.4144                   21669603.0354
 11  8  3  3 28 30.0000000  0  8G26G05G29G12G15G10G02G25
 -20619100.03547 -16056512.32044  23711485.6564                   23711483.5784
 -23644090.37148 -18403073.13347  20485821.0784                   20485817.4924
 -22705740.73047 -17685194.66445  22461603.8594                   22461601.0664
 -17872213.36748 -13542823.56646  21676124.8054                   21676121.4104
 -17474818.02746 -13606042.10543  24659525.5084                   24659522.6764
  -4455127.53947  -3438052.50443  23701212.9844                   23701210.3674
 -12337355.58248  -9473023.56646  21752858.2814                   21752852.7624
 -21615083.00048 -16835925.44546  21679127.0084                   21679126.2074
 11  8  3  3 29  0.0000000  0  8G26G05G29G12G15G10G02G25
 -20669284.41847 -16095616.98044  23701935.9774                   23701933.9344
 -23570467.47348 -18345704.62147  20499831.1254                   20499827.2774
 -22740578.27047 -17712340.75445  22454974.5554                   22454971.8914
 -17760123.57448 -13455480.88346  21697454.8834                   21697451.5744
 -17524007.68046 -13644371.60243  24650165.1954                   24650162.4384
  -4305200.96147  -3321226.58243  23729743.2344                   23729739.4804
 -12251506.16848  -9406127.93446  21769195.0554                   21769189.4614
 -21564468.18048 -16796485.32846  21688758.9534                   21688758.1094
 11  8  3  3 29 30.0000000  0  8G26G05G29G12G15G10G02G25
 -20719393.87147 -16134663.25844  23692400.7584                   23692398.6484
 -23496341.16048 -18287943.85547  20513936.8834                   20513933.3714
 -22775318.44147 -17739410.96545  22448363.2584                   22448360.5234
 -17647634.34047 -13367826.93046  21718860.8594                   21718857.5164
 -17573321.76246 -13682798.03943  24640781.1884                   24640778.4304
  -4155127.04346  -3204285.85943  23758301.0864                   23758298.6334
 -12165570.36348  -9339164.98446  21785547.9224                   21785542.6454
 -21513285.56348 -16756602.76246  21698498.4304                   21698497.7734
 11  8  3  3 30  0.0000000  0  8G26G05G29G12G15G10G02G25
 -20769417.74647 -16173642.85544  23682881.2894                   23682878.4734
 -23421706.08648 -18229786.64147  20528139.1484                   20528135.6334
 -22809952.48847 -17766398.51245  22441773.3284                   22441769.6414
 -17534741.85947 -13279858.77746  21740343.7114                   21740340.3594
 -17622750.51246 -13721313.85544  24631374.8834                   24631373.4304
  -4004901.53147  -3087227.00443  23786888.7504                   23786885.6484
 -12079541.21947  -9272129.30946  21801918.7114                   21801913.3014
 -21461528.81648 -16716272.82046  21708347.6094                   21708346.4614
 11  8  3  3 30 30.0000000  0  8G26G05G29G12G15G10G02G25
 -20819360.29747 -16212559.08244  23673377.3364                   23673374.6524
 -23346571.25048 -18171240.01246  20542436.8834                   20542433.5944
 -22844486.12547 -17793307.78545  22435201.8594                   22435198.5394
 -17421456.42647 -13191584.42246  21761901.0394                   21761897.8714
 -17672299.15646 -13759923.10244  24621946.2424                   24621943.6564
  -3854534.48847  -2970057.86343  23815501.9384                   23815499.6374
 -11993426.46147  -9205026.91046  21818305.8674                   21818300.5594
 -21409206.28948 -16675502.01246  21718304.0784                   21718303.1024
 11  8  3  3 31  0.0000000  0  8G26G05G29G12G15G10G02G25
 -20869206.34447 -16251400.11744  23663891.4614                   23663889.1804
 -23270927.07448 -18112296.48846  20556831.3594                   20556827.9024
 -22878905.80947 -17820128.28145  22428651.8914                   22428648.4414
 -17307769.40648 -13102997.12946  21783535.1024                   21783531.6724
 -17721953.77047 -13798614.91044  24612497.1644                   24612494.6094
  -3704017.35947  -2852771.80143  23844144.3834                   23844142.5704
 -11907214.94147  -9137849.10946  21834711.4144                   21834705.9494
 -21356307.27048 -16634282.00046  21728370.6254                   21728369.1254
 11  8  3  3 31 30.0000000  0  8G26G05G29G12G15G10G02G25
 -20918958.36747 -16290167.87944  23654424.5394                   23654421.1024
 -23194781.40248 -18052962.19546  20571321.8914                   20571317.9494
 -22913215.47347 -17846863.05945  22422122.4614                   22422119.3404
 -17193689.33648 -13014103.57046  21805243.9534                   21805240.5164
 -17771717.48047 -13837391.73444  24603027.3444                   24603024.7544
  -3553358.48046  -2735375.28144  23872814.4304                   23872811.3094
 -11820912.54747  -9070600.50446  21851134.2974                   21851128.9494
 -21302838.35948 -16592617.90646  21738545.2814                   21738544.3244
 11  8  3  3 32  0.0000000  0  8G26G05G29G12G15G10G02G25
 -20968605.71547 -16328854.09044  23644977.4844                   23644973.9534
 -23118128.87948 -17993232.94947  20585908.2584                   20585904.5044
 -22947406.14547 -17873505.12145  22415616.5084                   22415612.8914
 -17079211.33248 -12924899.93846  21827027.7814                   21827024.7114
 -17821580.81346 -13876246.16843  24593538.8284                   24593535.6804
  -3402553.56346  -2617864.94143  23901510.8834                   23901508.4264
 -11734512.35548  -9003275.69546  21867575.8674                   21867570.3634
 -21248793.09848 -16550504.70746  21748829.4224                   21748828.1724
 11  8  3  3 32 30.0000000  0  8G26G05G29G12G15G10G02G25
 -21018152.41447 -16367461.88744  23635548.6174                   23635545.5864
 -23040978.76248 -17933115.96947  20600589.3444                   20600585.9064
 -22981483.44147 -17900058.82845  22409131.8284                   22409128.3834
 -16964346.11748 -12835394.57846  21848886.3364                   21848883.0594
 -17871548.73046 -13915182.11344  24584030.7194                   24584027.5984
  -3251613.05147  -2500248.95744  23930234.6024                   23930231.9104
 -11648022.35248  -8935880.89846  21884034.3594                   21884028.6954
 -21194180.07848 -16507949.11346  21759222.2974                   21759221.4884
